<?xml version="1.0" encoding="UTF-8" standalone="no" ?>
<gpx xmlns="http://www.topografix.com/GPX/1/1" xmlns:xsi="http://www.w3.org/2001/XMLSchema-instance" xsi:schemaLocation="http://www.topografix.com/GPX/1/1 http://www.topografix.com/GPX/1/1/gpx.xsd" version="1.1" creator="VisuGPX - https://www.visugpx.com">
  <metadata>
    <name>HBaV 2026_ROUTE L</name>
  </metadata>
  <trk>
    <name><![CDATA[rando - route long-23534403]]></name>
    <extensions>
      <line xmlns="http://www.topografix.com/GPX/gpx_style/0/2">
        <color>c278dd</color>
        <opacity>1</opacity>
        <width>3</width>
          <extensions>
            <sens>1</sens>
          </extensions>
      </line>
    </extensions>
    <trkseg>
      <trkpt lat="48.74227" lon="7.36524">
        <ele>189</ele>
        <time>2026-05-13T04:24:04Z</time>
      </trkpt>
      <trkpt lat="48.74258" lon="7.36585">
        <ele>187.7</ele>
      </trkpt>
      <trkpt lat="48.7435" lon="7.36476">
        <ele>187</ele>
      </trkpt>
      <trkpt lat="48.74361" lon="7.3645">
        <ele>187</ele>
      </trkpt>
      <trkpt lat="48.7433" lon="7.36384">
        <ele>187.3</ele>
      </trkpt>
      <trkpt lat="48.74098" lon="7.35939">
        <ele>199</ele>
        <time>2026-05-13T04:24:08Z</time>
      </trkpt>
      <trkpt lat="48.74086" lon="7.35918">
        <ele>199</ele>
        <time>2026-05-13T04:24:12Z</time>
      </trkpt>
      <trkpt lat="48.74092" lon="7.35652">
        <ele>197</ele>
        <time>2026-05-13T04:24:43Z</time>
      </trkpt>
      <trkpt lat="48.74091" lon="7.35637">
        <ele>196</ele>
        <time>2026-05-13T04:24:45Z</time>
      </trkpt>
      <trkpt lat="48.74088" lon="7.35626">
        <ele>196</ele>
        <time>2026-05-13T04:24:46Z</time>
      </trkpt>
      <trkpt lat="48.74091" lon="7.35453">
        <ele>193</ele>
        <time>2026-05-13T04:25:06Z</time>
      </trkpt>
      <trkpt lat="48.74083" lon="7.35455">
        <ele>194</ele>
        <time>2026-05-13T04:25:08Z</time>
      </trkpt>
      <trkpt lat="48.7404" lon="7.35471">
        <ele>197</ele>
        <time>2026-05-13T04:25:16Z</time>
      </trkpt>
      <trkpt lat="48.74042" lon="7.35506">
        <ele>197</ele>
        <time>2026-05-13T04:25:20Z</time>
      </trkpt>
      <trkpt lat="48.74046" lon="7.35523">
        <ele>197</ele>
        <time>2026-05-13T04:25:22Z</time>
      </trkpt>
      <trkpt lat="48.74049" lon="7.35537">
        <ele>197</ele>
        <time>2026-05-13T04:25:24Z</time>
      </trkpt>
      <trkpt lat="48.74073" lon="7.356">
        <ele>196</ele>
        <time>2026-05-13T04:25:32Z</time>
      </trkpt>
      <trkpt lat="48.74076" lon="7.35611">
        <ele>197</ele>
        <time>2026-05-13T04:25:33Z</time>
      </trkpt>
      <trkpt lat="48.74078" lon="7.3562">
        <ele>197</ele>
        <time>2026-05-13T04:25:35Z</time>
      </trkpt>
      <trkpt lat="48.74078" lon="7.35643">
        <ele>198</ele>
        <time>2026-05-13T04:25:37Z</time>
      </trkpt>
      <trkpt lat="48.74075" lon="7.35736">
        <ele>199</ele>
        <time>2026-05-13T04:25:48Z</time>
      </trkpt>
      <trkpt lat="48.74072" lon="7.35778">
        <ele>199</ele>
        <time>2026-05-13T04:25:53Z</time>
      </trkpt>
      <trkpt lat="48.74071" lon="7.35799">
        <ele>199</ele>
        <time>2026-05-13T04:25:56Z</time>
      </trkpt>
      <trkpt lat="48.7407" lon="7.35839">
        <ele>199</ele>
        <time>2026-05-13T04:26:00Z</time>
      </trkpt>
      <trkpt lat="48.74069" lon="7.35923">
        <ele>201</ele>
        <time>2026-05-13T04:26:10Z</time>
      </trkpt>
      <trkpt lat="48.7407" lon="7.35929">
        <ele>201</ele>
        <time>2026-05-13T04:26:11Z</time>
      </trkpt>
      <trkpt lat="48.74073" lon="7.35936">
        <ele>201</ele>
        <time>2026-05-13T04:26:12Z</time>
      </trkpt>
      <trkpt lat="48.74018" lon="7.35907">
        <ele>206</ele>
        <time>2026-05-13T04:26:22Z</time>
      </trkpt>
      <trkpt lat="48.74009" lon="7.35903">
        <ele>207</ele>
        <time>2026-05-13T04:26:24Z</time>
      </trkpt>
      <trkpt lat="48.73985" lon="7.35894">
        <ele>208</ele>
        <time>2026-05-13T04:26:28Z</time>
      </trkpt>
      <trkpt lat="48.73976" lon="7.35889">
        <ele>209</ele>
        <time>2026-05-13T04:26:30Z</time>
      </trkpt>
      <trkpt lat="48.73968" lon="7.35888">
        <ele>209</ele>
        <time>2026-05-13T04:26:31Z</time>
      </trkpt>
      <trkpt lat="48.73931" lon="7.35896">
        <ele>212</ele>
        <time>2026-05-13T04:26:38Z</time>
      </trkpt>
      <trkpt lat="48.7392" lon="7.35896">
        <ele>213</ele>
        <time>2026-05-13T04:26:40Z</time>
      </trkpt>
      <trkpt lat="48.73873" lon="7.35884">
        <ele>217</ele>
        <time>2026-05-13T04:26:49Z</time>
      </trkpt>
      <trkpt lat="48.73836" lon="7.35878">
        <ele>220</ele>
        <time>2026-05-13T04:26:55Z</time>
      </trkpt>
      <trkpt lat="48.7383" lon="7.35878">
        <ele>220</ele>
        <time>2026-05-13T04:26:56Z</time>
      </trkpt>
      <trkpt lat="48.73807" lon="7.35875">
        <ele>222</ele>
        <time>2026-05-13T04:27:00Z</time>
      </trkpt>
      <trkpt lat="48.73792" lon="7.35873">
        <ele>223</ele>
        <time>2026-05-13T04:27:03Z</time>
      </trkpt>
      <trkpt lat="48.73786" lon="7.35876">
        <ele>223</ele>
        <time>2026-05-13T04:27:04Z</time>
      </trkpt>
      <trkpt lat="48.73782" lon="7.35867">
        <ele>223</ele>
        <time>2026-05-13T04:27:05Z</time>
      </trkpt>
      <trkpt lat="48.73781" lon="7.35859">
        <ele>224</ele>
        <time>2026-05-13T04:27:06Z</time>
      </trkpt>
      <trkpt lat="48.73778" lon="7.35809">
        <ele>226</ele>
        <time>2026-05-13T04:27:12Z</time>
      </trkpt>
      <trkpt lat="48.73775" lon="7.35795">
        <ele>226</ele>
        <time>2026-05-13T04:27:14Z</time>
      </trkpt>
      <trkpt lat="48.7377" lon="7.35784">
        <ele>227</ele>
        <time>2026-05-13T04:27:16Z</time>
      </trkpt>
      <trkpt lat="48.73766" lon="7.35779">
        <ele>228</ele>
        <time>2026-05-13T04:27:16Z</time>
      </trkpt>
      <trkpt lat="48.73762" lon="7.35774">
        <ele>228</ele>
        <time>2026-05-13T04:27:17Z</time>
      </trkpt>
      <trkpt lat="48.73756" lon="7.35769">
        <ele>229</ele>
        <time>2026-05-13T04:27:19Z</time>
      </trkpt>
      <trkpt lat="48.73753" lon="7.35768">
        <ele>229</ele>
        <time>2026-05-13T04:27:19Z</time>
      </trkpt>
      <trkpt lat="48.73743" lon="7.35764">
        <ele>230</ele>
        <time>2026-05-13T04:27:21Z</time>
      </trkpt>
      <trkpt lat="48.73732" lon="7.35767">
        <ele>231</ele>
        <time>2026-05-13T04:27:23Z</time>
      </trkpt>
      <trkpt lat="48.73724" lon="7.35774">
        <ele>231</ele>
        <time>2026-05-13T04:27:25Z</time>
      </trkpt>
      <trkpt lat="48.7368" lon="7.35823">
        <ele>233</ele>
        <time>2026-05-13T04:27:34Z</time>
      </trkpt>
      <trkpt lat="48.73659" lon="7.35842">
        <ele>234</ele>
        <time>2026-05-13T04:27:39Z</time>
      </trkpt>
      <trkpt lat="48.73643" lon="7.35854">
        <ele>235</ele>
        <time>2026-05-13T04:27:42Z</time>
      </trkpt>
      <trkpt lat="48.7362" lon="7.3586">
        <ele>237</ele>
        <time>2026-05-13T04:27:46Z</time>
      </trkpt>
      <trkpt lat="48.73613" lon="7.3586">
        <ele>237</ele>
        <time>2026-05-13T04:27:47Z</time>
      </trkpt>
      <trkpt lat="48.73606" lon="7.35859">
        <ele>238</ele>
        <time>2026-05-13T04:27:49Z</time>
      </trkpt>
      <trkpt lat="48.73599" lon="7.35857">
        <ele>239</ele>
        <time>2026-05-13T04:27:50Z</time>
      </trkpt>
      <trkpt lat="48.73592" lon="7.35854">
        <ele>239</ele>
        <time>2026-05-13T04:27:51Z</time>
      </trkpt>
      <trkpt lat="48.73587" lon="7.35851">
        <ele>240</ele>
        <time>2026-05-13T04:27:52Z</time>
      </trkpt>
      <trkpt lat="48.73579" lon="7.35845">
        <ele>241</ele>
        <time>2026-05-13T04:27:54Z</time>
      </trkpt>
      <trkpt lat="48.73573" lon="7.35837">
        <ele>241</ele>
        <time>2026-05-13T04:27:55Z</time>
      </trkpt>
      <trkpt lat="48.73548" lon="7.35866">
        <ele>239</ele>
        <time>2026-05-13T04:28:01Z</time>
      </trkpt>
      <trkpt lat="48.73543" lon="7.35866">
        <ele>239</ele>
        <time>2026-05-13T04:28:02Z</time>
      </trkpt>
      <trkpt lat="48.73527" lon="7.35858">
        <ele>239</ele>
        <time>2026-05-13T04:28:05Z</time>
      </trkpt>
      <trkpt lat="48.7348" lon="7.35834">
        <ele>239</ele>
        <time>2026-05-13T04:28:13Z</time>
      </trkpt>
      <trkpt lat="48.73474" lon="7.35828">
        <ele>239</ele>
        <time>2026-05-13T04:28:15Z</time>
      </trkpt>
      <trkpt lat="48.73468" lon="7.35817">
        <ele>239</ele>
        <time>2026-05-13T04:28:16Z</time>
      </trkpt>
      <trkpt lat="48.73425" lon="7.35796">
        <ele>238</ele>
        <time>2026-05-13T04:28:24Z</time>
      </trkpt>
      <trkpt lat="48.73431" lon="7.35765">
        <ele>240</ele>
        <time>2026-05-13T04:28:28Z</time>
      </trkpt>
      <trkpt lat="48.73431" lon="7.35759">
        <ele>240</ele>
        <time>2026-05-13T04:28:29Z</time>
      </trkpt>
      <trkpt lat="48.73427" lon="7.35755">
        <ele>240</ele>
        <time>2026-05-13T04:28:30Z</time>
      </trkpt>
      <trkpt lat="48.73378" lon="7.3573">
        <ele>238</ele>
        <time>2026-05-13T04:28:39Z</time>
      </trkpt>
      <trkpt lat="48.73343" lon="7.35713">
        <ele>236</ele>
        <time>2026-05-13T04:28:45Z</time>
      </trkpt>
      <trkpt lat="48.73332" lon="7.3571">
        <ele>235</ele>
        <time>2026-05-13T04:28:47Z</time>
      </trkpt>
      <trkpt lat="48.73323" lon="7.35711">
        <ele>235</ele>
        <time>2026-05-13T04:28:49Z</time>
      </trkpt>
      <trkpt lat="48.73257" lon="7.35727">
        <ele>230</ele>
        <time>2026-05-13T04:29:01Z</time>
      </trkpt>
      <trkpt lat="48.73248" lon="7.35727">
        <ele>230</ele>
        <time>2026-05-13T04:29:03Z</time>
      </trkpt>
      <trkpt lat="48.73224" lon="7.35655">
        <ele>233</ele>
        <time>2026-05-13T04:29:12Z</time>
      </trkpt>
      <trkpt lat="48.73221" lon="7.35645">
        <ele>233</ele>
        <time>2026-05-13T04:29:13Z</time>
      </trkpt>
      <trkpt lat="48.73214" lon="7.35617">
        <ele>233</ele>
        <time>2026-05-13T04:29:17Z</time>
      </trkpt>
      <trkpt lat="48.73209" lon="7.35604">
        <ele>234</ele>
        <time>2026-05-13T04:29:19Z</time>
      </trkpt>
      <trkpt lat="48.73161" lon="7.35682">
        <ele>233</ele>
        <time>2026-05-13T04:29:31Z</time>
      </trkpt>
      <trkpt lat="48.73153" lon="7.3569">
        <ele>233</ele>
        <time>2026-05-13T04:29:33Z</time>
      </trkpt>
      <trkpt lat="48.73114" lon="7.35716">
        <ele>233</ele>
        <time>2026-05-13T04:29:40Z</time>
      </trkpt>
      <trkpt lat="48.73109" lon="7.3572">
        <ele>233</ele>
        <time>2026-05-13T04:29:41Z</time>
      </trkpt>
      <trkpt lat="48.73105" lon="7.35724">
        <ele>233</ele>
        <time>2026-05-13T04:29:42Z</time>
      </trkpt>
      <trkpt lat="48.73101" lon="7.35732">
        <ele>233</ele>
        <time>2026-05-13T04:29:43Z</time>
      </trkpt>
      <trkpt lat="48.7309" lon="7.35761">
        <ele>234</ele>
        <time>2026-05-13T04:29:47Z</time>
      </trkpt>
      <trkpt lat="48.73044" lon="7.35726">
        <ele>232</ele>
        <time>2026-05-13T04:29:57Z</time>
      </trkpt>
      <trkpt lat="48.73029" lon="7.35811">
        <ele>233</ele>
        <time>2026-05-13T04:30:07Z</time>
      </trkpt>
      <trkpt lat="48.73025" lon="7.35813">
        <ele>233</ele>
        <time>2026-05-13T04:30:08Z</time>
      </trkpt>
      <trkpt lat="48.73012" lon="7.35879">
        <ele>235</ele>
        <time>2026-05-13T04:30:16Z</time>
      </trkpt>
      <trkpt lat="48.72997" lon="7.35939">
        <ele>236</ele>
        <time>2026-05-13T04:30:23Z</time>
      </trkpt>
      <trkpt lat="48.72984" lon="7.3598">
        <ele>236</ele>
        <time>2026-05-13T04:30:29Z</time>
      </trkpt>
      <trkpt lat="48.72949" lon="7.36065">
        <ele>236</ele>
        <time>2026-05-13T04:30:40Z</time>
      </trkpt>
      <trkpt lat="48.72907" lon="7.36135">
        <ele>237</ele>
        <time>2026-05-13T04:30:51Z</time>
      </trkpt>
      <trkpt lat="48.72871" lon="7.36198">
        <ele>239</ele>
        <time>2026-05-13T04:31:01Z</time>
      </trkpt>
      <trkpt lat="48.72858" lon="7.36221">
        <ele>240</ele>
        <time>2026-05-13T04:31:05Z</time>
      </trkpt>
      <trkpt lat="48.72855" lon="7.36236">
        <ele>240</ele>
        <time>2026-05-13T04:31:07Z</time>
      </trkpt>
      <trkpt lat="48.72849" lon="7.36248">
        <ele>241</ele>
        <time>2026-05-13T04:31:08Z</time>
      </trkpt>
      <trkpt lat="48.72832" lon="7.36264">
        <ele>241</ele>
        <time>2026-05-13T04:31:12Z</time>
      </trkpt>
      <trkpt lat="48.72824" lon="7.36278">
        <ele>241</ele>
        <time>2026-05-13T04:31:14Z</time>
      </trkpt>
      <trkpt lat="48.72818" lon="7.36272">
        <ele>241</ele>
        <time>2026-05-13T04:31:15Z</time>
      </trkpt>
      <trkpt lat="48.72809" lon="7.36267">
        <ele>240</ele>
        <time>2026-05-13T04:31:17Z</time>
      </trkpt>
      <trkpt lat="48.72751" lon="7.36267">
        <ele>237</ele>
        <time>2026-05-13T04:31:27Z</time>
      </trkpt>
      <trkpt lat="48.72733" lon="7.36263">
        <ele>236</ele>
        <time>2026-05-13T04:31:31Z</time>
      </trkpt>
      <trkpt lat="48.72537" lon="7.36205">
        <ele>222</ele>
        <time>2026-05-13T04:32:06Z</time>
      </trkpt>
      <trkpt lat="48.72451" lon="7.36179">
        <ele>215</ele>
        <time>2026-05-13T04:32:22Z</time>
      </trkpt>
      <trkpt lat="48.72392" lon="7.3616">
        <ele>212</ele>
        <time>2026-05-13T04:32:33Z</time>
      </trkpt>
      <trkpt lat="48.72366" lon="7.3615">
        <ele>211</ele>
        <time>2026-05-13T04:32:37Z</time>
      </trkpt>
      <trkpt lat="48.72361" lon="7.36147">
        <ele>210</ele>
        <time>2026-05-13T04:32:38Z</time>
      </trkpt>
      <trkpt lat="48.72356" lon="7.36144">
        <ele>210</ele>
        <time>2026-05-13T04:32:39Z</time>
      </trkpt>
      <trkpt lat="48.72354" lon="7.36143">
        <ele>210</ele>
        <time>2026-05-13T04:32:40Z</time>
      </trkpt>
      <trkpt lat="48.72333" lon="7.36133">
        <ele>209</ele>
        <time>2026-05-13T04:32:43Z</time>
      </trkpt>
      <trkpt lat="48.7229" lon="7.36112">
        <ele>211</ele>
        <time>2026-05-13T04:32:52Z</time>
      </trkpt>
      <trkpt lat="48.72278" lon="7.36107">
        <ele>211</ele>
        <time>2026-05-13T04:32:54Z</time>
      </trkpt>
      <trkpt lat="48.72264" lon="7.36106">
        <ele>211</ele>
        <time>2026-05-13T04:32:56Z</time>
      </trkpt>
      <trkpt lat="48.72257" lon="7.36108">
        <ele>211</ele>
        <time>2026-05-13T04:32:57Z</time>
      </trkpt>
      <trkpt lat="48.72246" lon="7.36113">
        <ele>211</ele>
        <time>2026-05-13T04:33:00Z</time>
      </trkpt>
      <trkpt lat="48.7223" lon="7.36124">
        <ele>211</ele>
        <time>2026-05-13T04:33:03Z</time>
      </trkpt>
      <trkpt lat="48.7222" lon="7.36132">
        <ele>210</ele>
        <time>2026-05-13T04:33:05Z</time>
      </trkpt>
      <trkpt lat="48.72203" lon="7.36147">
        <ele>209</ele>
        <time>2026-05-13T04:33:08Z</time>
      </trkpt>
      <trkpt lat="48.72193" lon="7.36155">
        <ele>209</ele>
        <time>2026-05-13T04:33:10Z</time>
      </trkpt>
      <trkpt lat="48.72168" lon="7.36173">
        <ele>208</ele>
        <time>2026-05-13T04:33:15Z</time>
      </trkpt>
      <trkpt lat="48.72113" lon="7.36203">
        <ele>204</ele>
        <time>2026-05-13T04:33:26Z</time>
      </trkpt>
      <trkpt lat="48.721" lon="7.36211">
        <ele>203</ele>
        <time>2026-05-13T04:33:28Z</time>
      </trkpt>
      <trkpt lat="48.72097" lon="7.36214">
        <ele>202</ele>
        <time>2026-05-13T04:33:29Z</time>
      </trkpt>
      <trkpt lat="48.72062" lon="7.36242">
        <ele>200</ele>
        <time>2026-05-13T04:33:36Z</time>
      </trkpt>
      <trkpt lat="48.72044" lon="7.36256">
        <ele>198</ele>
        <time>2026-05-13T04:33:39Z</time>
      </trkpt>
      <trkpt lat="48.72002" lon="7.36281">
        <ele>196</ele>
        <time>2026-05-13T04:33:47Z</time>
      </trkpt>
      <trkpt lat="48.71994" lon="7.36286">
        <ele>196</ele>
        <time>2026-05-13T04:33:49Z</time>
      </trkpt>
      <trkpt lat="48.7198" lon="7.3629">
        <ele>196</ele>
        <time>2026-05-13T04:33:51Z</time>
      </trkpt>
      <trkpt lat="48.71974" lon="7.36291">
        <ele>196</ele>
        <time>2026-05-13T04:33:52Z</time>
      </trkpt>
      <trkpt lat="48.71966" lon="7.36291">
        <ele>195</ele>
        <time>2026-05-13T04:33:54Z</time>
      </trkpt>
      <trkpt lat="48.71959" lon="7.36288">
        <ele>195</ele>
        <time>2026-05-13T04:33:55Z</time>
      </trkpt>
      <trkpt lat="48.71887" lon="7.36243">
        <ele>195</ele>
        <time>2026-05-13T04:34:09Z</time>
      </trkpt>
      <trkpt lat="48.7185" lon="7.36222">
        <ele>195</ele>
        <time>2026-05-13T04:34:16Z</time>
      </trkpt>
      <trkpt lat="48.71814" lon="7.36202">
        <ele>195</ele>
        <time>2026-05-13T04:34:23Z</time>
      </trkpt>
      <trkpt lat="48.7181" lon="7.36203">
        <ele>195</ele>
        <time>2026-05-13T04:34:24Z</time>
      </trkpt>
      <trkpt lat="48.71806" lon="7.36205">
        <ele>195</ele>
        <time>2026-05-13T04:34:24Z</time>
      </trkpt>
      <trkpt lat="48.71693" lon="7.36269">
        <ele>199</ele>
        <time>2026-05-13T04:34:46Z</time>
      </trkpt>
      <trkpt lat="48.71688" lon="7.36272">
        <ele>199</ele>
        <time>2026-05-13T04:34:47Z</time>
      </trkpt>
      <trkpt lat="48.71616" lon="7.363">
        <ele>201</ele>
        <time>2026-05-13T04:35:00Z</time>
      </trkpt>
      <trkpt lat="48.71543" lon="7.3633">
        <ele>203</ele>
        <time>2026-05-13T04:35:13Z</time>
      </trkpt>
      <trkpt lat="48.71436" lon="7.36379">
        <ele>213</ele>
        <time>2026-05-13T04:35:33Z</time>
      </trkpt>
      <trkpt lat="48.71422" lon="7.36384">
        <ele>214</ele>
        <time>2026-05-13T04:35:36Z</time>
      </trkpt>
      <trkpt lat="48.71359" lon="7.364">
        <ele>217</ele>
        <time>2026-05-13T04:35:47Z</time>
      </trkpt>
      <trkpt lat="48.71321" lon="7.36404">
        <ele>219</ele>
        <time>2026-05-13T04:35:54Z</time>
      </trkpt>
      <trkpt lat="48.71198" lon="7.36403">
        <ele>221</ele>
        <time>2026-05-13T04:36:16Z</time>
      </trkpt>
      <trkpt lat="48.71037" lon="7.36399">
        <ele>222</ele>
        <time>2026-05-13T04:36:45Z</time>
      </trkpt>
      <trkpt lat="48.71" lon="7.36401">
        <ele>223</ele>
        <time>2026-05-13T04:36:51Z</time>
      </trkpt>
      <trkpt lat="48.70998" lon="7.36404">
        <ele>223</ele>
        <time>2026-05-13T04:36:52Z</time>
      </trkpt>
      <trkpt lat="48.70997" lon="7.36408">
        <ele>223</ele>
        <time>2026-05-13T04:36:52Z</time>
      </trkpt>
      <trkpt lat="48.70979" lon="7.364">
        <ele>223</ele>
        <time>2026-05-13T04:36:56Z</time>
      </trkpt>
      <trkpt lat="48.7097" lon="7.36398">
        <ele>223</ele>
        <time>2026-05-13T04:36:57Z</time>
      </trkpt>
      <trkpt lat="48.70962" lon="7.36397">
        <ele>223</ele>
        <time>2026-05-13T04:36:59Z</time>
      </trkpt>
      <trkpt lat="48.70956" lon="7.3638">
        <ele>223</ele>
        <time>2026-05-13T04:37:01Z</time>
      </trkpt>
      <trkpt lat="48.70945" lon="7.36365">
        <ele>224</ele>
        <time>2026-05-13T04:37:03Z</time>
      </trkpt>
      <trkpt lat="48.70809" lon="7.3625">
        <ele>225</ele>
        <time>2026-05-13T04:37:31Z</time>
      </trkpt>
      <trkpt lat="48.70665" lon="7.36128">
        <ele>220</ele>
        <time>2026-05-13T04:38:01Z</time>
      </trkpt>
      <trkpt lat="48.70561" lon="7.36037">
        <ele>216</ele>
        <time>2026-05-13T04:38:22Z</time>
      </trkpt>
      <trkpt lat="48.70514" lon="7.35997">
        <ele>217</ele>
        <time>2026-05-13T04:38:31Z</time>
      </trkpt>
      <trkpt lat="48.70493" lon="7.35968">
        <ele>217</ele>
        <time>2026-05-13T04:38:37Z</time>
      </trkpt>
      <trkpt lat="48.70404" lon="7.35802">
        <ele>215</ele>
        <time>2026-05-13T04:39:02Z</time>
      </trkpt>
      <trkpt lat="48.70366" lon="7.35732">
        <ele>215</ele>
        <time>2026-05-13T04:39:12Z</time>
      </trkpt>
      <trkpt lat="48.70338" lon="7.35675">
        <ele>214</ele>
        <time>2026-05-13T04:39:21Z</time>
      </trkpt>
      <trkpt lat="48.7031" lon="7.35618">
        <ele>215</ele>
        <time>2026-05-13T04:39:29Z</time>
      </trkpt>
      <trkpt lat="48.70296" lon="7.35596">
        <ele>216</ele>
        <time>2026-05-13T04:39:33Z</time>
      </trkpt>
      <trkpt lat="48.7028" lon="7.35577">
        <ele>217</ele>
        <time>2026-05-13T04:39:36Z</time>
      </trkpt>
      <trkpt lat="48.70274" lon="7.35569">
        <ele>218</ele>
        <time>2026-05-13T04:39:38Z</time>
      </trkpt>
      <trkpt lat="48.70254" lon="7.35545">
        <ele>220</ele>
        <time>2026-05-13T04:39:42Z</time>
      </trkpt>
      <trkpt lat="48.70245" lon="7.35529">
        <ele>220</ele>
        <time>2026-05-13T04:39:45Z</time>
      </trkpt>
      <trkpt lat="48.70233" lon="7.35503">
        <ele>221</ele>
        <time>2026-05-13T04:39:48Z</time>
      </trkpt>
      <trkpt lat="48.70185" lon="7.35383">
        <ele>219</ele>
        <time>2026-05-13T04:40:05Z</time>
      </trkpt>
      <trkpt lat="48.70183" lon="7.35371">
        <ele>218</ele>
        <time>2026-05-13T04:40:06Z</time>
      </trkpt>
      <trkpt lat="48.70187" lon="7.3536">
        <ele>218</ele>
        <time>2026-05-13T04:40:08Z</time>
      </trkpt>
      <trkpt lat="48.70199" lon="7.35337">
        <ele>216</ele>
        <time>2026-05-13T04:40:11Z</time>
      </trkpt>
      <trkpt lat="48.70221" lon="7.35292">
        <ele>214</ele>
        <time>2026-05-13T04:40:18Z</time>
      </trkpt>
      <trkpt lat="48.70222" lon="7.35281">
        <ele>214</ele>
        <time>2026-05-13T04:40:19Z</time>
      </trkpt>
      <trkpt lat="48.70223" lon="7.35268">
        <ele>214</ele>
        <time>2026-05-13T04:40:21Z</time>
      </trkpt>
      <trkpt lat="48.70215" lon="7.35231">
        <ele>213</ele>
        <time>2026-05-13T04:40:25Z</time>
      </trkpt>
      <trkpt lat="48.70191" lon="7.35234">
        <ele>215</ele>
        <time>2026-05-13T04:40:29Z</time>
      </trkpt>
      <trkpt lat="48.70172" lon="7.35241">
        <ele>216</ele>
        <time>2026-05-13T04:40:33Z</time>
      </trkpt>
      <trkpt lat="48.70143" lon="7.35248">
        <ele>218</ele>
        <time>2026-05-13T04:40:38Z</time>
      </trkpt>
      <trkpt lat="48.70137" lon="7.35248">
        <ele>218</ele>
        <time>2026-05-13T04:40:39Z</time>
      </trkpt>
      <trkpt lat="48.70131" lon="7.35244">
        <ele>219</ele>
        <time>2026-05-13T04:40:40Z</time>
      </trkpt>
      <trkpt lat="48.70125" lon="7.35238">
        <ele>219</ele>
        <time>2026-05-13T04:40:42Z</time>
      </trkpt>
      <trkpt lat="48.70049" lon="7.351">
        <ele>223</ele>
        <time>2026-05-13T04:41:03Z</time>
      </trkpt>
      <trkpt lat="48.70045" lon="7.35091">
        <ele>223</ele>
        <time>2026-05-13T04:41:04Z</time>
      </trkpt>
      <trkpt lat="48.70024" lon="7.35012">
        <ele>221</ele>
        <time>2026-05-13T04:41:14Z</time>
      </trkpt>
      <trkpt lat="48.70018" lon="7.34997">
        <ele>221</ele>
        <time>2026-05-13T04:41:16Z</time>
      </trkpt>
      <trkpt lat="48.69973" lon="7.34922">
        <ele>221</ele>
        <time>2026-05-13T04:41:28Z</time>
      </trkpt>
      <trkpt lat="48.69924" lon="7.34845">
        <ele>224</ele>
        <time>2026-05-13T04:41:41Z</time>
      </trkpt>
      <trkpt lat="48.69881" lon="7.34799">
        <ele>226</ele>
        <time>2026-05-13T04:41:50Z</time>
      </trkpt>
      <trkpt lat="48.69826" lon="7.34749">
        <ele>226</ele>
        <time>2026-05-13T04:42:01Z</time>
      </trkpt>
      <trkpt lat="48.69816" lon="7.34745">
        <ele>227</ele>
        <time>2026-05-13T04:42:03Z</time>
      </trkpt>
      <trkpt lat="48.69809" lon="7.34728">
        <ele>227</ele>
        <time>2026-05-13T04:42:06Z</time>
      </trkpt>
      <trkpt lat="48.69768" lon="7.34672">
        <ele>226</ele>
        <time>2026-05-13T04:42:15Z</time>
      </trkpt>
      <trkpt lat="48.6976" lon="7.34659">
        <ele>226</ele>
        <time>2026-05-13T04:42:17Z</time>
      </trkpt>
      <trkpt lat="48.69698" lon="7.34561">
        <ele>227</ele>
        <time>2026-05-13T04:42:33Z</time>
      </trkpt>
      <trkpt lat="48.69675" lon="7.34528">
        <ele>227</ele>
        <time>2026-05-13T04:42:39Z</time>
      </trkpt>
      <trkpt lat="48.69625" lon="7.34485">
        <ele>228</ele>
        <time>2026-05-13T04:42:49Z</time>
      </trkpt>
      <trkpt lat="48.69594" lon="7.34453">
        <ele>229</ele>
        <time>2026-05-13T04:42:56Z</time>
      </trkpt>
      <trkpt lat="48.69574" lon="7.34427">
        <ele>230</ele>
        <time>2026-05-13T04:43:01Z</time>
      </trkpt>
      <trkpt lat="48.69538" lon="7.34356">
        <ele>231</ele>
        <time>2026-05-13T04:43:11Z</time>
      </trkpt>
      <trkpt lat="48.69524" lon="7.34321">
        <ele>230</ele>
        <time>2026-05-13T04:43:16Z</time>
      </trkpt>
      <trkpt lat="48.69513" lon="7.34282">
        <ele>231</ele>
        <time>2026-05-13T04:43:21Z</time>
      </trkpt>
      <trkpt lat="48.69508" lon="7.34268">
        <ele>231</ele>
        <time>2026-05-13T04:43:23Z</time>
      </trkpt>
      <trkpt lat="48.69466" lon="7.34189">
        <ele>233</ele>
        <time>2026-05-13T04:43:35Z</time>
      </trkpt>
      <trkpt lat="48.69438" lon="7.34127">
        <ele>235</ele>
        <time>2026-05-13T04:43:44Z</time>
      </trkpt>
      <trkpt lat="48.69432" lon="7.34108">
        <ele>235</ele>
        <time>2026-05-13T04:43:46Z</time>
      </trkpt>
      <trkpt lat="48.69404" lon="7.34033">
        <ele>237</ele>
        <time>2026-05-13T04:43:56Z</time>
      </trkpt>
      <trkpt lat="48.69364" lon="7.33926">
        <ele>240</ele>
        <time>2026-05-13T04:44:11Z</time>
      </trkpt>
      <trkpt lat="48.69357" lon="7.33901">
        <ele>242</ele>
        <time>2026-05-13T04:44:14Z</time>
      </trkpt>
      <trkpt lat="48.69352" lon="7.33881">
        <ele>243</ele>
        <time>2026-05-13T04:44:16Z</time>
      </trkpt>
      <trkpt lat="48.69329" lon="7.33751">
        <ele>247</ele>
        <time>2026-05-13T04:44:32Z</time>
      </trkpt>
      <trkpt lat="48.69324" lon="7.33719">
        <ele>248</ele>
        <time>2026-05-13T04:44:36Z</time>
      </trkpt>
      <trkpt lat="48.69314" lon="7.33679">
        <ele>249</ele>
        <time>2026-05-13T04:44:41Z</time>
      </trkpt>
      <trkpt lat="48.69282" lon="7.33577">
        <ele>253</ele>
        <time>2026-05-13T04:44:54Z</time>
      </trkpt>
      <trkpt lat="48.69254" lon="7.33488">
        <ele>257</ele>
        <time>2026-05-13T04:45:06Z</time>
      </trkpt>
      <trkpt lat="48.69235" lon="7.33414">
        <ele>261</ele>
        <time>2026-05-13T04:45:15Z</time>
      </trkpt>
      <trkpt lat="48.69232" lon="7.33381">
        <ele>263</ele>
        <time>2026-05-13T04:45:19Z</time>
      </trkpt>
      <trkpt lat="48.69229" lon="7.33307">
        <ele>267</ele>
        <time>2026-05-13T04:45:28Z</time>
      </trkpt>
      <trkpt lat="48.69227" lon="7.33257">
        <ele>269</ele>
        <time>2026-05-13T04:45:34Z</time>
      </trkpt>
      <trkpt lat="48.69221" lon="7.33166">
        <ele>276</ele>
        <time>2026-05-13T04:45:44Z</time>
      </trkpt>
      <trkpt lat="48.69213" lon="7.33109">
        <ele>282</ele>
        <time>2026-05-13T04:45:51Z</time>
      </trkpt>
      <trkpt lat="48.69198" lon="7.33039">
        <ele>289</ele>
        <time>2026-05-13T04:46:00Z</time>
      </trkpt>
      <trkpt lat="48.69192" lon="7.33018">
        <ele>290</ele>
        <time>2026-05-13T04:46:03Z</time>
      </trkpt>
      <trkpt lat="48.69173" lon="7.32984">
        <ele>294</ele>
        <time>2026-05-13T04:46:08Z</time>
      </trkpt>
      <trkpt lat="48.69162" lon="7.32966">
        <ele>296</ele>
        <time>2026-05-13T04:46:11Z</time>
      </trkpt>
      <trkpt lat="48.69155" lon="7.32954">
        <ele>298</ele>
        <time>2026-05-13T04:46:13Z</time>
      </trkpt>
      <trkpt lat="48.69109" lon="7.32892">
        <ele>302</ele>
        <time>2026-05-13T04:46:24Z</time>
      </trkpt>
      <trkpt lat="48.69069" lon="7.32847">
        <ele>303</ele>
        <time>2026-05-13T04:46:32Z</time>
      </trkpt>
      <trkpt lat="48.69042" lon="7.3282">
        <ele>303</ele>
        <time>2026-05-13T04:46:38Z</time>
      </trkpt>
      <trkpt lat="48.68983" lon="7.32762">
        <ele>300</ele>
        <time>2026-05-13T04:46:51Z</time>
      </trkpt>
      <trkpt lat="48.68948" lon="7.32732">
        <ele>301</ele>
        <time>2026-05-13T04:46:58Z</time>
      </trkpt>
      <trkpt lat="48.68916" lon="7.32704">
        <ele>301</ele>
        <time>2026-05-13T04:47:04Z</time>
      </trkpt>
      <trkpt lat="48.68904" lon="7.32689">
        <ele>302</ele>
        <time>2026-05-13T04:47:07Z</time>
      </trkpt>
      <trkpt lat="48.68891" lon="7.32659">
        <ele>306</ele>
        <time>2026-05-13T04:47:11Z</time>
      </trkpt>
      <trkpt lat="48.68878" lon="7.3264">
        <ele>310</ele>
        <time>2026-05-13T04:47:15Z</time>
      </trkpt>
      <trkpt lat="48.68832" lon="7.32593">
        <ele>313</ele>
        <time>2026-05-13T04:47:24Z</time>
      </trkpt>
      <trkpt lat="48.68814" lon="7.3257">
        <ele>315</ele>
        <time>2026-05-13T04:47:29Z</time>
      </trkpt>
      <trkpt lat="48.68799" lon="7.32538">
        <ele>319</ele>
        <time>2026-05-13T04:47:33Z</time>
      </trkpt>
      <trkpt lat="48.68791" lon="7.32521">
        <ele>321</ele>
        <time>2026-05-13T04:47:36Z</time>
      </trkpt>
      <trkpt lat="48.68768" lon="7.32488">
        <ele>320</ele>
        <time>2026-05-13T04:47:41Z</time>
      </trkpt>
      <trkpt lat="48.6871" lon="7.32423">
        <ele>320</ele>
        <time>2026-05-13T04:47:54Z</time>
      </trkpt>
      <trkpt lat="48.68636" lon="7.32352">
        <ele>328</ele>
        <time>2026-05-13T04:48:10Z</time>
      </trkpt>
      <trkpt lat="48.68593" lon="7.32314">
        <ele>334</ele>
        <time>2026-05-13T04:48:19Z</time>
      </trkpt>
      <trkpt lat="48.68555" lon="7.32267">
        <ele>339</ele>
        <time>2026-05-13T04:48:27Z</time>
      </trkpt>
      <trkpt lat="48.68542" lon="7.3225">
        <ele>340</ele>
        <time>2026-05-13T04:48:30Z</time>
      </trkpt>
      <trkpt lat="48.68447" lon="7.32153">
        <ele>340</ele>
        <time>2026-05-13T04:48:51Z</time>
      </trkpt>
      <trkpt lat="48.68423" lon="7.32129">
        <ele>340</ele>
        <time>2026-05-13T04:48:56Z</time>
      </trkpt>
      <trkpt lat="48.68374" lon="7.3209">
        <ele>343</ele>
        <time>2026-05-13T04:49:06Z</time>
      </trkpt>
      <trkpt lat="48.68371" lon="7.32087">
        <ele>343</ele>
        <time>2026-05-13T04:49:06Z</time>
      </trkpt>
      <trkpt lat="48.68276" lon="7.32013">
        <ele>340</ele>
        <time>2026-05-13T04:49:25Z</time>
      </trkpt>
      <trkpt lat="48.68192" lon="7.31938">
        <ele>335</ele>
        <time>2026-05-13T04:49:43Z</time>
      </trkpt>
      <trkpt lat="48.68093" lon="7.31887">
        <ele>333</ele>
        <time>2026-05-13T04:50:01Z</time>
      </trkpt>
      <trkpt lat="48.68073" lon="7.31874">
        <ele>331</ele>
        <time>2026-05-13T04:50:05Z</time>
      </trkpt>
      <trkpt lat="48.6799" lon="7.31831">
        <ele>322</ele>
        <time>2026-05-13T04:50:21Z</time>
      </trkpt>
      <trkpt lat="48.6798" lon="7.31829">
        <ele>322</ele>
        <time>2026-05-13T04:50:23Z</time>
      </trkpt>
      <trkpt lat="48.67972" lon="7.31834">
        <ele>320</ele>
        <time>2026-05-13T04:50:24Z</time>
      </trkpt>
      <trkpt lat="48.6795" lon="7.31868">
        <ele>316</ele>
        <time>2026-05-13T04:50:30Z</time>
      </trkpt>
      <trkpt lat="48.67942" lon="7.31875">
        <ele>315</ele>
        <time>2026-05-13T04:50:31Z</time>
      </trkpt>
      <trkpt lat="48.67941" lon="7.3187">
        <ele>316</ele>
        <time>2026-05-13T04:50:32Z</time>
      </trkpt>
      <trkpt lat="48.67939" lon="7.31866">
        <ele>316</ele>
        <time>2026-05-13T04:50:33Z</time>
      </trkpt>
      <trkpt lat="48.67934" lon="7.31862">
        <ele>316</ele>
        <time>2026-05-13T04:50:34Z</time>
      </trkpt>
      <trkpt lat="48.67873" lon="7.31817">
        <ele>320</ele>
        <time>2026-05-13T04:50:46Z</time>
      </trkpt>
      <trkpt lat="48.67845" lon="7.31794">
        <ele>322</ele>
        <time>2026-05-13T04:50:51Z</time>
      </trkpt>
      <trkpt lat="48.67827" lon="7.31778">
        <ele>323</ele>
        <time>2026-05-13T04:50:55Z</time>
      </trkpt>
      <trkpt lat="48.67796" lon="7.31753">
        <ele>325</ele>
        <time>2026-05-13T04:51:01Z</time>
      </trkpt>
      <trkpt lat="48.67769" lon="7.31737">
        <ele>328</ele>
        <time>2026-05-13T04:51:06Z</time>
      </trkpt>
      <trkpt lat="48.6774" lon="7.31723">
        <ele>330</ele>
        <time>2026-05-13T04:51:12Z</time>
      </trkpt>
      <trkpt lat="48.67712" lon="7.31712">
        <ele>333</ele>
        <time>2026-05-13T04:51:17Z</time>
      </trkpt>
      <trkpt lat="48.67694" lon="7.31707">
        <ele>333</ele>
        <time>2026-05-13T04:51:20Z</time>
      </trkpt>
      <trkpt lat="48.67687" lon="7.31705">
        <ele>334</ele>
        <time>2026-05-13T04:51:22Z</time>
      </trkpt>
      <trkpt lat="48.67544" lon="7.31666">
        <ele>338</ele>
        <time>2026-05-13T04:51:47Z</time>
      </trkpt>
      <trkpt lat="48.67511" lon="7.31655">
        <ele>341</ele>
        <time>2026-05-13T04:51:53Z</time>
      </trkpt>
      <trkpt lat="48.67499" lon="7.31649">
        <ele>342</ele>
        <time>2026-05-13T04:51:56Z</time>
      </trkpt>
      <trkpt lat="48.67442" lon="7.31604">
        <ele>348</ele>
        <time>2026-05-13T04:52:07Z</time>
      </trkpt>
      <trkpt lat="48.67426" lon="7.31596">
        <ele>349</ele>
        <time>2026-05-13T04:52:10Z</time>
      </trkpt>
      <trkpt lat="48.67407" lon="7.31589">
        <ele>348</ele>
        <time>2026-05-13T04:52:14Z</time>
      </trkpt>
      <trkpt lat="48.67392" lon="7.3158">
        <ele>348</ele>
        <time>2026-05-13T04:52:16Z</time>
      </trkpt>
      <trkpt lat="48.67357" lon="7.31552">
        <ele>349</ele>
        <time>2026-05-13T04:52:24Z</time>
      </trkpt>
      <trkpt lat="48.67325" lon="7.31522">
        <ele>348</ele>
        <time>2026-05-13T04:52:30Z</time>
      </trkpt>
      <trkpt lat="48.67311" lon="7.31504">
        <ele>347</ele>
        <time>2026-05-13T04:52:33Z</time>
      </trkpt>
      <trkpt lat="48.67302" lon="7.31486">
        <ele>347</ele>
        <time>2026-05-13T04:52:36Z</time>
      </trkpt>
      <trkpt lat="48.6729" lon="7.31426">
        <ele>349</ele>
        <time>2026-05-13T04:52:44Z</time>
      </trkpt>
      <trkpt lat="48.67279" lon="7.31369">
        <ele>349</ele>
        <time>2026-05-13T04:52:50Z</time>
      </trkpt>
      <trkpt lat="48.67266" lon="7.31261">
        <ele>351</ele>
        <time>2026-05-13T04:53:03Z</time>
      </trkpt>
      <trkpt lat="48.67265" lon="7.31216">
        <ele>352</ele>
        <time>2026-05-13T04:53:09Z</time>
      </trkpt>
      <trkpt lat="48.67268" lon="7.31103">
        <ele>358</ele>
        <time>2026-05-13T04:53:22Z</time>
      </trkpt>
      <trkpt lat="48.67266" lon="7.31074">
        <ele>358</ele>
        <time>2026-05-13T04:53:25Z</time>
      </trkpt>
      <trkpt lat="48.67264" lon="7.31059">
        <ele>358</ele>
        <time>2026-05-13T04:53:27Z</time>
      </trkpt>
      <trkpt lat="48.67259" lon="7.31052">
        <ele>357</ele>
        <time>2026-05-13T04:53:28Z</time>
      </trkpt>
      <trkpt lat="48.67255" lon="7.31053">
        <ele>355</ele>
        <time>2026-05-13T04:53:29Z</time>
      </trkpt>
      <trkpt lat="48.67249" lon="7.3106">
        <ele>353</ele>
        <time>2026-05-13T04:53:30Z</time>
      </trkpt>
      <trkpt lat="48.67246" lon="7.31071">
        <ele>354</ele>
        <time>2026-05-13T04:53:32Z</time>
      </trkpt>
      <trkpt lat="48.67234" lon="7.31132">
        <ele>355</ele>
        <time>2026-05-13T04:53:39Z</time>
      </trkpt>
      <trkpt lat="48.67226" lon="7.31193">
        <ele>356</ele>
        <time>2026-05-13T04:53:47Z</time>
      </trkpt>
      <trkpt lat="48.67216" lon="7.31249">
        <ele>357</ele>
        <time>2026-05-13T04:53:53Z</time>
      </trkpt>
      <trkpt lat="48.67203" lon="7.313">
        <ele>356</ele>
        <time>2026-05-13T04:54:00Z</time>
      </trkpt>
      <trkpt lat="48.67189" lon="7.31338">
        <ele>355</ele>
        <time>2026-05-13T04:54:05Z</time>
      </trkpt>
      <trkpt lat="48.67173" lon="7.31375">
        <ele>354</ele>
        <time>2026-05-13T04:54:10Z</time>
      </trkpt>
      <trkpt lat="48.67163" lon="7.31394">
        <ele>353</ele>
        <time>2026-05-13T04:54:13Z</time>
      </trkpt>
      <trkpt lat="48.67146" lon="7.31414">
        <ele>355</ele>
        <time>2026-05-13T04:54:17Z</time>
      </trkpt>
      <trkpt lat="48.67116" lon="7.31435">
        <ele>359</ele>
        <time>2026-05-13T04:54:23Z</time>
      </trkpt>
      <trkpt lat="48.67077" lon="7.31453">
        <ele>364</ele>
        <time>2026-05-13T04:54:30Z</time>
      </trkpt>
      <trkpt lat="48.67053" lon="7.31457">
        <ele>367</ele>
        <time>2026-05-13T04:54:34Z</time>
      </trkpt>
      <trkpt lat="48.67019" lon="7.31459">
        <ele>372</ele>
        <time>2026-05-13T04:54:40Z</time>
      </trkpt>
      <trkpt lat="48.66969" lon="7.31454">
        <ele>378</ele>
        <time>2026-05-13T04:54:49Z</time>
      </trkpt>
      <trkpt lat="48.66941" lon="7.31449">
        <ele>380</ele>
        <time>2026-05-13T04:54:54Z</time>
      </trkpt>
      <trkpt lat="48.6681" lon="7.31432">
        <ele>388</ele>
        <time>2026-05-13T04:55:18Z</time>
      </trkpt>
      <trkpt lat="48.66642" lon="7.31403">
        <ele>403</ele>
        <time>2026-05-13T04:55:48Z</time>
      </trkpt>
      <trkpt lat="48.66614" lon="7.314">
        <ele>406</ele>
        <time>2026-05-13T04:55:53Z</time>
      </trkpt>
      <trkpt lat="48.66516" lon="7.31386">
        <ele>418</ele>
        <time>2026-05-13T04:56:10Z</time>
      </trkpt>
      <trkpt lat="48.66382" lon="7.31366">
        <ele>430</ele>
        <time>2026-05-13T04:56:34Z</time>
      </trkpt>
      <trkpt lat="48.6634" lon="7.31357">
        <ele>431</ele>
        <time>2026-05-13T04:56:42Z</time>
      </trkpt>
      <trkpt lat="48.6632" lon="7.31348">
        <ele>431</ele>
        <time>2026-05-13T04:56:46Z</time>
      </trkpt>
      <trkpt lat="48.66315" lon="7.31346">
        <ele>431</ele>
        <time>2026-05-13T04:56:46Z</time>
      </trkpt>
      <trkpt lat="48.66286" lon="7.31318">
        <ele>435</ele>
        <time>2026-05-13T04:56:53Z</time>
      </trkpt>
      <trkpt lat="48.66239" lon="7.31276">
        <ele>435</ele>
        <time>2026-05-13T04:57:02Z</time>
      </trkpt>
      <trkpt lat="48.66185" lon="7.31219">
        <ele>433</ele>
        <time>2026-05-13T04:57:14Z</time>
      </trkpt>
      <trkpt lat="48.66149" lon="7.31193">
        <ele>427</ele>
        <time>2026-05-13T04:57:21Z</time>
      </trkpt>
      <trkpt lat="48.66131" lon="7.31178">
        <ele>425</ele>
        <time>2026-05-13T04:57:25Z</time>
      </trkpt>
      <trkpt lat="48.66121" lon="7.31167">
        <ele>424</ele>
        <time>2026-05-13T04:57:27Z</time>
      </trkpt>
      <trkpt lat="48.66105" lon="7.31147">
        <ele>425</ele>
        <time>2026-05-13T04:57:31Z</time>
      </trkpt>
      <trkpt lat="48.66095" lon="7.31139">
        <ele>425</ele>
        <time>2026-05-13T04:57:33Z</time>
      </trkpt>
      <trkpt lat="48.66084" lon="7.31137">
        <ele>423</ele>
        <time>2026-05-13T04:57:35Z</time>
      </trkpt>
      <trkpt lat="48.66004" lon="7.31152">
        <ele>410</ele>
        <time>2026-05-13T04:57:49Z</time>
      </trkpt>
      <trkpt lat="48.65937" lon="7.31151">
        <ele>409</ele>
        <time>2026-05-13T04:58:01Z</time>
      </trkpt>
      <trkpt lat="48.65833" lon="7.31146">
        <ele>413</ele>
        <time>2026-05-13T04:58:19Z</time>
      </trkpt>
      <trkpt lat="48.65766" lon="7.31146">
        <ele>418</ele>
        <time>2026-05-13T04:58:31Z</time>
      </trkpt>
      <trkpt lat="48.65757" lon="7.3115">
        <ele>418</ele>
        <time>2026-05-13T04:58:33Z</time>
      </trkpt>
      <trkpt lat="48.65748" lon="7.31159">
        <ele>416</ele>
        <time>2026-05-13T04:58:35Z</time>
      </trkpt>
      <trkpt lat="48.6573" lon="7.312">
        <ele>409</ele>
        <time>2026-05-13T04:58:41Z</time>
      </trkpt>
      <trkpt lat="48.65722" lon="7.31208">
        <ele>408</ele>
        <time>2026-05-13T04:58:42Z</time>
      </trkpt>
      <trkpt lat="48.65714" lon="7.3121">
        <ele>408</ele>
        <time>2026-05-13T04:58:44Z</time>
      </trkpt>
      <trkpt lat="48.657" lon="7.31208">
        <ele>408</ele>
        <time>2026-05-13T04:58:46Z</time>
      </trkpt>
      <trkpt lat="48.65679" lon="7.31202">
        <ele>409</ele>
        <time>2026-05-13T04:58:50Z</time>
      </trkpt>
      <trkpt lat="48.65671" lon="7.31195">
        <ele>410</ele>
        <time>2026-05-13T04:58:52Z</time>
      </trkpt>
      <trkpt lat="48.65658" lon="7.31175">
        <ele>411</ele>
        <time>2026-05-13T04:58:55Z</time>
      </trkpt>
      <trkpt lat="48.65628" lon="7.31097">
        <ele>415</ele>
        <time>2026-05-13T04:59:06Z</time>
      </trkpt>
      <trkpt lat="48.65621" lon="7.31086">
        <ele>415</ele>
        <time>2026-05-13T04:59:07Z</time>
      </trkpt>
      <trkpt lat="48.65613" lon="7.3108">
        <ele>414</ele>
        <time>2026-05-13T04:59:09Z</time>
      </trkpt>
      <trkpt lat="48.65599" lon="7.3108">
        <ele>412</ele>
        <time>2026-05-13T04:59:12Z</time>
      </trkpt>
      <trkpt lat="48.65561" lon="7.31086">
        <ele>410</ele>
        <time>2026-05-13T04:59:18Z</time>
      </trkpt>
      <trkpt lat="48.65534" lon="7.31096">
        <ele>411</ele>
        <time>2026-05-13T04:59:23Z</time>
      </trkpt>
      <trkpt lat="48.65525" lon="7.31104">
        <ele>410</ele>
        <time>2026-05-13T04:59:25Z</time>
      </trkpt>
      <trkpt lat="48.65519" lon="7.3112">
        <ele>409</ele>
        <time>2026-05-13T04:59:27Z</time>
      </trkpt>
      <trkpt lat="48.655" lon="7.31191">
        <ele>403</ele>
        <time>2026-05-13T04:59:36Z</time>
      </trkpt>
      <trkpt lat="48.65487" lon="7.31234">
        <ele>405</ele>
        <time>2026-05-13T04:59:42Z</time>
      </trkpt>
      <trkpt lat="48.65474" lon="7.3127">
        <ele>406</ele>
        <time>2026-05-13T04:59:47Z</time>
      </trkpt>
      <trkpt lat="48.65453" lon="7.31309">
        <ele>407</ele>
        <time>2026-05-13T04:59:53Z</time>
      </trkpt>
      <trkpt lat="48.65427" lon="7.3135">
        <ele>407</ele>
        <time>2026-05-13T04:59:59Z</time>
      </trkpt>
      <trkpt lat="48.65406" lon="7.31378">
        <ele>405</ele>
        <time>2026-05-13T05:00:04Z</time>
      </trkpt>
      <trkpt lat="48.65389" lon="7.31394">
        <ele>404</ele>
        <time>2026-05-13T05:00:08Z</time>
      </trkpt>
      <trkpt lat="48.6537" lon="7.314">
        <ele>404</ele>
        <time>2026-05-13T05:00:11Z</time>
      </trkpt>
      <trkpt lat="48.6536" lon="7.31399">
        <ele>404</ele>
        <time>2026-05-13T05:00:13Z</time>
      </trkpt>
      <trkpt lat="48.65333" lon="7.31398">
        <ele>404</ele>
        <time>2026-05-13T05:00:18Z</time>
      </trkpt>
      <trkpt lat="48.65284" lon="7.31371">
        <ele>399</ele>
        <time>2026-05-13T05:00:27Z</time>
      </trkpt>
      <trkpt lat="48.65268" lon="7.31359">
        <ele>397</ele>
        <time>2026-05-13T05:00:30Z</time>
      </trkpt>
      <trkpt lat="48.65254" lon="7.31345">
        <ele>396</ele>
        <time>2026-05-13T05:00:33Z</time>
      </trkpt>
      <trkpt lat="48.6524" lon="7.31323">
        <ele>394</ele>
        <time>2026-05-13T05:00:37Z</time>
      </trkpt>
      <trkpt lat="48.65211" lon="7.31259">
        <ele>392</ele>
        <time>2026-05-13T05:00:46Z</time>
      </trkpt>
      <trkpt lat="48.65194" lon="7.31202">
        <ele>390</ele>
        <time>2026-05-13T05:00:53Z</time>
      </trkpt>
      <trkpt lat="48.65176" lon="7.31102">
        <ele>392</ele>
        <time>2026-05-13T05:01:06Z</time>
      </trkpt>
      <trkpt lat="48.65162" lon="7.3104">
        <ele>395</ele>
        <time>2026-05-13T05:01:13Z</time>
      </trkpt>
      <trkpt lat="48.65155" lon="7.31019">
        <ele>397</ele>
        <time>2026-05-13T05:01:16Z</time>
      </trkpt>
      <trkpt lat="48.65141" lon="7.30995">
        <ele>399</ele>
        <time>2026-05-13T05:01:20Z</time>
      </trkpt>
      <trkpt lat="48.65113" lon="7.30953">
        <ele>400</ele>
        <time>2026-05-13T05:01:27Z</time>
      </trkpt>
      <trkpt lat="48.65101" lon="7.30944">
        <ele>399</ele>
        <time>2026-05-13T05:01:29Z</time>
      </trkpt>
      <trkpt lat="48.65089" lon="7.30942">
        <ele>398</ele>
        <time>2026-05-13T05:01:31Z</time>
      </trkpt>
      <trkpt lat="48.65082" lon="7.30948">
        <ele>398</ele>
        <time>2026-05-13T05:01:33Z</time>
      </trkpt>
      <trkpt lat="48.65078" lon="7.30957">
        <ele>400</ele>
        <time>2026-05-13T05:01:34Z</time>
      </trkpt>
      <trkpt lat="48.65078" lon="7.30975">
        <ele>400</ele>
        <time>2026-05-13T05:01:36Z</time>
      </trkpt>
      <trkpt lat="48.65082" lon="7.31032">
        <ele>397</ele>
        <time>2026-05-13T05:01:43Z</time>
      </trkpt>
      <trkpt lat="48.65082" lon="7.31079">
        <ele>396</ele>
        <time>2026-05-13T05:01:48Z</time>
      </trkpt>
      <trkpt lat="48.65076" lon="7.31139">
        <ele>398</ele>
        <time>2026-05-13T05:01:56Z</time>
      </trkpt>
      <trkpt lat="48.6507" lon="7.31173">
        <ele>399</ele>
        <time>2026-05-13T05:02:00Z</time>
      </trkpt>
      <trkpt lat="48.6506" lon="7.31198">
        <ele>398</ele>
        <time>2026-05-13T05:02:03Z</time>
      </trkpt>
      <trkpt lat="48.65033" lon="7.31249">
        <ele>400</ele>
        <time>2026-05-13T05:02:11Z</time>
      </trkpt>
      <trkpt lat="48.64985" lon="7.31324">
        <ele>400</ele>
        <time>2026-05-13T05:02:23Z</time>
      </trkpt>
      <trkpt lat="48.64972" lon="7.31339">
        <ele>399</ele>
        <time>2026-05-13T05:02:26Z</time>
      </trkpt>
      <trkpt lat="48.64953" lon="7.31354">
        <ele>400</ele>
        <time>2026-05-13T05:02:30Z</time>
      </trkpt>
      <trkpt lat="48.64929" lon="7.31365">
        <ele>402</ele>
        <time>2026-05-13T05:02:34Z</time>
      </trkpt>
      <trkpt lat="48.64895" lon="7.31374">
        <ele>404</ele>
        <time>2026-05-13T05:02:40Z</time>
      </trkpt>
      <trkpt lat="48.6484" lon="7.3138">
        <ele>409</ele>
        <time>2026-05-13T05:02:50Z</time>
      </trkpt>
      <trkpt lat="48.64815" lon="7.3138">
        <ele>411</ele>
        <time>2026-05-13T05:02:55Z</time>
      </trkpt>
      <trkpt lat="48.6476" lon="7.31362">
        <ele>415</ele>
        <time>2026-05-13T05:03:05Z</time>
      </trkpt>
      <trkpt lat="48.64746" lon="7.31355">
        <ele>416</ele>
        <time>2026-05-13T05:03:07Z</time>
      </trkpt>
      <trkpt lat="48.64699" lon="7.31313">
        <ele>416</ele>
        <time>2026-05-13T05:03:17Z</time>
      </trkpt>
      <trkpt lat="48.64659" lon="7.31257">
        <ele>418</ele>
        <time>2026-05-13T05:03:27Z</time>
      </trkpt>
      <trkpt lat="48.64648" lon="7.3123">
        <ele>419</ele>
        <time>2026-05-13T05:03:30Z</time>
      </trkpt>
      <trkpt lat="48.64637" lon="7.31191">
        <ele>420</ele>
        <time>2026-05-13T05:03:35Z</time>
      </trkpt>
      <trkpt lat="48.64617" lon="7.31109">
        <ele>423</ele>
        <time>2026-05-13T05:03:46Z</time>
      </trkpt>
      <trkpt lat="48.64608" lon="7.31081">
        <ele>424</ele>
        <time>2026-05-13T05:03:49Z</time>
      </trkpt>
      <trkpt lat="48.64599" lon="7.31063">
        <ele>423</ele>
        <time>2026-05-13T05:03:52Z</time>
      </trkpt>
      <trkpt lat="48.64587" lon="7.31052">
        <ele>421</ele>
        <time>2026-05-13T05:03:55Z</time>
      </trkpt>
      <trkpt lat="48.64553" lon="7.31041">
        <ele>423</ele>
        <time>2026-05-13T05:04:01Z</time>
      </trkpt>
      <trkpt lat="48.64538" lon="7.31044">
        <ele>424</ele>
        <time>2026-05-13T05:04:03Z</time>
      </trkpt>
      <trkpt lat="48.64523" lon="7.31056">
        <ele>424</ele>
        <time>2026-05-13T05:04:06Z</time>
      </trkpt>
      <trkpt lat="48.64496" lon="7.31086">
        <ele>425</ele>
        <time>2026-05-13T05:04:12Z</time>
      </trkpt>
      <trkpt lat="48.64489" lon="7.31096">
        <ele>426</ele>
        <time>2026-05-13T05:04:14Z</time>
      </trkpt>
      <trkpt lat="48.64483" lon="7.31106">
        <ele>426</ele>
        <time>2026-05-13T05:04:16Z</time>
      </trkpt>
      <trkpt lat="48.64467" lon="7.31156">
        <ele>426</ele>
        <time>2026-05-13T05:04:22Z</time>
      </trkpt>
      <trkpt lat="48.64434" lon="7.31231">
        <ele>430</ele>
        <time>2026-05-13T05:04:33Z</time>
      </trkpt>
      <trkpt lat="48.64424" lon="7.31262">
        <ele>431</ele>
        <time>2026-05-13T05:04:37Z</time>
      </trkpt>
      <trkpt lat="48.64413" lon="7.31314">
        <ele>432</ele>
        <time>2026-05-13T05:04:43Z</time>
      </trkpt>
      <trkpt lat="48.64404" lon="7.31388">
        <ele>434</ele>
        <time>2026-05-13T05:04:52Z</time>
      </trkpt>
      <trkpt lat="48.64402" lon="7.31422">
        <ele>435</ele>
        <time>2026-05-13T05:04:56Z</time>
      </trkpt>
      <trkpt lat="48.64405" lon="7.31487">
        <ele>437</ele>
        <time>2026-05-13T05:05:04Z</time>
      </trkpt>
      <trkpt lat="48.64404" lon="7.3152">
        <ele>439</ele>
        <time>2026-05-13T05:05:08Z</time>
      </trkpt>
      <trkpt lat="48.644" lon="7.31549">
        <ele>441</ele>
        <time>2026-05-13T05:05:11Z</time>
      </trkpt>
      <trkpt lat="48.64395" lon="7.31578">
        <ele>443</ele>
        <time>2026-05-13T05:05:15Z</time>
      </trkpt>
      <trkpt lat="48.64372" lon="7.31663">
        <ele>447</ele>
        <time>2026-05-13T05:05:25Z</time>
      </trkpt>
      <trkpt lat="48.64353" lon="7.31727">
        <ele>449</ele>
        <time>2026-05-13T05:05:34Z</time>
      </trkpt>
      <trkpt lat="48.64328" lon="7.31798">
        <ele>452</ele>
        <time>2026-05-13T05:05:43Z</time>
      </trkpt>
      <trkpt lat="48.6432" lon="7.31812">
        <ele>453</ele>
        <time>2026-05-13T05:05:45Z</time>
      </trkpt>
      <trkpt lat="48.64313" lon="7.31817">
        <ele>454</ele>
        <time>2026-05-13T05:05:47Z</time>
      </trkpt>
      <trkpt lat="48.64324" lon="7.31869">
        <ele>453</ele>
        <time>2026-05-13T05:05:53Z</time>
      </trkpt>
      <trkpt lat="48.64331" lon="7.31907">
        <ele>452</ele>
        <time>2026-05-13T05:05:58Z</time>
      </trkpt>
      <trkpt lat="48.64333" lon="7.31932">
        <ele>451</ele>
        <time>2026-05-13T05:06:01Z</time>
      </trkpt>
      <trkpt lat="48.64331" lon="7.32009">
        <ele>445</ele>
        <time>2026-05-13T05:06:10Z</time>
      </trkpt>
      <trkpt lat="48.64331" lon="7.3201">
        <ele>445</ele>
        <time>2026-05-13T05:06:10Z</time>
      </trkpt>
      <trkpt lat="48.64325" lon="7.32275">
        <ele>432</ele>
        <time>2026-05-13T05:06:41Z</time>
      </trkpt>
      <trkpt lat="48.64322" lon="7.32314">
        <ele>431</ele>
        <time>2026-05-13T05:06:46Z</time>
      </trkpt>
      <trkpt lat="48.64317" lon="7.32344">
        <ele>430</ele>
        <time>2026-05-13T05:06:49Z</time>
      </trkpt>
      <trkpt lat="48.64259" lon="7.32597">
        <ele>422</ele>
        <time>2026-05-13T05:07:21Z</time>
      </trkpt>
      <trkpt lat="48.64234" lon="7.32706">
        <ele>415</ele>
        <time>2026-05-13T05:07:34Z</time>
      </trkpt>
      <trkpt lat="48.64224" lon="7.32767">
        <ele>411</ele>
        <time>2026-05-13T05:07:42Z</time>
      </trkpt>
      <trkpt lat="48.64209" lon="7.32904">
        <ele>407</ele>
        <time>2026-05-13T05:07:58Z</time>
      </trkpt>
      <trkpt lat="48.64204" lon="7.32953">
        <ele>406</ele>
        <time>2026-05-13T05:08:04Z</time>
      </trkpt>
      <trkpt lat="48.642" lon="7.33009">
        <ele>406</ele>
        <time>2026-05-13T05:08:11Z</time>
      </trkpt>
      <trkpt lat="48.642" lon="7.33073">
        <ele>406</ele>
        <time>2026-05-13T05:08:18Z</time>
      </trkpt>
      <trkpt lat="48.64204" lon="7.33129">
        <ele>409</ele>
        <time>2026-05-13T05:08:25Z</time>
      </trkpt>
      <trkpt lat="48.64219" lon="7.33223">
        <ele>416</ele>
        <time>2026-05-13T05:08:36Z</time>
      </trkpt>
      <trkpt lat="48.6427" lon="7.33499">
        <ele>418</ele>
        <time>2026-05-13T05:09:10Z</time>
      </trkpt>
      <trkpt lat="48.64281" lon="7.33555">
        <ele>415</ele>
        <time>2026-05-13T05:09:17Z</time>
      </trkpt>
      <trkpt lat="48.64329" lon="7.3373">
        <ele>412</ele>
        <time>2026-05-13T05:09:39Z</time>
      </trkpt>
      <trkpt lat="48.64352" lon="7.33808">
        <ele>417</ele>
        <time>2026-05-13T05:09:49Z</time>
      </trkpt>
      <trkpt lat="48.64411" lon="7.33979">
        <ele>414</ele>
        <time>2026-05-13T05:10:12Z</time>
      </trkpt>
      <trkpt lat="48.64422" lon="7.34011">
        <ele>415</ele>
        <time>2026-05-13T05:10:16Z</time>
      </trkpt>
      <trkpt lat="48.64471" lon="7.34185">
        <ele>415</ele>
        <time>2026-05-13T05:10:38Z</time>
      </trkpt>
      <trkpt lat="48.64506" lon="7.34347">
        <ele>425</ele>
        <time>2026-05-13T05:10:58Z</time>
      </trkpt>
      <trkpt lat="48.6451" lon="7.34375">
        <ele>426</ele>
        <time>2026-05-13T05:11:02Z</time>
      </trkpt>
      <trkpt lat="48.6451" lon="7.34407">
        <ele>428</ele>
        <time>2026-05-13T05:11:05Z</time>
      </trkpt>
      <trkpt lat="48.64507" lon="7.34434">
        <ele>428</ele>
        <time>2026-05-13T05:11:09Z</time>
      </trkpt>
      <trkpt lat="48.6448" lon="7.34538">
        <ele>431</ele>
        <time>2026-05-13T05:11:22Z</time>
      </trkpt>
      <trkpt lat="48.64451" lon="7.34706">
        <ele>429</ele>
        <time>2026-05-13T05:11:42Z</time>
      </trkpt>
      <trkpt lat="48.64401" lon="7.34978">
        <ele>426</ele>
        <time>2026-05-13T05:12:15Z</time>
      </trkpt>
      <trkpt lat="48.64382" lon="7.35347">
        <ele>417</ele>
        <time>2026-05-13T05:12:59Z</time>
      </trkpt>
      <trkpt lat="48.64377" lon="7.35419">
        <ele>416</ele>
        <time>2026-05-13T05:13:07Z</time>
      </trkpt>
      <trkpt lat="48.64372" lon="7.35463">
        <ele>415</ele>
        <time>2026-05-13T05:13:13Z</time>
      </trkpt>
      <trkpt lat="48.64362" lon="7.35494">
        <ele>415</ele>
        <time>2026-05-13T05:13:17Z</time>
      </trkpt>
      <trkpt lat="48.64344" lon="7.35521">
        <ele>413</ele>
        <time>2026-05-13T05:13:21Z</time>
      </trkpt>
      <trkpt lat="48.6428" lon="7.35594">
        <ele>408</ele>
        <time>2026-05-13T05:13:35Z</time>
      </trkpt>
      <trkpt lat="48.6417" lon="7.35716">
        <ele>392</ele>
        <time>2026-05-13T05:14:00Z</time>
      </trkpt>
      <trkpt lat="48.64147" lon="7.35748">
        <ele>384</ele>
        <time>2026-05-13T05:14:05Z</time>
      </trkpt>
      <trkpt lat="48.64017" lon="7.35924">
        <ele>359</ele>
        <time>2026-05-13T05:14:36Z</time>
      </trkpt>
      <trkpt lat="48.63996" lon="7.35959">
        <ele>357</ele>
        <time>2026-05-13T05:14:42Z</time>
      </trkpt>
      <trkpt lat="48.6399" lon="7.35969">
        <ele>357</ele>
        <time>2026-05-13T05:14:43Z</time>
      </trkpt>
      <trkpt lat="48.63938" lon="7.36077">
        <ele>350</ele>
        <time>2026-05-13T05:14:59Z</time>
      </trkpt>
      <trkpt lat="48.63927" lon="7.36114">
        <ele>348</ele>
        <time>2026-05-13T05:15:04Z</time>
      </trkpt>
      <trkpt lat="48.63921" lon="7.3615">
        <ele>345</ele>
        <time>2026-05-13T05:15:08Z</time>
      </trkpt>
      <trkpt lat="48.6392" lon="7.36186">
        <ele>343</ele>
        <time>2026-05-13T05:15:12Z</time>
      </trkpt>
      <trkpt lat="48.63928" lon="7.36335">
        <ele>340</ele>
        <time>2026-05-13T05:15:30Z</time>
      </trkpt>
      <trkpt lat="48.63936" lon="7.36399">
        <ele>340</ele>
        <time>2026-05-13T05:15:38Z</time>
      </trkpt>
      <trkpt lat="48.6394" lon="7.36418">
        <ele>340</ele>
        <time>2026-05-13T05:15:40Z</time>
      </trkpt>
      <trkpt lat="48.63942" lon="7.36428">
        <ele>340</ele>
        <time>2026-05-13T05:15:41Z</time>
      </trkpt>
      <trkpt lat="48.63952" lon="7.36455">
        <ele>339</ele>
        <time>2026-05-13T05:15:45Z</time>
      </trkpt>
      <trkpt lat="48.63964" lon="7.36475">
        <ele>338</ele>
        <time>2026-05-13T05:15:48Z</time>
      </trkpt>
      <trkpt lat="48.63976" lon="7.36492">
        <ele>337</ele>
        <time>2026-05-13T05:15:51Z</time>
      </trkpt>
      <trkpt lat="48.64016" lon="7.36546">
        <ele>334</ele>
        <time>2026-05-13T05:16:01Z</time>
      </trkpt>
      <trkpt lat="48.64028" lon="7.36567">
        <ele>334</ele>
        <time>2026-05-13T05:16:04Z</time>
      </trkpt>
      <trkpt lat="48.64033" lon="7.36579">
        <ele>333</ele>
        <time>2026-05-13T05:16:05Z</time>
      </trkpt>
      <trkpt lat="48.64036" lon="7.36588">
        <ele>333</ele>
        <time>2026-05-13T05:16:07Z</time>
      </trkpt>
      <trkpt lat="48.64039" lon="7.3661">
        <ele>332</ele>
        <time>2026-05-13T05:16:09Z</time>
      </trkpt>
      <trkpt lat="48.64029" lon="7.36877">
        <ele>322</ele>
        <time>2026-05-13T05:16:41Z</time>
      </trkpt>
      <trkpt lat="48.64033" lon="7.36916">
        <ele>321</ele>
        <time>2026-05-13T05:16:45Z</time>
      </trkpt>
      <trkpt lat="48.64039" lon="7.36959">
        <ele>321</ele>
        <time>2026-05-13T05:16:51Z</time>
      </trkpt>
      <trkpt lat="48.6408" lon="7.37076">
        <ele>321</ele>
        <time>2026-05-13T05:17:06Z</time>
      </trkpt>
      <trkpt lat="48.64136" lon="7.37203">
        <ele>315</ele>
        <time>2026-05-13T05:17:24Z</time>
      </trkpt>
      <trkpt lat="48.6424" lon="7.37351">
        <ele>306</ele>
        <time>2026-05-13T05:17:49Z</time>
      </trkpt>
      <trkpt lat="48.64289" lon="7.37412">
        <ele>299</ele>
        <time>2026-05-13T05:18:01Z</time>
      </trkpt>
      <trkpt lat="48.64357" lon="7.3749">
        <ele>292</ele>
        <time>2026-05-13T05:18:16Z</time>
      </trkpt>
      <trkpt lat="48.6437" lon="7.3751">
        <ele>291</ele>
        <time>2026-05-13T05:18:19Z</time>
      </trkpt>
      <trkpt lat="48.64372" lon="7.37521">
        <ele>291</ele>
        <time>2026-05-13T05:18:21Z</time>
      </trkpt>
      <trkpt lat="48.6437" lon="7.3753">
        <ele>291</ele>
        <time>2026-05-13T05:18:22Z</time>
      </trkpt>
      <trkpt lat="48.64338" lon="7.37559">
        <ele>288</ele>
        <time>2026-05-13T05:18:28Z</time>
      </trkpt>
      <trkpt lat="48.64326" lon="7.3758">
        <ele>287</ele>
        <time>2026-05-13T05:18:32Z</time>
      </trkpt>
      <trkpt lat="48.64306" lon="7.37636">
        <ele>282</ele>
        <time>2026-05-13T05:18:39Z</time>
      </trkpt>
      <trkpt lat="48.6428" lon="7.37745">
        <ele>274</ele>
        <time>2026-05-13T05:18:53Z</time>
      </trkpt>
      <trkpt lat="48.64268" lon="7.37829">
        <ele>270</ele>
        <time>2026-05-13T05:19:03Z</time>
      </trkpt>
      <trkpt lat="48.64265" lon="7.37851">
        <ele>270</ele>
        <time>2026-05-13T05:19:05Z</time>
      </trkpt>
      <trkpt lat="48.64251" lon="7.38015">
        <ele>269</ele>
        <time>2026-05-13T05:19:25Z</time>
      </trkpt>
      <trkpt lat="48.64251" lon="7.38038">
        <ele>269</ele>
        <time>2026-05-13T05:19:28Z</time>
      </trkpt>
      <trkpt lat="48.64254" lon="7.38063">
        <ele>269</ele>
        <time>2026-05-13T05:19:31Z</time>
      </trkpt>
      <trkpt lat="48.64297" lon="7.38248">
        <ele>266</ele>
        <time>2026-05-13T05:19:54Z</time>
      </trkpt>
      <trkpt lat="48.64333" lon="7.38381">
        <ele>260</ele>
        <time>2026-05-13T05:20:11Z</time>
      </trkpt>
      <trkpt lat="48.64342" lon="7.3841">
        <ele>258</ele>
        <time>2026-05-13T05:20:14Z</time>
      </trkpt>
      <trkpt lat="48.64435" lon="7.3867">
        <ele>247</ele>
        <time>2026-05-13T05:20:49Z</time>
      </trkpt>
      <trkpt lat="48.64441" lon="7.38692">
        <ele>245</ele>
        <time>2026-05-13T05:20:52Z</time>
      </trkpt>
      <trkpt lat="48.64443" lon="7.38711">
        <ele>243</ele>
        <time>2026-05-13T05:20:54Z</time>
      </trkpt>
      <trkpt lat="48.64441" lon="7.38732">
        <ele>241</ele>
        <time>2026-05-13T05:20:57Z</time>
      </trkpt>
      <trkpt lat="48.64441" lon="7.38738">
        <ele>240</ele>
        <time>2026-05-13T05:20:57Z</time>
      </trkpt>
      <trkpt lat="48.64438" lon="7.38797">
        <ele>235</ele>
        <time>2026-05-13T05:21:04Z</time>
      </trkpt>
      <trkpt lat="48.64438" lon="7.38811">
        <ele>233</ele>
        <time>2026-05-13T05:21:06Z</time>
      </trkpt>
      <trkpt lat="48.64438" lon="7.38826">
        <ele>232</ele>
        <time>2026-05-13T05:21:08Z</time>
      </trkpt>
      <trkpt lat="48.64438" lon="7.38843">
        <ele>231</ele>
        <time>2026-05-13T05:21:10Z</time>
      </trkpt>
      <trkpt lat="48.64438" lon="7.38875">
        <ele>230</ele>
        <time>2026-05-13T05:21:13Z</time>
      </trkpt>
      <trkpt lat="48.64438" lon="7.38897">
        <ele>230</ele>
        <time>2026-05-13T05:21:16Z</time>
      </trkpt>
      <trkpt lat="48.64438" lon="7.38934">
        <ele>229</ele>
        <time>2026-05-13T05:21:20Z</time>
      </trkpt>
      <trkpt lat="48.64435" lon="7.38962">
        <ele>228</ele>
        <time>2026-05-13T05:21:24Z</time>
      </trkpt>
      <trkpt lat="48.6443" lon="7.38985">
        <ele>227</ele>
        <time>2026-05-13T05:21:27Z</time>
      </trkpt>
      <trkpt lat="48.64422" lon="7.39011">
        <ele>227</ele>
        <time>2026-05-13T05:21:30Z</time>
      </trkpt>
      <trkpt lat="48.64402" lon="7.39046">
        <ele>226</ele>
        <time>2026-05-13T05:21:35Z</time>
      </trkpt>
      <trkpt lat="48.64387" lon="7.39077">
        <ele>226</ele>
        <time>2026-05-13T05:21:40Z</time>
      </trkpt>
      <trkpt lat="48.64382" lon="7.39095">
        <ele>226</ele>
        <time>2026-05-13T05:21:42Z</time>
      </trkpt>
      <trkpt lat="48.64379" lon="7.39116">
        <ele>226</ele>
        <time>2026-05-13T05:21:45Z</time>
      </trkpt>
      <trkpt lat="48.64379" lon="7.39151">
        <ele>226</ele>
        <time>2026-05-13T05:21:49Z</time>
      </trkpt>
      <trkpt lat="48.64384" lon="7.39185">
        <ele>226</ele>
        <time>2026-05-13T05:21:53Z</time>
      </trkpt>
      <trkpt lat="48.64402" lon="7.39265">
        <ele>227</ele>
        <time>2026-05-13T05:22:03Z</time>
      </trkpt>
      <trkpt lat="48.64403" lon="7.39283">
        <ele>227</ele>
        <time>2026-05-13T05:22:05Z</time>
      </trkpt>
      <trkpt lat="48.64401" lon="7.39294">
        <ele>226</ele>
        <time>2026-05-13T05:22:06Z</time>
      </trkpt>
      <trkpt lat="48.64426" lon="7.39309">
        <ele>226</ele>
        <time>2026-05-13T05:22:11Z</time>
      </trkpt>
      <trkpt lat="48.64453" lon="7.39318">
        <ele>225</ele>
        <time>2026-05-13T05:22:16Z</time>
      </trkpt>
      <trkpt lat="48.64504" lon="7.39335">
        <ele>223</ele>
        <time>2026-05-13T05:22:25Z</time>
      </trkpt>
      <trkpt lat="48.64589" lon="7.39368">
        <ele>224</ele>
        <time>2026-05-13T05:22:41Z</time>
      </trkpt>
      <trkpt lat="48.64595" lon="7.3937">
        <ele>225</ele>
        <time>2026-05-13T05:22:42Z</time>
      </trkpt>
      <trkpt lat="48.64608" lon="7.39374">
        <ele>225</ele>
        <time>2026-05-13T05:22:44Z</time>
      </trkpt>
      <trkpt lat="48.64622" lon="7.39374">
        <ele>226</ele>
        <time>2026-05-13T05:22:47Z</time>
      </trkpt>
      <trkpt lat="48.64646" lon="7.39368">
        <ele>227</ele>
        <time>2026-05-13T05:22:51Z</time>
      </trkpt>
      <trkpt lat="48.6466" lon="7.39362">
        <ele>228</ele>
        <time>2026-05-13T05:22:54Z</time>
      </trkpt>
      <trkpt lat="48.64671" lon="7.39356">
        <ele>228</ele>
        <time>2026-05-13T05:22:56Z</time>
      </trkpt>
      <trkpt lat="48.64682" lon="7.39344">
        <ele>230</ele>
        <time>2026-05-13T05:22:58Z</time>
      </trkpt>
      <trkpt lat="48.64697" lon="7.3932">
        <ele>230</ele>
        <time>2026-05-13T05:23:02Z</time>
      </trkpt>
      <trkpt lat="48.64724" lon="7.39261">
        <ele>230</ele>
        <time>2026-05-13T05:23:11Z</time>
      </trkpt>
      <trkpt lat="48.64763" lon="7.39142">
        <ele>228</ele>
        <time>2026-05-13T05:23:26Z</time>
      </trkpt>
      <trkpt lat="48.64777" lon="7.39112">
        <ele>228</ele>
        <time>2026-05-13T05:23:31Z</time>
      </trkpt>
      <trkpt lat="48.6487" lon="7.38968">
        <ele>231</ele>
        <time>2026-05-13T05:23:54Z</time>
      </trkpt>
      <trkpt lat="48.64905" lon="7.38895">
        <ele>233</ele>
        <time>2026-05-13T05:24:05Z</time>
      </trkpt>
      <trkpt lat="48.64921" lon="7.3882">
        <ele>238</ele>
        <time>2026-05-13T05:24:14Z</time>
      </trkpt>
      <trkpt lat="48.6493" lon="7.38744">
        <ele>242</ele>
        <time>2026-05-13T05:24:23Z</time>
      </trkpt>
      <trkpt lat="48.64941" lon="7.38693">
        <ele>244</ele>
        <time>2026-05-13T05:24:29Z</time>
      </trkpt>
      <trkpt lat="48.6495" lon="7.38663">
        <ele>244</ele>
        <time>2026-05-13T05:24:33Z</time>
      </trkpt>
      <trkpt lat="48.64965" lon="7.38631">
        <ele>245</ele>
        <time>2026-05-13T05:24:38Z</time>
      </trkpt>
      <trkpt lat="48.64994" lon="7.38592">
        <ele>247</ele>
        <time>2026-05-13T05:24:45Z</time>
      </trkpt>
      <trkpt lat="48.65053" lon="7.38499">
        <ele>246</ele>
        <time>2026-05-13T05:25:00Z</time>
      </trkpt>
      <trkpt lat="48.65062" lon="7.38489">
        <ele>246</ele>
        <time>2026-05-13T05:25:02Z</time>
      </trkpt>
      <trkpt lat="48.65089" lon="7.38474">
        <ele>245</ele>
        <time>2026-05-13T05:25:07Z</time>
      </trkpt>
      <trkpt lat="48.65138" lon="7.38453">
        <ele>243</ele>
        <time>2026-05-13T05:25:16Z</time>
      </trkpt>
      <trkpt lat="48.65155" lon="7.38441">
        <ele>242</ele>
        <time>2026-05-13T05:25:19Z</time>
      </trkpt>
      <trkpt lat="48.6517" lon="7.38425">
        <ele>241</ele>
        <time>2026-05-13T05:25:23Z</time>
      </trkpt>
      <trkpt lat="48.65178" lon="7.38402">
        <ele>241</ele>
        <time>2026-05-13T05:25:26Z</time>
      </trkpt>
      <trkpt lat="48.65197" lon="7.38333">
        <ele>241</ele>
        <time>2026-05-13T05:25:35Z</time>
      </trkpt>
      <trkpt lat="48.65225" lon="7.38242">
        <ele>241</ele>
        <time>2026-05-13T05:25:46Z</time>
      </trkpt>
      <trkpt lat="48.6526" lon="7.38143">
        <ele>239</ele>
        <time>2026-05-13T05:26:00Z</time>
      </trkpt>
      <trkpt lat="48.65274" lon="7.38113">
        <ele>239</ele>
        <time>2026-05-13T05:26:04Z</time>
      </trkpt>
      <trkpt lat="48.65334" lon="7.37997">
        <ele>237</ele>
        <time>2026-05-13T05:26:21Z</time>
      </trkpt>
      <trkpt lat="48.65353" lon="7.37968">
        <ele>237</ele>
        <time>2026-05-13T05:26:26Z</time>
      </trkpt>
      <trkpt lat="48.6537" lon="7.37945">
        <ele>238</ele>
        <time>2026-05-13T05:26:30Z</time>
      </trkpt>
      <trkpt lat="48.65392" lon="7.37923">
        <ele>238</ele>
        <time>2026-05-13T05:26:35Z</time>
      </trkpt>
      <trkpt lat="48.65432" lon="7.37894">
        <ele>240</ele>
        <time>2026-05-13T05:26:43Z</time>
      </trkpt>
      <trkpt lat="48.65441" lon="7.3789">
        <ele>240</ele>
        <time>2026-05-13T05:26:44Z</time>
      </trkpt>
      <trkpt lat="48.65473" lon="7.37886">
        <ele>242</ele>
        <time>2026-05-13T05:26:50Z</time>
      </trkpt>
      <trkpt lat="48.65487" lon="7.37879">
        <ele>243</ele>
        <time>2026-05-13T05:26:53Z</time>
      </trkpt>
      <trkpt lat="48.65537" lon="7.3782">
        <ele>244</ele>
        <time>2026-05-13T05:27:04Z</time>
      </trkpt>
      <trkpt lat="48.65573" lon="7.37777">
        <ele>245</ele>
        <time>2026-05-13T05:27:12Z</time>
      </trkpt>
      <trkpt lat="48.6558" lon="7.37772">
        <ele>245</ele>
        <time>2026-05-13T05:27:13Z</time>
      </trkpt>
      <trkpt lat="48.65588" lon="7.3777">
        <ele>246</ele>
        <time>2026-05-13T05:27:15Z</time>
      </trkpt>
      <trkpt lat="48.65613" lon="7.37758">
        <ele>246</ele>
        <time>2026-05-13T05:27:20Z</time>
      </trkpt>
      <trkpt lat="48.65656" lon="7.37708">
        <ele>246</ele>
        <time>2026-05-13T05:27:29Z</time>
      </trkpt>
      <trkpt lat="48.65702" lon="7.37637">
        <ele>247</ele>
        <time>2026-05-13T05:27:41Z</time>
      </trkpt>
      <trkpt lat="48.65723" lon="7.37607">
        <ele>247</ele>
        <time>2026-05-13T05:27:46Z</time>
      </trkpt>
      <trkpt lat="48.65744" lon="7.3758">
        <ele>247</ele>
        <time>2026-05-13T05:27:51Z</time>
      </trkpt>
      <trkpt lat="48.65824" lon="7.37484">
        <ele>248</ele>
        <time>2026-05-13T05:28:09Z</time>
      </trkpt>
      <trkpt lat="48.65847" lon="7.37451">
        <ele>249</ele>
        <time>2026-05-13T05:28:15Z</time>
      </trkpt>
      <trkpt lat="48.65885" lon="7.37385">
        <ele>252</ele>
        <time>2026-05-13T05:28:25Z</time>
      </trkpt>
      <trkpt lat="48.65909" lon="7.37339">
        <ele>251</ele>
        <time>2026-05-13T05:28:32Z</time>
      </trkpt>
      <trkpt lat="48.65926" lon="7.37315">
        <ele>252</ele>
        <time>2026-05-13T05:28:36Z</time>
      </trkpt>
      <trkpt lat="48.65944" lon="7.37297">
        <ele>252</ele>
        <time>2026-05-13T05:28:40Z</time>
      </trkpt>
      <trkpt lat="48.6597" lon="7.37281">
        <ele>252</ele>
        <time>2026-05-13T05:28:45Z</time>
      </trkpt>
      <trkpt lat="48.66033" lon="7.3725">
        <ele>252</ele>
        <time>2026-05-13T05:28:57Z</time>
      </trkpt>
      <trkpt lat="48.66085" lon="7.37221">
        <ele>255</ele>
        <time>2026-05-13T05:29:07Z</time>
      </trkpt>
      <trkpt lat="48.66181" lon="7.3713">
        <ele>257</ele>
        <time>2026-05-13T05:29:27Z</time>
      </trkpt>
      <trkpt lat="48.66203" lon="7.3711">
        <ele>258</ele>
        <time>2026-05-13T05:29:31Z</time>
      </trkpt>
      <trkpt lat="48.66226" lon="7.37097">
        <ele>258</ele>
        <time>2026-05-13T05:29:36Z</time>
      </trkpt>
      <trkpt lat="48.66316" lon="7.37065">
        <ele>261</ele>
        <time>2026-05-13T05:29:52Z</time>
      </trkpt>
      <trkpt lat="48.66337" lon="7.37062">
        <ele>262</ele>
        <time>2026-05-13T05:29:56Z</time>
      </trkpt>
      <trkpt lat="48.66372" lon="7.37062">
        <ele>264</ele>
        <time>2026-05-13T05:30:02Z</time>
      </trkpt>
      <trkpt lat="48.6646" lon="7.37083">
        <ele>269</ele>
        <time>2026-05-13T05:30:18Z</time>
      </trkpt>
      <trkpt lat="48.66524" lon="7.37105">
        <ele>274</ele>
        <time>2026-05-13T05:30:30Z</time>
      </trkpt>
      <trkpt lat="48.66548" lon="7.37108">
        <ele>276</ele>
        <time>2026-05-13T05:30:34Z</time>
      </trkpt>
      <trkpt lat="48.66577" lon="7.37106">
        <ele>277</ele>
        <time>2026-05-13T05:30:39Z</time>
      </trkpt>
      <trkpt lat="48.66616" lon="7.37101">
        <ele>279</ele>
        <time>2026-05-13T05:30:46Z</time>
      </trkpt>
      <trkpt lat="48.66666" lon="7.37093">
        <ele>283</ele>
        <time>2026-05-13T05:30:55Z</time>
      </trkpt>
      <trkpt lat="48.66673" lon="7.37084">
        <ele>283</ele>
        <time>2026-05-13T05:30:57Z</time>
      </trkpt>
      <trkpt lat="48.66685" lon="7.37059">
        <ele>282</ele>
        <time>2026-05-13T05:31:00Z</time>
      </trkpt>
      <trkpt lat="48.66693" lon="7.37042">
        <ele>282</ele>
        <time>2026-05-13T05:31:03Z</time>
      </trkpt>
      <trkpt lat="48.66699" lon="7.37037">
        <ele>282</ele>
        <time>2026-05-13T05:31:04Z</time>
      </trkpt>
      <trkpt lat="48.66704" lon="7.37037">
        <ele>282</ele>
        <time>2026-05-13T05:31:05Z</time>
      </trkpt>
      <trkpt lat="48.66738" lon="7.37044">
        <ele>283</ele>
        <time>2026-05-13T05:31:11Z</time>
      </trkpt>
      <trkpt lat="48.66755" lon="7.37051">
        <ele>284</ele>
        <time>2026-05-13T05:31:14Z</time>
      </trkpt>
      <trkpt lat="48.66779" lon="7.37064">
        <ele>285</ele>
        <time>2026-05-13T05:31:19Z</time>
      </trkpt>
      <trkpt lat="48.66907" lon="7.3712">
        <ele>295</ele>
        <time>2026-05-13T05:31:42Z</time>
      </trkpt>
      <trkpt lat="48.66961" lon="7.37145">
        <ele>299</ele>
        <time>2026-05-13T05:31:52Z</time>
      </trkpt>
      <trkpt lat="48.6697" lon="7.37149">
        <ele>299</ele>
        <time>2026-05-13T05:31:54Z</time>
      </trkpt>
      <trkpt lat="48.66975" lon="7.37153">
        <ele>300</ele>
        <time>2026-05-13T05:31:55Z</time>
      </trkpt>
      <trkpt lat="48.66978" lon="7.37158">
        <ele>300</ele>
        <time>2026-05-13T05:31:56Z</time>
      </trkpt>
      <trkpt lat="48.66991" lon="7.37148">
        <ele>300</ele>
        <time>2026-05-13T05:31:58Z</time>
      </trkpt>
      <trkpt lat="48.66998" lon="7.37136">
        <ele>301</ele>
        <time>2026-05-13T05:32:00Z</time>
      </trkpt>
      <trkpt lat="48.67002" lon="7.37122">
        <ele>301</ele>
        <time>2026-05-13T05:32:02Z</time>
      </trkpt>
      <trkpt lat="48.67005" lon="7.37102">
        <ele>301</ele>
        <time>2026-05-13T05:32:04Z</time>
      </trkpt>
      <trkpt lat="48.67005" lon="7.37078">
        <ele>301</ele>
        <time>2026-05-13T05:32:07Z</time>
      </trkpt>
      <trkpt lat="48.67" lon="7.37005">
        <ele>304</ele>
        <time>2026-05-13T05:32:16Z</time>
      </trkpt>
      <trkpt lat="48.67" lon="7.36982">
        <ele>305</ele>
        <time>2026-05-13T05:32:19Z</time>
      </trkpt>
      <trkpt lat="48.67001" lon="7.36956">
        <ele>306</ele>
        <time>2026-05-13T05:32:22Z</time>
      </trkpt>
      <trkpt lat="48.67003" lon="7.36932">
        <ele>307</ele>
        <time>2026-05-13T05:32:25Z</time>
      </trkpt>
      <trkpt lat="48.67021" lon="7.36832">
        <ele>308</ele>
        <time>2026-05-13T05:32:37Z</time>
      </trkpt>
      <trkpt lat="48.67033" lon="7.3675">
        <ele>308</ele>
        <time>2026-05-13T05:32:47Z</time>
      </trkpt>
      <trkpt lat="48.67036" lon="7.36719">
        <ele>308</ele>
        <time>2026-05-13T05:32:50Z</time>
      </trkpt>
      <trkpt lat="48.67036" lon="7.36695">
        <ele>307</ele>
        <time>2026-05-13T05:32:53Z</time>
      </trkpt>
      <trkpt lat="48.67034" lon="7.36679">
        <ele>307</ele>
        <time>2026-05-13T05:32:55Z</time>
      </trkpt>
      <trkpt lat="48.67029" lon="7.36662">
        <ele>307</ele>
        <time>2026-05-13T05:32:57Z</time>
      </trkpt>
      <trkpt lat="48.67019" lon="7.3664">
        <ele>307</ele>
        <time>2026-05-13T05:33:00Z</time>
      </trkpt>
      <trkpt lat="48.66995" lon="7.366">
        <ele>307</ele>
        <time>2026-05-13T05:33:07Z</time>
      </trkpt>
      <trkpt lat="48.66963" lon="7.36551">
        <ele>306</ele>
        <time>2026-05-13T05:33:15Z</time>
      </trkpt>
      <trkpt lat="48.66935" lon="7.36502">
        <ele>306</ele>
        <time>2026-05-13T05:33:22Z</time>
      </trkpt>
      <trkpt lat="48.66924" lon="7.36477">
        <ele>305</ele>
        <time>2026-05-13T05:33:26Z</time>
      </trkpt>
      <trkpt lat="48.66914" lon="7.36447">
        <ele>304</ele>
        <time>2026-05-13T05:33:30Z</time>
      </trkpt>
      <trkpt lat="48.66909" lon="7.36422">
        <ele>303</ele>
        <time>2026-05-13T05:33:33Z</time>
      </trkpt>
      <trkpt lat="48.66905" lon="7.36396">
        <ele>301</ele>
        <time>2026-05-13T05:33:36Z</time>
      </trkpt>
      <trkpt lat="48.66882" lon="7.3609">
        <ele>295</ele>
        <time>2026-05-13T05:34:12Z</time>
      </trkpt>
      <trkpt lat="48.66887" lon="7.36008">
        <ele>296</ele>
        <time>2026-05-13T05:34:22Z</time>
      </trkpt>
      <trkpt lat="48.66892" lon="7.35935">
        <ele>296</ele>
        <time>2026-05-13T05:34:31Z</time>
      </trkpt>
      <trkpt lat="48.66892" lon="7.35917">
        <ele>296</ele>
        <time>2026-05-13T05:34:33Z</time>
      </trkpt>
      <trkpt lat="48.66891" lon="7.35868">
        <ele>298</ele>
        <time>2026-05-13T05:34:38Z</time>
      </trkpt>
      <trkpt lat="48.6689" lon="7.35824">
        <ele>299</ele>
        <time>2026-05-13T05:34:44Z</time>
      </trkpt>
      <trkpt lat="48.66881" lon="7.35634">
        <ele>302</ele>
        <time>2026-05-13T05:35:06Z</time>
      </trkpt>
      <trkpt lat="48.66885" lon="7.35613">
        <ele>302</ele>
        <time>2026-05-13T05:35:09Z</time>
      </trkpt>
      <trkpt lat="48.66908" lon="7.35632">
        <ele>303</ele>
        <time>2026-05-13T05:35:13Z</time>
      </trkpt>
      <trkpt lat="48.66937" lon="7.35652">
        <ele>304</ele>
        <time>2026-05-13T05:35:19Z</time>
      </trkpt>
      <trkpt lat="48.66957" lon="7.35663">
        <ele>304</ele>
        <time>2026-05-13T05:35:23Z</time>
      </trkpt>
      <trkpt lat="48.67105" lon="7.35731">
        <ele>306</ele>
        <time>2026-05-13T05:35:50Z</time>
      </trkpt>
      <trkpt lat="48.67116" lon="7.35733">
        <ele>306</ele>
        <time>2026-05-13T05:35:52Z</time>
      </trkpt>
      <trkpt lat="48.67192" lon="7.35713">
        <ele>305</ele>
        <time>2026-05-13T05:36:06Z</time>
      </trkpt>
      <trkpt lat="48.67216" lon="7.35708">
        <ele>305</ele>
        <time>2026-05-13T05:36:10Z</time>
      </trkpt>
      <trkpt lat="48.67212" lon="7.35672">
        <ele>306</ele>
        <time>2026-05-13T05:36:14Z</time>
      </trkpt>
      <trkpt lat="48.67172" lon="7.35539">
        <ele>309</ele>
        <time>2026-05-13T05:36:32Z</time>
      </trkpt>
      <trkpt lat="48.67167" lon="7.35506">
        <ele>310</ele>
        <time>2026-05-13T05:36:36Z</time>
      </trkpt>
      <trkpt lat="48.67156" lon="7.35426">
        <ele>310</ele>
        <time>2026-05-13T05:36:45Z</time>
      </trkpt>
      <trkpt lat="48.67146" lon="7.35344">
        <ele>308</ele>
        <time>2026-05-13T05:36:55Z</time>
      </trkpt>
      <trkpt lat="48.67133" lon="7.35247">
        <ele>306</ele>
        <time>2026-05-13T05:37:07Z</time>
      </trkpt>
      <trkpt lat="48.67124" lon="7.35193">
        <ele>306</ele>
        <time>2026-05-13T05:37:13Z</time>
      </trkpt>
      <trkpt lat="48.67085" lon="7.35005">
        <ele>305</ele>
        <time>2026-05-13T05:37:36Z</time>
      </trkpt>
      <trkpt lat="48.67058" lon="7.34854">
        <ele>305</ele>
        <time>2026-05-13T05:37:55Z</time>
      </trkpt>
      <trkpt lat="48.67012" lon="7.347">
        <ele>315</ele>
        <time>2026-05-13T05:38:15Z</time>
      </trkpt>
      <trkpt lat="48.66999" lon="7.34661">
        <ele>319</ele>
        <time>2026-05-13T05:38:20Z</time>
      </trkpt>
      <trkpt lat="48.66961" lon="7.34588">
        <ele>322</ele>
        <time>2026-05-13T05:38:31Z</time>
      </trkpt>
      <trkpt lat="48.66894" lon="7.34467">
        <ele>319</ele>
        <time>2026-05-13T05:38:49Z</time>
      </trkpt>
      <trkpt lat="48.66869" lon="7.34413">
        <ele>316</ele>
        <time>2026-05-13T05:38:57Z</time>
      </trkpt>
      <trkpt lat="48.6682" lon="7.3429">
        <ele>310</ele>
        <time>2026-05-13T05:39:14Z</time>
      </trkpt>
      <trkpt lat="48.66801" lon="7.34241">
        <ele>308</ele>
        <time>2026-05-13T05:39:21Z</time>
      </trkpt>
      <trkpt lat="48.66786" lon="7.3419">
        <ele>304</ele>
        <time>2026-05-13T05:39:27Z</time>
      </trkpt>
      <trkpt lat="48.66773" lon="7.34131">
        <ele>299</ele>
        <time>2026-05-13T05:39:34Z</time>
      </trkpt>
      <trkpt lat="48.66752" lon="7.34067">
        <ele>293</ele>
        <time>2026-05-13T05:39:43Z</time>
      </trkpt>
      <trkpt lat="48.66748" lon="7.34048">
        <ele>293</ele>
        <time>2026-05-13T05:39:45Z</time>
      </trkpt>
      <trkpt lat="48.66746" lon="7.34029">
        <ele>292</ele>
        <time>2026-05-13T05:39:47Z</time>
      </trkpt>
      <trkpt lat="48.66746" lon="7.33974">
        <ele>291</ele>
        <time>2026-05-13T05:39:54Z</time>
      </trkpt>
      <trkpt lat="48.66745" lon="7.33946">
        <ele>291</ele>
        <time>2026-05-13T05:39:57Z</time>
      </trkpt>
      <trkpt lat="48.66735" lon="7.33884">
        <ele>289</ele>
        <time>2026-05-13T05:40:05Z</time>
      </trkpt>
      <trkpt lat="48.66735" lon="7.33861">
        <ele>289</ele>
        <time>2026-05-13T05:40:07Z</time>
      </trkpt>
      <trkpt lat="48.6674" lon="7.33828">
        <ele>289</ele>
        <time>2026-05-13T05:40:11Z</time>
      </trkpt>
      <trkpt lat="48.66742" lon="7.33802">
        <ele>289</ele>
        <time>2026-05-13T05:40:14Z</time>
      </trkpt>
      <trkpt lat="48.6674" lon="7.33783">
        <ele>289</ele>
        <time>2026-05-13T05:40:17Z</time>
      </trkpt>
      <trkpt lat="48.66735" lon="7.33765">
        <ele>289</ele>
        <time>2026-05-13T05:40:19Z</time>
      </trkpt>
      <trkpt lat="48.66723" lon="7.33736">
        <ele>290</ele>
        <time>2026-05-13T05:40:23Z</time>
      </trkpt>
      <trkpt lat="48.66714" lon="7.33708">
        <ele>290</ele>
        <time>2026-05-13T05:40:27Z</time>
      </trkpt>
      <trkpt lat="48.66704" lon="7.33665">
        <ele>291</ele>
        <time>2026-05-13T05:40:32Z</time>
      </trkpt>
      <trkpt lat="48.66682" lon="7.33556">
        <ele>290</ele>
        <time>2026-05-13T05:40:45Z</time>
      </trkpt>
      <trkpt lat="48.66681" lon="7.33544">
        <ele>289</ele>
        <time>2026-05-13T05:40:47Z</time>
      </trkpt>
      <trkpt lat="48.66682" lon="7.33533">
        <ele>289</ele>
        <time>2026-05-13T05:40:48Z</time>
      </trkpt>
      <trkpt lat="48.66686" lon="7.33525">
        <ele>289</ele>
        <time>2026-05-13T05:40:49Z</time>
      </trkpt>
      <trkpt lat="48.66692" lon="7.33516">
        <ele>288</ele>
        <time>2026-05-13T05:40:51Z</time>
      </trkpt>
      <trkpt lat="48.66729" lon="7.33491">
        <ele>287</ele>
        <time>2026-05-13T05:40:58Z</time>
      </trkpt>
      <trkpt lat="48.66734" lon="7.33487">
        <ele>288</ele>
        <time>2026-05-13T05:40:59Z</time>
      </trkpt>
      <trkpt lat="48.6675" lon="7.33465">
        <ele>288</ele>
        <time>2026-05-13T05:41:03Z</time>
      </trkpt>
      <trkpt lat="48.66753" lon="7.33451">
        <ele>288</ele>
        <time>2026-05-13T05:41:05Z</time>
      </trkpt>
      <trkpt lat="48.66744" lon="7.33413">
        <ele>289</ele>
        <time>2026-05-13T05:41:09Z</time>
      </trkpt>
      <trkpt lat="48.66723" lon="7.33333">
        <ele>291</ele>
        <time>2026-05-13T05:41:19Z</time>
      </trkpt>
      <trkpt lat="48.66726" lon="7.3333">
        <ele>291</ele>
        <time>2026-05-13T05:41:20Z</time>
      </trkpt>
      <trkpt lat="48.66727" lon="7.33324">
        <ele>291</ele>
        <time>2026-05-13T05:41:21Z</time>
      </trkpt>
      <trkpt lat="48.66789" lon="7.33299">
        <ele>289</ele>
        <time>2026-05-13T05:41:32Z</time>
      </trkpt>
      <trkpt lat="48.6679" lon="7.33299">
        <ele>289</ele>
        <time>2026-05-13T05:41:32Z</time>
      </trkpt>
      <trkpt lat="48.66797" lon="7.33295">
        <ele>289</ele>
        <time>2026-05-13T05:41:34Z</time>
      </trkpt>
      <trkpt lat="48.66915" lon="7.33242">
        <ele>289</ele>
        <time>2026-05-13T05:41:56Z</time>
      </trkpt>
      <trkpt lat="48.66976" lon="7.33212">
        <ele>291</ele>
        <time>2026-05-13T05:42:07Z</time>
      </trkpt>
      <trkpt lat="48.67035" lon="7.33181">
        <ele>293</ele>
        <time>2026-05-13T05:42:18Z</time>
      </trkpt>
      <trkpt lat="48.67222" lon="7.33091">
        <ele>298</ele>
        <time>2026-05-13T05:42:53Z</time>
      </trkpt>
      <trkpt lat="48.67227" lon="7.33082">
        <ele>298</ele>
        <time>2026-05-13T05:42:54Z</time>
      </trkpt>
      <trkpt lat="48.67228" lon="7.33071">
        <ele>298</ele>
        <time>2026-05-13T05:42:56Z</time>
      </trkpt>
      <trkpt lat="48.67221" lon="7.33017">
        <ele>299</ele>
        <time>2026-05-13T05:43:02Z</time>
      </trkpt>
      <trkpt lat="48.67199" lon="7.32874">
        <ele>301</ele>
        <time>2026-05-13T05:43:19Z</time>
      </trkpt>
      <trkpt lat="48.67192" lon="7.32811">
        <ele>303</ele>
        <time>2026-05-13T05:43:27Z</time>
      </trkpt>
      <trkpt lat="48.67184" lon="7.32699">
        <ele>305</ele>
        <time>2026-05-13T05:43:40Z</time>
      </trkpt>
      <trkpt lat="48.67184" lon="7.32669">
        <ele>305</ele>
        <time>2026-05-13T05:43:44Z</time>
      </trkpt>
      <trkpt lat="48.67188" lon="7.32635">
        <ele>306</ele>
        <time>2026-05-13T05:43:48Z</time>
      </trkpt>
      <trkpt lat="48.67196" lon="7.32587">
        <ele>308</ele>
        <time>2026-05-13T05:43:54Z</time>
      </trkpt>
      <trkpt lat="48.67227" lon="7.32451">
        <ele>314</ele>
        <time>2026-05-13T05:44:11Z</time>
      </trkpt>
      <trkpt lat="48.67235" lon="7.32399">
        <ele>315</ele>
        <time>2026-05-13T05:44:17Z</time>
      </trkpt>
      <trkpt lat="48.6724" lon="7.32361">
        <ele>316</ele>
        <time>2026-05-13T05:44:21Z</time>
      </trkpt>
      <trkpt lat="48.67245" lon="7.32286">
        <ele>315</ele>
        <time>2026-05-13T05:44:30Z</time>
      </trkpt>
      <trkpt lat="48.6725" lon="7.32221">
        <ele>314</ele>
        <time>2026-05-13T05:44:38Z</time>
      </trkpt>
      <trkpt lat="48.67251" lon="7.3216">
        <ele>315</ele>
        <time>2026-05-13T05:44:45Z</time>
      </trkpt>
      <trkpt lat="48.67253" lon="7.32132">
        <ele>315</ele>
        <time>2026-05-13T05:44:48Z</time>
      </trkpt>
      <trkpt lat="48.67258" lon="7.32118">
        <ele>315</ele>
        <time>2026-05-13T05:44:50Z</time>
      </trkpt>
      <trkpt lat="48.67265" lon="7.32113">
        <ele>316</ele>
        <time>2026-05-13T05:44:52Z</time>
      </trkpt>
      <trkpt lat="48.67286" lon="7.32113">
        <ele>315</ele>
        <time>2026-05-13T05:44:55Z</time>
      </trkpt>
      <trkpt lat="48.67297" lon="7.32111">
        <ele>315</ele>
        <time>2026-05-13T05:44:57Z</time>
      </trkpt>
      <trkpt lat="48.67303" lon="7.32106">
        <ele>315</ele>
        <time>2026-05-13T05:44:59Z</time>
      </trkpt>
      <trkpt lat="48.67307" lon="7.32101">
        <ele>316</ele>
        <time>2026-05-13T05:44:59Z</time>
      </trkpt>
      <trkpt lat="48.67322" lon="7.32079">
        <ele>317</ele>
        <time>2026-05-13T05:45:03Z</time>
      </trkpt>
      <trkpt lat="48.67337" lon="7.32043">
        <ele>319</ele>
        <time>2026-05-13T05:45:08Z</time>
      </trkpt>
      <trkpt lat="48.67357" lon="7.31982">
        <ele>321</ele>
        <time>2026-05-13T05:45:16Z</time>
      </trkpt>
      <trkpt lat="48.67372" lon="7.31946">
        <ele>322</ele>
        <time>2026-05-13T05:45:21Z</time>
      </trkpt>
      <trkpt lat="48.67377" lon="7.31924">
        <ele>323</ele>
        <time>2026-05-13T05:45:24Z</time>
      </trkpt>
      <trkpt lat="48.67385" lon="7.31872">
        <ele>325</ele>
        <time>2026-05-13T05:45:30Z</time>
      </trkpt>
      <trkpt lat="48.67391" lon="7.31815">
        <ele>327</ele>
        <time>2026-05-13T05:45:37Z</time>
      </trkpt>
      <trkpt lat="48.67393" lon="7.31794">
        <ele>328</ele>
        <time>2026-05-13T05:45:39Z</time>
      </trkpt>
      <trkpt lat="48.67404" lon="7.31601">
        <ele>347</ele>
        <time>2026-05-13T05:46:02Z</time>
      </trkpt>
      <trkpt lat="48.67407" lon="7.31589">
        <ele>348</ele>
        <time>2026-05-13T05:46:04Z</time>
      </trkpt>
      <trkpt lat="48.67392" lon="7.3158">
        <ele>348</ele>
        <time>2026-05-13T05:46:07Z</time>
      </trkpt>
      <trkpt lat="48.67357" lon="7.31552">
        <ele>349</ele>
        <time>2026-05-13T05:46:14Z</time>
      </trkpt>
      <trkpt lat="48.67325" lon="7.31522">
        <ele>348</ele>
        <time>2026-05-13T05:46:20Z</time>
      </trkpt>
      <trkpt lat="48.67311" lon="7.31504">
        <ele>347</ele>
        <time>2026-05-13T05:46:24Z</time>
      </trkpt>
      <trkpt lat="48.67302" lon="7.31486">
        <ele>347</ele>
        <time>2026-05-13T05:46:26Z</time>
      </trkpt>
      <trkpt lat="48.6729" lon="7.31426">
        <ele>349</ele>
        <time>2026-05-13T05:46:34Z</time>
      </trkpt>
      <trkpt lat="48.67279" lon="7.31369">
        <ele>349</ele>
        <time>2026-05-13T05:46:41Z</time>
      </trkpt>
      <trkpt lat="48.67266" lon="7.31261">
        <ele>351</ele>
        <time>2026-05-13T05:46:54Z</time>
      </trkpt>
      <trkpt lat="48.67265" lon="7.31216">
        <ele>352</ele>
        <time>2026-05-13T05:46:59Z</time>
      </trkpt>
      <trkpt lat="48.67268" lon="7.31103">
        <ele>358</ele>
        <time>2026-05-13T05:47:12Z</time>
      </trkpt>
      <trkpt lat="48.67266" lon="7.31074">
        <ele>358</ele>
        <time>2026-05-13T05:47:16Z</time>
      </trkpt>
      <trkpt lat="48.67264" lon="7.31059">
        <ele>358</ele>
        <time>2026-05-13T05:47:17Z</time>
      </trkpt>
      <trkpt lat="48.67259" lon="7.31052">
        <ele>357</ele>
        <time>2026-05-13T05:47:19Z</time>
      </trkpt>
      <trkpt lat="48.67255" lon="7.31053">
        <ele>355</ele>
        <time>2026-05-13T05:47:19Z</time>
      </trkpt>
      <trkpt lat="48.67249" lon="7.3106">
        <ele>353</ele>
        <time>2026-05-13T05:47:21Z</time>
      </trkpt>
      <trkpt lat="48.67246" lon="7.31071">
        <ele>354</ele>
        <time>2026-05-13T05:47:22Z</time>
      </trkpt>
      <trkpt lat="48.67234" lon="7.31132">
        <ele>355</ele>
        <time>2026-05-13T05:47:29Z</time>
      </trkpt>
      <trkpt lat="48.67226" lon="7.31193">
        <ele>356</ele>
        <time>2026-05-13T05:47:37Z</time>
      </trkpt>
      <trkpt lat="48.67216" lon="7.31249">
        <ele>357</ele>
        <time>2026-05-13T05:47:44Z</time>
      </trkpt>
      <trkpt lat="48.67203" lon="7.313">
        <ele>356</ele>
        <time>2026-05-13T05:47:50Z</time>
      </trkpt>
      <trkpt lat="48.67189" lon="7.31338">
        <ele>355</ele>
        <time>2026-05-13T05:47:55Z</time>
      </trkpt>
      <trkpt lat="48.67173" lon="7.31375">
        <ele>354</ele>
        <time>2026-05-13T05:48:00Z</time>
      </trkpt>
      <trkpt lat="48.67163" lon="7.31394">
        <ele>353</ele>
        <time>2026-05-13T05:48:03Z</time>
      </trkpt>
      <trkpt lat="48.67146" lon="7.31414">
        <ele>355</ele>
        <time>2026-05-13T05:48:07Z</time>
      </trkpt>
      <trkpt lat="48.67116" lon="7.31435">
        <ele>359</ele>
        <time>2026-05-13T05:48:13Z</time>
      </trkpt>
      <trkpt lat="48.67077" lon="7.31453">
        <ele>364</ele>
        <time>2026-05-13T05:48:20Z</time>
      </trkpt>
      <trkpt lat="48.67053" lon="7.31457">
        <ele>367</ele>
        <time>2026-05-13T05:48:24Z</time>
      </trkpt>
      <trkpt lat="48.67019" lon="7.31459">
        <ele>372</ele>
        <time>2026-05-13T05:48:31Z</time>
      </trkpt>
      <trkpt lat="48.66969" lon="7.31454">
        <ele>378</ele>
        <time>2026-05-13T05:48:39Z</time>
      </trkpt>
      <trkpt lat="48.66941" lon="7.31449">
        <ele>380</ele>
        <time>2026-05-13T05:48:44Z</time>
      </trkpt>
      <trkpt lat="48.6681" lon="7.31432">
        <ele>388</ele>
        <time>2026-05-13T05:49:08Z</time>
      </trkpt>
      <trkpt lat="48.66642" lon="7.31403">
        <ele>403</ele>
        <time>2026-05-13T05:49:38Z</time>
      </trkpt>
      <trkpt lat="48.66614" lon="7.314">
        <ele>406</ele>
        <time>2026-05-13T05:49:43Z</time>
      </trkpt>
      <trkpt lat="48.66516" lon="7.31386">
        <ele>418</ele>
        <time>2026-05-13T05:50:00Z</time>
      </trkpt>
      <trkpt lat="48.66382" lon="7.31366">
        <ele>430</ele>
        <time>2026-05-13T05:50:24Z</time>
      </trkpt>
      <trkpt lat="48.6634" lon="7.31357">
        <ele>431</ele>
        <time>2026-05-13T05:50:32Z</time>
      </trkpt>
      <trkpt lat="48.6632" lon="7.31348">
        <ele>431</ele>
        <time>2026-05-13T05:50:36Z</time>
      </trkpt>
      <trkpt lat="48.66315" lon="7.31346">
        <ele>431</ele>
        <time>2026-05-13T05:50:37Z</time>
      </trkpt>
      <trkpt lat="48.66286" lon="7.31318">
        <ele>435</ele>
        <time>2026-05-13T05:50:43Z</time>
      </trkpt>
      <trkpt lat="48.66239" lon="7.31276">
        <ele>435</ele>
        <time>2026-05-13T05:50:52Z</time>
      </trkpt>
      <trkpt lat="48.66185" lon="7.31219">
        <ele>433</ele>
        <time>2026-05-13T05:51:04Z</time>
      </trkpt>
      <trkpt lat="48.66149" lon="7.31193">
        <ele>427</ele>
        <time>2026-05-13T05:51:11Z</time>
      </trkpt>
      <trkpt lat="48.66131" lon="7.31178">
        <ele>425</ele>
        <time>2026-05-13T05:51:15Z</time>
      </trkpt>
      <trkpt lat="48.66121" lon="7.31167">
        <ele>424</ele>
        <time>2026-05-13T05:51:17Z</time>
      </trkpt>
      <trkpt lat="48.66105" lon="7.31147">
        <ele>425</ele>
        <time>2026-05-13T05:51:21Z</time>
      </trkpt>
      <trkpt lat="48.66095" lon="7.31139">
        <ele>425</ele>
        <time>2026-05-13T05:51:23Z</time>
      </trkpt>
      <trkpt lat="48.66084" lon="7.31137">
        <ele>423</ele>
        <time>2026-05-13T05:51:25Z</time>
      </trkpt>
      <trkpt lat="48.66004" lon="7.31152">
        <ele>410</ele>
        <time>2026-05-13T05:51:39Z</time>
      </trkpt>
      <trkpt lat="48.65937" lon="7.31151">
        <ele>409</ele>
        <time>2026-05-13T05:51:51Z</time>
      </trkpt>
      <trkpt lat="48.65833" lon="7.31146">
        <ele>413</ele>
        <time>2026-05-13T05:52:10Z</time>
      </trkpt>
      <trkpt lat="48.65766" lon="7.31146">
        <ele>418</ele>
        <time>2026-05-13T05:52:21Z</time>
      </trkpt>
      <trkpt lat="48.65757" lon="7.3115">
        <ele>418</ele>
        <time>2026-05-13T05:52:23Z</time>
      </trkpt>
      <trkpt lat="48.65748" lon="7.31159">
        <ele>416</ele>
        <time>2026-05-13T05:52:25Z</time>
      </trkpt>
      <trkpt lat="48.6573" lon="7.312">
        <ele>409</ele>
        <time>2026-05-13T05:52:31Z</time>
      </trkpt>
      <trkpt lat="48.65722" lon="7.31208">
        <ele>408</ele>
        <time>2026-05-13T05:52:33Z</time>
      </trkpt>
      <trkpt lat="48.65714" lon="7.3121">
        <ele>408</ele>
        <time>2026-05-13T05:52:34Z</time>
      </trkpt>
      <trkpt lat="48.657" lon="7.31208">
        <ele>408</ele>
        <time>2026-05-13T05:52:36Z</time>
      </trkpt>
      <trkpt lat="48.65679" lon="7.31202">
        <ele>409</ele>
        <time>2026-05-13T05:52:40Z</time>
      </trkpt>
      <trkpt lat="48.65671" lon="7.31195">
        <ele>410</ele>
        <time>2026-05-13T05:52:42Z</time>
      </trkpt>
      <trkpt lat="48.65658" lon="7.31175">
        <ele>411</ele>
        <time>2026-05-13T05:52:45Z</time>
      </trkpt>
      <trkpt lat="48.65628" lon="7.31097">
        <ele>415</ele>
        <time>2026-05-13T05:52:56Z</time>
      </trkpt>
      <trkpt lat="48.65621" lon="7.31086">
        <ele>415</ele>
        <time>2026-05-13T05:52:58Z</time>
      </trkpt>
      <trkpt lat="48.65613" lon="7.3108">
        <ele>414</ele>
        <time>2026-05-13T05:52:59Z</time>
      </trkpt>
      <trkpt lat="48.65599" lon="7.3108">
        <ele>412</ele>
        <time>2026-05-13T05:53:02Z</time>
      </trkpt>
      <trkpt lat="48.65561" lon="7.31086">
        <ele>410</ele>
        <time>2026-05-13T05:53:08Z</time>
      </trkpt>
      <trkpt lat="48.65534" lon="7.31096">
        <ele>411</ele>
        <time>2026-05-13T05:53:13Z</time>
      </trkpt>
      <trkpt lat="48.65525" lon="7.31104">
        <ele>410</ele>
        <time>2026-05-13T05:53:15Z</time>
      </trkpt>
      <trkpt lat="48.65519" lon="7.3112">
        <ele>409</ele>
        <time>2026-05-13T05:53:17Z</time>
      </trkpt>
      <trkpt lat="48.655" lon="7.31191">
        <ele>403</ele>
        <time>2026-05-13T05:53:26Z</time>
      </trkpt>
      <trkpt lat="48.65487" lon="7.31234">
        <ele>405</ele>
        <time>2026-05-13T05:53:32Z</time>
      </trkpt>
      <trkpt lat="48.65474" lon="7.3127">
        <ele>406</ele>
        <time>2026-05-13T05:53:37Z</time>
      </trkpt>
      <trkpt lat="48.65453" lon="7.31309">
        <ele>407</ele>
        <time>2026-05-13T05:53:43Z</time>
      </trkpt>
      <trkpt lat="48.65427" lon="7.3135">
        <ele>407</ele>
        <time>2026-05-13T05:53:49Z</time>
      </trkpt>
      <trkpt lat="48.65406" lon="7.31378">
        <ele>405</ele>
        <time>2026-05-13T05:53:54Z</time>
      </trkpt>
      <trkpt lat="48.65389" lon="7.31394">
        <ele>404</ele>
        <time>2026-05-13T05:53:58Z</time>
      </trkpt>
      <trkpt lat="48.6537" lon="7.314">
        <ele>404</ele>
        <time>2026-05-13T05:54:01Z</time>
      </trkpt>
      <trkpt lat="48.6536" lon="7.31399">
        <ele>404</ele>
        <time>2026-05-13T05:54:03Z</time>
      </trkpt>
      <trkpt lat="48.65333" lon="7.31398">
        <ele>404</ele>
        <time>2026-05-13T05:54:08Z</time>
      </trkpt>
      <trkpt lat="48.65284" lon="7.31371">
        <ele>399</ele>
        <time>2026-05-13T05:54:17Z</time>
      </trkpt>
      <trkpt lat="48.65268" lon="7.31359">
        <ele>397</ele>
        <time>2026-05-13T05:54:20Z</time>
      </trkpt>
      <trkpt lat="48.65254" lon="7.31345">
        <ele>396</ele>
        <time>2026-05-13T05:54:23Z</time>
      </trkpt>
      <trkpt lat="48.6524" lon="7.31323">
        <ele>394</ele>
        <time>2026-05-13T05:54:27Z</time>
      </trkpt>
      <trkpt lat="48.65211" lon="7.31259">
        <ele>392</ele>
        <time>2026-05-13T05:54:36Z</time>
      </trkpt>
      <trkpt lat="48.65194" lon="7.31202">
        <ele>390</ele>
        <time>2026-05-13T05:54:44Z</time>
      </trkpt>
      <trkpt lat="48.65176" lon="7.31102">
        <ele>392</ele>
        <time>2026-05-13T05:54:56Z</time>
      </trkpt>
      <trkpt lat="48.65162" lon="7.3104">
        <ele>395</ele>
        <time>2026-05-13T05:55:03Z</time>
      </trkpt>
      <trkpt lat="48.65155" lon="7.31019">
        <ele>397</ele>
        <time>2026-05-13T05:55:06Z</time>
      </trkpt>
      <trkpt lat="48.65141" lon="7.30995">
        <ele>399</ele>
        <time>2026-05-13T05:55:10Z</time>
      </trkpt>
      <trkpt lat="48.65113" lon="7.30953">
        <ele>400</ele>
        <time>2026-05-13T05:55:17Z</time>
      </trkpt>
      <trkpt lat="48.65101" lon="7.30944">
        <ele>399</ele>
        <time>2026-05-13T05:55:19Z</time>
      </trkpt>
      <trkpt lat="48.65089" lon="7.30942">
        <ele>398</ele>
        <time>2026-05-13T05:55:21Z</time>
      </trkpt>
      <trkpt lat="48.65082" lon="7.30948">
        <ele>398</ele>
        <time>2026-05-13T05:55:23Z</time>
      </trkpt>
      <trkpt lat="48.65078" lon="7.30957">
        <ele>400</ele>
        <time>2026-05-13T05:55:24Z</time>
      </trkpt>
      <trkpt lat="48.65078" lon="7.30975">
        <ele>400</ele>
        <time>2026-05-13T05:55:26Z</time>
      </trkpt>
      <trkpt lat="48.65082" lon="7.31032">
        <ele>397</ele>
        <time>2026-05-13T05:55:33Z</time>
      </trkpt>
      <trkpt lat="48.65082" lon="7.31079">
        <ele>396</ele>
        <time>2026-05-13T05:55:39Z</time>
      </trkpt>
      <trkpt lat="48.65076" lon="7.31139">
        <ele>398</ele>
        <time>2026-05-13T05:55:46Z</time>
      </trkpt>
      <trkpt lat="48.6507" lon="7.31173">
        <ele>399</ele>
        <time>2026-05-13T05:55:50Z</time>
      </trkpt>
      <trkpt lat="48.6506" lon="7.31198">
        <ele>398</ele>
        <time>2026-05-13T05:55:53Z</time>
      </trkpt>
      <trkpt lat="48.65033" lon="7.31249">
        <ele>400</ele>
        <time>2026-05-13T05:56:01Z</time>
      </trkpt>
      <trkpt lat="48.64985" lon="7.31324">
        <ele>400</ele>
        <time>2026-05-13T05:56:13Z</time>
      </trkpt>
      <trkpt lat="48.64972" lon="7.31339">
        <ele>399</ele>
        <time>2026-05-13T05:56:16Z</time>
      </trkpt>
      <trkpt lat="48.64953" lon="7.31354">
        <ele>400</ele>
        <time>2026-05-13T05:56:20Z</time>
      </trkpt>
      <trkpt lat="48.64929" lon="7.31365">
        <ele>402</ele>
        <time>2026-05-13T05:56:24Z</time>
      </trkpt>
      <trkpt lat="48.64895" lon="7.31374">
        <ele>404</ele>
        <time>2026-05-13T05:56:31Z</time>
      </trkpt>
      <trkpt lat="48.6484" lon="7.3138">
        <ele>409</ele>
        <time>2026-05-13T05:56:40Z</time>
      </trkpt>
      <trkpt lat="48.64815" lon="7.3138">
        <ele>411</ele>
        <time>2026-05-13T05:56:45Z</time>
      </trkpt>
      <trkpt lat="48.6476" lon="7.31362">
        <ele>415</ele>
        <time>2026-05-13T05:56:55Z</time>
      </trkpt>
      <trkpt lat="48.64746" lon="7.31355">
        <ele>416</ele>
        <time>2026-05-13T05:56:57Z</time>
      </trkpt>
      <trkpt lat="48.64699" lon="7.31313">
        <ele>416</ele>
        <time>2026-05-13T05:57:07Z</time>
      </trkpt>
      <trkpt lat="48.64659" lon="7.31257">
        <ele>418</ele>
        <time>2026-05-13T05:57:17Z</time>
      </trkpt>
      <trkpt lat="48.64648" lon="7.3123">
        <ele>419</ele>
        <time>2026-05-13T05:57:21Z</time>
      </trkpt>
      <trkpt lat="48.64637" lon="7.31191">
        <ele>420</ele>
        <time>2026-05-13T05:57:26Z</time>
      </trkpt>
      <trkpt lat="48.64617" lon="7.31109">
        <ele>423</ele>
        <time>2026-05-13T05:57:36Z</time>
      </trkpt>
      <trkpt lat="48.64608" lon="7.31081">
        <ele>424</ele>
        <time>2026-05-13T05:57:40Z</time>
      </trkpt>
      <trkpt lat="48.64599" lon="7.31063">
        <ele>423</ele>
        <time>2026-05-13T05:57:42Z</time>
      </trkpt>
      <trkpt lat="48.64587" lon="7.31052">
        <ele>421</ele>
        <time>2026-05-13T05:57:45Z</time>
      </trkpt>
      <trkpt lat="48.64553" lon="7.31041">
        <ele>423</ele>
        <time>2026-05-13T05:57:51Z</time>
      </trkpt>
      <trkpt lat="48.64538" lon="7.31044">
        <ele>424</ele>
        <time>2026-05-13T05:57:54Z</time>
      </trkpt>
      <trkpt lat="48.64523" lon="7.31056">
        <ele>424</ele>
        <time>2026-05-13T05:57:57Z</time>
      </trkpt>
      <trkpt lat="48.64496" lon="7.31086">
        <ele>425</ele>
        <time>2026-05-13T05:58:03Z</time>
      </trkpt>
      <trkpt lat="48.64489" lon="7.31096">
        <ele>426</ele>
        <time>2026-05-13T05:58:04Z</time>
      </trkpt>
      <trkpt lat="48.64483" lon="7.31106">
        <ele>426</ele>
        <time>2026-05-13T05:58:06Z</time>
      </trkpt>
      <trkpt lat="48.64467" lon="7.31156">
        <ele>426</ele>
        <time>2026-05-13T05:58:12Z</time>
      </trkpt>
      <trkpt lat="48.64434" lon="7.31231">
        <ele>430</ele>
        <time>2026-05-13T05:58:23Z</time>
      </trkpt>
      <trkpt lat="48.64424" lon="7.31262">
        <ele>431</ele>
        <time>2026-05-13T05:58:27Z</time>
      </trkpt>
      <trkpt lat="48.64413" lon="7.31314">
        <ele>432</ele>
        <time>2026-05-13T05:58:33Z</time>
      </trkpt>
      <trkpt lat="48.64404" lon="7.31388">
        <ele>434</ele>
        <time>2026-05-13T05:58:42Z</time>
      </trkpt>
      <trkpt lat="48.64402" lon="7.31422">
        <ele>435</ele>
        <time>2026-05-13T05:58:46Z</time>
      </trkpt>
      <trkpt lat="48.64405" lon="7.31487">
        <ele>437</ele>
        <time>2026-05-13T05:58:54Z</time>
      </trkpt>
      <trkpt lat="48.64404" lon="7.3152">
        <ele>439</ele>
        <time>2026-05-13T05:58:58Z</time>
      </trkpt>
      <trkpt lat="48.644" lon="7.31549">
        <ele>441</ele>
        <time>2026-05-13T05:59:01Z</time>
      </trkpt>
      <trkpt lat="48.64395" lon="7.31578">
        <ele>443</ele>
        <time>2026-05-13T05:59:05Z</time>
      </trkpt>
      <trkpt lat="48.64372" lon="7.31663">
        <ele>447</ele>
        <time>2026-05-13T05:59:16Z</time>
      </trkpt>
      <trkpt lat="48.64353" lon="7.31727">
        <ele>449</ele>
        <time>2026-05-13T05:59:24Z</time>
      </trkpt>
      <trkpt lat="48.64328" lon="7.31798">
        <ele>452</ele>
        <time>2026-05-13T05:59:33Z</time>
      </trkpt>
      <trkpt lat="48.6432" lon="7.31812">
        <ele>453</ele>
        <time>2026-05-13T05:59:36Z</time>
      </trkpt>
      <trkpt lat="48.64313" lon="7.31817">
        <ele>454</ele>
        <time>2026-05-13T05:59:37Z</time>
      </trkpt>
      <trkpt lat="48.64277" lon="7.31664">
        <ele>463</ele>
        <time>2026-05-13T05:59:56Z</time>
      </trkpt>
      <trkpt lat="48.64224" lon="7.31445">
        <ele>470</ele>
        <time>2026-05-13T06:00:23Z</time>
      </trkpt>
      <trkpt lat="48.64209" lon="7.3139">
        <ele>472</ele>
        <time>2026-05-13T06:00:30Z</time>
      </trkpt>
      <trkpt lat="48.64138" lon="7.31197">
        <ele>469</ele>
        <time>2026-05-13T06:00:56Z</time>
      </trkpt>
      <trkpt lat="48.64118" lon="7.31138">
        <ele>466</ele>
        <time>2026-05-13T06:01:04Z</time>
      </trkpt>
      <trkpt lat="48.64113" lon="7.31112">
        <ele>465</ele>
        <time>2026-05-13T06:01:07Z</time>
      </trkpt>
      <trkpt lat="48.64112" lon="7.31097">
        <ele>464</ele>
        <time>2026-05-13T06:01:09Z</time>
      </trkpt>
      <trkpt lat="48.64115" lon="7.31017">
        <ele>463</ele>
        <time>2026-05-13T06:01:19Z</time>
      </trkpt>
      <trkpt lat="48.64133" lon="7.30775">
        <ele>464</ele>
        <time>2026-05-13T06:01:47Z</time>
      </trkpt>
      <trkpt lat="48.64135" lon="7.30725">
        <ele>464</ele>
        <time>2026-05-13T06:01:53Z</time>
      </trkpt>
      <trkpt lat="48.64137" lon="7.3066">
        <ele>463</ele>
        <time>2026-05-13T06:02:01Z</time>
      </trkpt>
      <trkpt lat="48.64139" lon="7.30639">
        <ele>463</ele>
        <time>2026-05-13T06:02:03Z</time>
      </trkpt>
      <trkpt lat="48.6415" lon="7.30609">
        <ele>463</ele>
        <time>2026-05-13T06:02:07Z</time>
      </trkpt>
      <trkpt lat="48.64163" lon="7.30571">
        <ele>463</ele>
        <time>2026-05-13T06:02:12Z</time>
      </trkpt>
      <trkpt lat="48.64188" lon="7.3048">
        <ele>467</ele>
        <time>2026-05-13T06:02:24Z</time>
      </trkpt>
      <trkpt lat="48.64192" lon="7.30447">
        <ele>470</ele>
        <time>2026-05-13T06:02:28Z</time>
      </trkpt>
      <trkpt lat="48.64193" lon="7.30416">
        <ele>473</ele>
        <time>2026-05-13T06:02:31Z</time>
      </trkpt>
      <trkpt lat="48.64193" lon="7.30406">
        <ele>474</ele>
        <time>2026-05-13T06:02:33Z</time>
      </trkpt>
      <trkpt lat="48.6419" lon="7.30381">
        <ele>477</ele>
        <time>2026-05-13T06:02:36Z</time>
      </trkpt>
      <trkpt lat="48.64179" lon="7.30335">
        <ele>479</ele>
        <time>2026-05-13T06:02:41Z</time>
      </trkpt>
      <trkpt lat="48.64177" lon="7.30323">
        <ele>479</ele>
        <time>2026-05-13T06:02:43Z</time>
      </trkpt>
      <trkpt lat="48.64171" lon="7.30292">
        <ele>481</ele>
        <time>2026-05-13T06:02:47Z</time>
      </trkpt>
      <trkpt lat="48.64169" lon="7.30275">
        <ele>482</ele>
        <time>2026-05-13T06:02:49Z</time>
      </trkpt>
      <trkpt lat="48.64169" lon="7.30231">
        <ele>487</ele>
        <time>2026-05-13T06:02:54Z</time>
      </trkpt>
      <trkpt lat="48.64169" lon="7.30221">
        <ele>488</ele>
        <time>2026-05-13T06:02:55Z</time>
      </trkpt>
      <trkpt lat="48.64162" lon="7.30168">
        <ele>492</ele>
        <time>2026-05-13T06:03:01Z</time>
      </trkpt>
      <trkpt lat="48.64149" lon="7.30107">
        <ele>492</ele>
        <time>2026-05-13T06:03:09Z</time>
      </trkpt>
      <trkpt lat="48.64144" lon="7.30063">
        <ele>492</ele>
        <time>2026-05-13T06:03:14Z</time>
      </trkpt>
      <trkpt lat="48.64143" lon="7.30008">
        <ele>492</ele>
        <time>2026-05-13T06:03:21Z</time>
      </trkpt>
      <trkpt lat="48.64148" lon="7.29957">
        <ele>493</ele>
        <time>2026-05-13T06:03:27Z</time>
      </trkpt>
      <trkpt lat="48.64184" lon="7.29697">
        <ele>510</ele>
        <time>2026-05-13T06:03:58Z</time>
      </trkpt>
      <trkpt lat="48.64188" lon="7.29653">
        <ele>514</ele>
        <time>2026-05-13T06:04:03Z</time>
      </trkpt>
      <trkpt lat="48.64179" lon="7.29614">
        <ele>515</ele>
        <time>2026-05-13T06:04:08Z</time>
      </trkpt>
      <trkpt lat="48.6416" lon="7.29595">
        <ele>515</ele>
        <time>2026-05-13T06:04:12Z</time>
      </trkpt>
      <trkpt lat="48.64145" lon="7.29598">
        <ele>516</ele>
        <time>2026-05-13T06:04:15Z</time>
      </trkpt>
      <trkpt lat="48.64025" lon="7.29637">
        <ele>522</ele>
        <time>2026-05-13T06:04:37Z</time>
      </trkpt>
      <trkpt lat="48.64007" lon="7.29646">
        <ele>523</ele>
        <time>2026-05-13T06:04:40Z</time>
      </trkpt>
      <trkpt lat="48.63942" lon="7.29698">
        <ele>524</ele>
        <time>2026-05-13T06:04:53Z</time>
      </trkpt>
      <trkpt lat="48.63913" lon="7.29723">
        <ele>523</ele>
        <time>2026-05-13T06:04:59Z</time>
      </trkpt>
      <trkpt lat="48.6383" lon="7.29761">
        <ele>528</ele>
        <time>2026-05-13T06:05:14Z</time>
      </trkpt>
      <trkpt lat="48.6382" lon="7.29763">
        <ele>526</ele>
        <time>2026-05-13T06:05:16Z</time>
      </trkpt>
      <trkpt lat="48.63811" lon="7.29762">
        <ele>526</ele>
        <time>2026-05-13T06:05:18Z</time>
      </trkpt>
      <trkpt lat="48.63799" lon="7.29756">
        <ele>526</ele>
        <time>2026-05-13T06:05:20Z</time>
      </trkpt>
      <trkpt lat="48.6377" lon="7.29734">
        <ele>527</ele>
        <time>2026-05-13T06:05:26Z</time>
      </trkpt>
      <trkpt lat="48.63759" lon="7.29717">
        <ele>529</ele>
        <time>2026-05-13T06:05:29Z</time>
      </trkpt>
      <trkpt lat="48.63744" lon="7.29681">
        <ele>532</ele>
        <time>2026-05-13T06:05:34Z</time>
      </trkpt>
      <trkpt lat="48.63734" lon="7.29662">
        <ele>532</ele>
        <time>2026-05-13T06:05:36Z</time>
      </trkpt>
      <trkpt lat="48.63722" lon="7.29637">
        <ele>530</ele>
        <time>2026-05-13T06:05:40Z</time>
      </trkpt>
      <trkpt lat="48.63709" lon="7.29618">
        <ele>528</ele>
        <time>2026-05-13T06:05:43Z</time>
      </trkpt>
      <trkpt lat="48.63705" lon="7.29602">
        <ele>528</ele>
        <time>2026-05-13T06:05:45Z</time>
      </trkpt>
      <trkpt lat="48.63707" lon="7.2959">
        <ele>530</ele>
        <time>2026-05-13T06:05:47Z</time>
      </trkpt>
      <trkpt lat="48.6371" lon="7.29583">
        <ele>532</ele>
        <time>2026-05-13T06:05:48Z</time>
      </trkpt>
      <trkpt lat="48.63715" lon="7.29578">
        <ele>534</ele>
        <time>2026-05-13T06:05:49Z</time>
      </trkpt>
      <trkpt lat="48.63721" lon="7.29576">
        <ele>537</ele>
        <time>2026-05-13T06:05:50Z</time>
      </trkpt>
      <trkpt lat="48.63727" lon="7.29579">
        <ele>539</ele>
        <time>2026-05-13T06:05:51Z</time>
      </trkpt>
      <trkpt lat="48.63731" lon="7.29584">
        <ele>541</ele>
        <time>2026-05-13T06:05:52Z</time>
      </trkpt>
      <trkpt lat="48.63734" lon="7.29594">
        <ele>541</ele>
        <time>2026-05-13T06:05:53Z</time>
      </trkpt>
      <trkpt lat="48.63736" lon="7.29618">
        <ele>538</ele>
        <time>2026-05-13T06:05:56Z</time>
      </trkpt>
      <trkpt lat="48.6374" lon="7.29638">
        <ele>537</ele>
        <time>2026-05-13T06:05:59Z</time>
      </trkpt>
      <trkpt lat="48.63743" lon="7.29645">
        <ele>537</ele>
        <time>2026-05-13T06:06:00Z</time>
      </trkpt>
      <trkpt lat="48.63748" lon="7.29653">
        <ele>538</ele>
        <time>2026-05-13T06:06:01Z</time>
      </trkpt>
      <trkpt lat="48.63762" lon="7.29674">
        <ele>538</ele>
        <time>2026-05-13T06:06:04Z</time>
      </trkpt>
      <trkpt lat="48.63782" lon="7.29693">
        <ele>538</ele>
        <time>2026-05-13T06:06:09Z</time>
      </trkpt>
      <trkpt lat="48.63802" lon="7.29702">
        <ele>539</ele>
        <time>2026-05-13T06:06:12Z</time>
      </trkpt>
      <trkpt lat="48.63827" lon="7.29703">
        <ele>543</ele>
        <time>2026-05-13T06:06:17Z</time>
      </trkpt>
      <trkpt lat="48.6385" lon="7.29691">
        <ele>544</ele>
        <time>2026-05-13T06:06:21Z</time>
      </trkpt>
      <trkpt lat="48.63881" lon="7.29659">
        <ele>546</ele>
        <time>2026-05-13T06:06:28Z</time>
      </trkpt>
      <trkpt lat="48.63922" lon="7.29605">
        <ele>555</ele>
        <time>2026-05-13T06:06:37Z</time>
      </trkpt>
      <trkpt lat="48.6398" lon="7.29543">
        <ele>558</ele>
        <time>2026-05-13T06:06:50Z</time>
      </trkpt>
      <trkpt lat="48.64082" lon="7.29458">
        <ele>564</ele>
        <time>2026-05-13T06:07:11Z</time>
      </trkpt>
      <trkpt lat="48.64161" lon="7.29399">
        <ele>573</ele>
        <time>2026-05-13T06:07:26Z</time>
      </trkpt>
      <trkpt lat="48.64192" lon="7.29379">
        <ele>580</ele>
        <time>2026-05-13T06:07:32Z</time>
      </trkpt>
      <trkpt lat="48.64232" lon="7.29362">
        <ele>585</ele>
        <time>2026-05-13T06:07:40Z</time>
      </trkpt>
      <trkpt lat="48.64286" lon="7.29344">
        <ele>591</ele>
        <time>2026-05-13T06:07:50Z</time>
      </trkpt>
      <trkpt lat="48.64313" lon="7.29344">
        <ele>590</ele>
        <time>2026-05-13T06:07:54Z</time>
      </trkpt>
      <trkpt lat="48.64331" lon="7.2935">
        <ele>589</ele>
        <time>2026-05-13T06:07:58Z</time>
      </trkpt>
      <trkpt lat="48.64339" lon="7.29359">
        <ele>589</ele>
        <time>2026-05-13T06:07:59Z</time>
      </trkpt>
      <trkpt lat="48.64344" lon="7.29374">
        <ele>588</ele>
        <time>2026-05-13T06:08:01Z</time>
      </trkpt>
      <trkpt lat="48.64344" lon="7.29433">
        <ele>582</ele>
        <time>2026-05-13T06:08:08Z</time>
      </trkpt>
      <trkpt lat="48.64338" lon="7.29527">
        <ele>580</ele>
        <time>2026-05-13T06:08:20Z</time>
      </trkpt>
      <trkpt lat="48.64337" lon="7.29584">
        <ele>582</ele>
        <time>2026-05-13T06:08:26Z</time>
      </trkpt>
      <trkpt lat="48.6434" lon="7.29775">
        <ele>591</ele>
        <time>2026-05-13T06:08:49Z</time>
      </trkpt>
      <trkpt lat="48.64343" lon="7.29835">
        <ele>591</ele>
        <time>2026-05-13T06:08:56Z</time>
      </trkpt>
      <trkpt lat="48.64352" lon="7.29874">
        <ele>593</ele>
        <time>2026-05-13T06:09:01Z</time>
      </trkpt>
      <trkpt lat="48.64369" lon="7.29921">
        <ele>597</ele>
        <time>2026-05-13T06:09:07Z</time>
      </trkpt>
      <trkpt lat="48.64384" lon="7.29949">
        <ele>600</ele>
        <time>2026-05-13T06:09:11Z</time>
      </trkpt>
      <trkpt lat="48.64406" lon="7.29979">
        <ele>604</ele>
        <time>2026-05-13T06:09:16Z</time>
      </trkpt>
      <trkpt lat="48.64426" lon="7.29997">
        <ele>606</ele>
        <time>2026-05-13T06:09:21Z</time>
      </trkpt>
      <trkpt lat="48.64446" lon="7.30006">
        <ele>608</ele>
        <time>2026-05-13T06:09:24Z</time>
      </trkpt>
      <trkpt lat="48.64477" lon="7.30014">
        <ele>612</ele>
        <time>2026-05-13T06:09:30Z</time>
      </trkpt>
      <trkpt lat="48.64507" lon="7.30014">
        <ele>616</ele>
        <time>2026-05-13T06:09:35Z</time>
      </trkpt>
      <trkpt lat="48.64523" lon="7.30009">
        <ele>617</ele>
        <time>2026-05-13T06:09:38Z</time>
      </trkpt>
      <trkpt lat="48.64539" lon="7.30001">
        <ele>618</ele>
        <time>2026-05-13T06:09:41Z</time>
      </trkpt>
      <trkpt lat="48.64554" lon="7.29988">
        <ele>621</ele>
        <time>2026-05-13T06:09:44Z</time>
      </trkpt>
      <trkpt lat="48.64587" lon="7.29949">
        <ele>630</ele>
        <time>2026-05-13T06:09:52Z</time>
      </trkpt>
      <trkpt lat="48.64601" lon="7.29938">
        <ele>632</ele>
        <time>2026-05-13T06:09:54Z</time>
      </trkpt>
      <trkpt lat="48.64663" lon="7.29914">
        <ele>636</ele>
        <time>2026-05-13T06:10:06Z</time>
      </trkpt>
      <trkpt lat="48.64711" lon="7.29901">
        <ele>633</ele>
        <time>2026-05-13T06:10:14Z</time>
      </trkpt>
      <trkpt lat="48.64718" lon="7.29897">
        <ele>633</ele>
        <time>2026-05-13T06:10:16Z</time>
      </trkpt>
      <trkpt lat="48.64727" lon="7.29889">
        <ele>634</ele>
        <time>2026-05-13T06:10:18Z</time>
      </trkpt>
      <trkpt lat="48.64737" lon="7.29877">
        <ele>635</ele>
        <time>2026-05-13T06:10:20Z</time>
      </trkpt>
      <trkpt lat="48.6475" lon="7.29848">
        <ele>638</ele>
        <time>2026-05-13T06:10:24Z</time>
      </trkpt>
      <trkpt lat="48.64772" lon="7.29792">
        <ele>639</ele>
        <time>2026-05-13T06:10:32Z</time>
      </trkpt>
      <trkpt lat="48.6482" lon="7.29643">
        <ele>648</ele>
        <time>2026-05-13T06:10:51Z</time>
      </trkpt>
      <trkpt lat="48.64833" lon="7.29606">
        <ele>652</ele>
        <time>2026-05-13T06:10:56Z</time>
      </trkpt>
      <trkpt lat="48.64847" lon="7.29578">
        <ele>654</ele>
        <time>2026-05-13T06:11:00Z</time>
      </trkpt>
      <trkpt lat="48.64861" lon="7.29561">
        <ele>653</ele>
        <time>2026-05-13T06:11:03Z</time>
      </trkpt>
      <trkpt lat="48.64875" lon="7.29548">
        <ele>651</ele>
        <time>2026-05-13T06:11:06Z</time>
      </trkpt>
      <trkpt lat="48.64898" lon="7.29534">
        <ele>647</ele>
        <time>2026-05-13T06:11:11Z</time>
      </trkpt>
      <trkpt lat="48.64908" lon="7.29529">
        <ele>645</ele>
        <time>2026-05-13T06:11:13Z</time>
      </trkpt>
      <trkpt lat="48.64965" lon="7.29513">
        <ele>642</ele>
        <time>2026-05-13T06:11:23Z</time>
      </trkpt>
      <trkpt lat="48.65043" lon="7.2949">
        <ele>645</ele>
        <time>2026-05-13T06:11:37Z</time>
      </trkpt>
      <trkpt lat="48.65095" lon="7.29449">
        <ele>653</ele>
        <time>2026-05-13T06:11:48Z</time>
      </trkpt>
      <trkpt lat="48.6511" lon="7.29432">
        <ele>654</ele>
        <time>2026-05-13T06:11:51Z</time>
      </trkpt>
      <trkpt lat="48.65117" lon="7.29419">
        <ele>655</ele>
        <time>2026-05-13T06:11:53Z</time>
      </trkpt>
      <trkpt lat="48.65123" lon="7.29393">
        <ele>656</ele>
        <time>2026-05-13T06:11:56Z</time>
      </trkpt>
      <trkpt lat="48.65126" lon="7.29372">
        <ele>658</ele>
        <time>2026-05-13T06:11:59Z</time>
      </trkpt>
      <trkpt lat="48.65132" lon="7.29336">
        <ele>660</ele>
        <time>2026-05-13T06:12:03Z</time>
      </trkpt>
      <trkpt lat="48.65147" lon="7.29282">
        <ele>663</ele>
        <time>2026-05-13T06:12:10Z</time>
      </trkpt>
      <trkpt lat="48.65171" lon="7.29218">
        <ele>665</ele>
        <time>2026-05-13T06:12:19Z</time>
      </trkpt>
      <trkpt lat="48.65189" lon="7.29177">
        <ele>665</ele>
        <time>2026-05-13T06:12:24Z</time>
      </trkpt>
      <trkpt lat="48.65194" lon="7.2916">
        <ele>666</ele>
        <time>2026-05-13T06:12:27Z</time>
      </trkpt>
      <trkpt lat="48.652" lon="7.2913">
        <ele>666</ele>
        <time>2026-05-13T06:12:30Z</time>
      </trkpt>
      <trkpt lat="48.65201" lon="7.291">
        <ele>667</ele>
        <time>2026-05-13T06:12:34Z</time>
      </trkpt>
      <trkpt lat="48.65197" lon="7.29061">
        <ele>668</ele>
        <time>2026-05-13T06:12:38Z</time>
      </trkpt>
      <trkpt lat="48.65191" lon="7.29023">
        <ele>668</ele>
        <time>2026-05-13T06:12:43Z</time>
      </trkpt>
      <trkpt lat="48.65185" lon="7.29">
        <ele>669</ele>
        <time>2026-05-13T06:12:46Z</time>
      </trkpt>
      <trkpt lat="48.65177" lon="7.28975">
        <ele>669</ele>
        <time>2026-05-13T06:12:49Z</time>
      </trkpt>
      <trkpt lat="48.6516" lon="7.2894">
        <ele>670</ele>
        <time>2026-05-13T06:12:54Z</time>
      </trkpt>
      <trkpt lat="48.65151" lon="7.28924">
        <ele>671</ele>
        <time>2026-05-13T06:12:57Z</time>
      </trkpt>
      <trkpt lat="48.65139" lon="7.28906">
        <ele>671</ele>
        <time>2026-05-13T06:13:00Z</time>
      </trkpt>
      <trkpt lat="48.65124" lon="7.28887">
        <ele>671</ele>
        <time>2026-05-13T06:13:03Z</time>
      </trkpt>
      <trkpt lat="48.65111" lon="7.28877">
        <ele>671</ele>
        <time>2026-05-13T06:13:06Z</time>
      </trkpt>
      <trkpt lat="48.65098" lon="7.28871">
        <ele>671</ele>
        <time>2026-05-13T06:13:08Z</time>
      </trkpt>
      <trkpt lat="48.65091" lon="7.2887">
        <ele>671</ele>
        <time>2026-05-13T06:13:09Z</time>
      </trkpt>
      <trkpt lat="48.64967" lon="7.28887">
        <ele>673</ele>
        <time>2026-05-13T06:13:32Z</time>
      </trkpt>
      <trkpt lat="48.64926" lon="7.28887">
        <ele>672</ele>
        <time>2026-05-13T06:13:39Z</time>
      </trkpt>
      <trkpt lat="48.64902" lon="7.28882">
        <ele>672</ele>
        <time>2026-05-13T06:13:43Z</time>
      </trkpt>
      <trkpt lat="48.64876" lon="7.28871">
        <ele>673</ele>
        <time>2026-05-13T06:13:48Z</time>
      </trkpt>
      <trkpt lat="48.64855" lon="7.28859">
        <ele>673</ele>
        <time>2026-05-13T06:13:52Z</time>
      </trkpt>
      <trkpt lat="48.64835" lon="7.28846">
        <ele>673</ele>
        <time>2026-05-13T06:13:56Z</time>
      </trkpt>
      <trkpt lat="48.64817" lon="7.28831">
        <ele>674</ele>
        <time>2026-05-13T06:14:00Z</time>
      </trkpt>
      <trkpt lat="48.64799" lon="7.28812">
        <ele>675</ele>
        <time>2026-05-13T06:14:03Z</time>
      </trkpt>
      <trkpt lat="48.64788" lon="7.28798">
        <ele>675</ele>
        <time>2026-05-13T06:14:06Z</time>
      </trkpt>
      <trkpt lat="48.64782" lon="7.28788">
        <ele>675</ele>
        <time>2026-05-13T06:14:08Z</time>
      </trkpt>
      <trkpt lat="48.64776" lon="7.28776">
        <ele>675</ele>
        <time>2026-05-13T06:14:09Z</time>
      </trkpt>
      <trkpt lat="48.6477" lon="7.28763">
        <ele>675</ele>
        <time>2026-05-13T06:14:11Z</time>
      </trkpt>
      <trkpt lat="48.64766" lon="7.28751">
        <ele>674</ele>
        <time>2026-05-13T06:14:13Z</time>
      </trkpt>
      <trkpt lat="48.64761" lon="7.28734">
        <ele>673</ele>
        <time>2026-05-13T06:14:15Z</time>
      </trkpt>
      <trkpt lat="48.64757" lon="7.28709">
        <ele>671</ele>
        <time>2026-05-13T06:14:18Z</time>
      </trkpt>
      <trkpt lat="48.64748" lon="7.28623">
        <ele>665</ele>
        <time>2026-05-13T06:14:28Z</time>
      </trkpt>
      <trkpt lat="48.64743" lon="7.28587">
        <ele>665</ele>
        <time>2026-05-13T06:14:33Z</time>
      </trkpt>
      <trkpt lat="48.64721" lon="7.28456">
        <ele>660</ele>
        <time>2026-05-13T06:14:48Z</time>
      </trkpt>
      <trkpt lat="48.64685" lon="7.28288">
        <ele>651</ele>
        <time>2026-05-13T06:15:09Z</time>
      </trkpt>
      <trkpt lat="48.64675" lon="7.28254">
        <ele>647</ele>
        <time>2026-05-13T06:15:14Z</time>
      </trkpt>
      <trkpt lat="48.64641" lon="7.28163">
        <ele>643</ele>
        <time>2026-05-13T06:15:26Z</time>
      </trkpt>
      <trkpt lat="48.64621" lon="7.28094">
        <ele>641</ele>
        <time>2026-05-13T06:15:35Z</time>
      </trkpt>
      <trkpt lat="48.64615" lon="7.28073">
        <ele>641</ele>
        <time>2026-05-13T06:15:37Z</time>
      </trkpt>
      <trkpt lat="48.64613" lon="7.28065">
        <ele>640</ele>
        <time>2026-05-13T06:15:38Z</time>
      </trkpt>
      <trkpt lat="48.6461" lon="7.28046">
        <ele>639</ele>
        <time>2026-05-13T06:15:41Z</time>
      </trkpt>
      <trkpt lat="48.64607" lon="7.28023">
        <ele>638</ele>
        <time>2026-05-13T06:15:43Z</time>
      </trkpt>
      <trkpt lat="48.64606" lon="7.2799">
        <ele>636</ele>
        <time>2026-05-13T06:15:47Z</time>
      </trkpt>
      <trkpt lat="48.64609" lon="7.2793">
        <ele>632</ele>
        <time>2026-05-13T06:15:54Z</time>
      </trkpt>
      <trkpt lat="48.64608" lon="7.27882">
        <ele>630</ele>
        <time>2026-05-13T06:16:00Z</time>
      </trkpt>
      <trkpt lat="48.64597" lon="7.27697">
        <ele>625</ele>
        <time>2026-05-13T06:16:22Z</time>
      </trkpt>
      <trkpt lat="48.64597" lon="7.27667">
        <ele>624</ele>
        <time>2026-05-13T06:16:25Z</time>
      </trkpt>
      <trkpt lat="48.64601" lon="7.27643">
        <ele>622</ele>
        <time>2026-05-13T06:16:28Z</time>
      </trkpt>
      <trkpt lat="48.64617" lon="7.27636">
        <ele>620</ele>
        <time>2026-05-13T06:16:31Z</time>
      </trkpt>
      <trkpt lat="48.64636" lon="7.27625">
        <ele>618</ele>
        <time>2026-05-13T06:16:35Z</time>
      </trkpt>
      <trkpt lat="48.64656" lon="7.27614">
        <ele>615</ele>
        <time>2026-05-13T06:16:39Z</time>
      </trkpt>
      <trkpt lat="48.64677" lon="7.27605">
        <ele>614</ele>
        <time>2026-05-13T06:16:43Z</time>
      </trkpt>
      <trkpt lat="48.64696" lon="7.27605">
        <ele>612</ele>
        <time>2026-05-13T06:16:46Z</time>
      </trkpt>
      <trkpt lat="48.64717" lon="7.27604">
        <ele>611</ele>
        <time>2026-05-13T06:16:50Z</time>
      </trkpt>
      <trkpt lat="48.64736" lon="7.27601">
        <ele>610</ele>
        <time>2026-05-13T06:16:53Z</time>
      </trkpt>
      <trkpt lat="48.64787" lon="7.27582">
        <ele>609</ele>
        <time>2026-05-13T06:17:02Z</time>
      </trkpt>
      <trkpt lat="48.64798" lon="7.27579">
        <ele>608</ele>
        <time>2026-05-13T06:17:04Z</time>
      </trkpt>
      <trkpt lat="48.64858" lon="7.27573">
        <ele>607</ele>
        <time>2026-05-13T06:17:15Z</time>
      </trkpt>
      <trkpt lat="48.64872" lon="7.27572">
        <ele>607</ele>
        <time>2026-05-13T06:17:18Z</time>
      </trkpt>
      <trkpt lat="48.64885" lon="7.27571">
        <ele>607</ele>
        <time>2026-05-13T06:17:20Z</time>
      </trkpt>
      <trkpt lat="48.64914" lon="7.27565">
        <ele>608</ele>
        <time>2026-05-13T06:17:25Z</time>
      </trkpt>
      <trkpt lat="48.64928" lon="7.2756">
        <ele>607</ele>
        <time>2026-05-13T06:17:28Z</time>
      </trkpt>
      <trkpt lat="48.64946" lon="7.2755">
        <ele>607</ele>
        <time>2026-05-13T06:17:31Z</time>
      </trkpt>
      <trkpt lat="48.64957" lon="7.2754">
        <ele>607</ele>
        <time>2026-05-13T06:17:33Z</time>
      </trkpt>
      <trkpt lat="48.6497" lon="7.27526">
        <ele>607</ele>
        <time>2026-05-13T06:17:36Z</time>
      </trkpt>
      <trkpt lat="48.64984" lon="7.27505">
        <ele>608</ele>
        <time>2026-05-13T06:17:40Z</time>
      </trkpt>
      <trkpt lat="48.65002" lon="7.27475">
        <ele>608</ele>
        <time>2026-05-13T06:17:45Z</time>
      </trkpt>
      <trkpt lat="48.65051" lon="7.27378">
        <ele>601</ele>
        <time>2026-05-13T06:17:59Z</time>
      </trkpt>
      <trkpt lat="48.65072" lon="7.27339">
        <ele>597</ele>
        <time>2026-05-13T06:18:05Z</time>
      </trkpt>
      <trkpt lat="48.65093" lon="7.2731">
        <ele>594</ele>
        <time>2026-05-13T06:18:10Z</time>
      </trkpt>
      <trkpt lat="48.65172" lon="7.27218">
        <ele>585</ele>
        <time>2026-05-13T06:18:28Z</time>
      </trkpt>
      <trkpt lat="48.65304" lon="7.27068">
        <ele>569</ele>
        <time>2026-05-13T06:18:57Z</time>
      </trkpt>
      <trkpt lat="48.65313" lon="7.27058">
        <ele>568</ele>
        <time>2026-05-13T06:18:59Z</time>
      </trkpt>
      <trkpt lat="48.65338" lon="7.27023">
        <ele>566</ele>
        <time>2026-05-13T06:19:05Z</time>
      </trkpt>
      <trkpt lat="48.65355" lon="7.27006">
        <ele>565</ele>
        <time>2026-05-13T06:19:09Z</time>
      </trkpt>
      <trkpt lat="48.65367" lon="7.26995">
        <ele>564</ele>
        <time>2026-05-13T06:19:11Z</time>
      </trkpt>
      <trkpt lat="48.65395" lon="7.26977">
        <ele>560</ele>
        <time>2026-05-13T06:19:17Z</time>
      </trkpt>
      <trkpt lat="48.65407" lon="7.26968">
        <ele>559</ele>
        <time>2026-05-13T06:19:19Z</time>
      </trkpt>
      <trkpt lat="48.65417" lon="7.26961">
        <ele>557</ele>
        <time>2026-05-13T06:19:21Z</time>
      </trkpt>
      <trkpt lat="48.65436" lon="7.26941">
        <ele>556</ele>
        <time>2026-05-13T06:19:25Z</time>
      </trkpt>
      <trkpt lat="48.65455" lon="7.26919">
        <ele>555</ele>
        <time>2026-05-13T06:19:29Z</time>
      </trkpt>
      <trkpt lat="48.65462" lon="7.26913">
        <ele>554</ele>
        <time>2026-05-13T06:19:31Z</time>
      </trkpt>
      <trkpt lat="48.65484" lon="7.26898">
        <ele>552</ele>
        <time>2026-05-13T06:19:35Z</time>
      </trkpt>
      <trkpt lat="48.65515" lon="7.26879">
        <ele>551</ele>
        <time>2026-05-13T06:19:41Z</time>
      </trkpt>
      <trkpt lat="48.6553" lon="7.26868">
        <ele>550</ele>
        <time>2026-05-13T06:19:44Z</time>
      </trkpt>
      <trkpt lat="48.65547" lon="7.26851">
        <ele>549</ele>
        <time>2026-05-13T06:19:48Z</time>
      </trkpt>
      <trkpt lat="48.65558" lon="7.26836">
        <ele>549</ele>
        <time>2026-05-13T06:19:50Z</time>
      </trkpt>
      <trkpt lat="48.65577" lon="7.26799">
        <ele>547</ele>
        <time>2026-05-13T06:19:56Z</time>
      </trkpt>
      <trkpt lat="48.65591" lon="7.2678">
        <ele>546</ele>
        <time>2026-05-13T06:19:59Z</time>
      </trkpt>
      <trkpt lat="48.65602" lon="7.26768">
        <ele>545</ele>
        <time>2026-05-13T06:20:01Z</time>
      </trkpt>
      <trkpt lat="48.65611" lon="7.26762">
        <ele>544</ele>
        <time>2026-05-13T06:20:03Z</time>
      </trkpt>
      <trkpt lat="48.65624" lon="7.26756">
        <ele>542</ele>
        <time>2026-05-13T06:20:06Z</time>
      </trkpt>
      <trkpt lat="48.6564" lon="7.2675">
        <ele>541</ele>
        <time>2026-05-13T06:20:09Z</time>
      </trkpt>
      <trkpt lat="48.65652" lon="7.26744">
        <ele>539</ele>
        <time>2026-05-13T06:20:11Z</time>
      </trkpt>
      <trkpt lat="48.65662" lon="7.26737">
        <ele>539</ele>
        <time>2026-05-13T06:20:13Z</time>
      </trkpt>
      <trkpt lat="48.65669" lon="7.26731">
        <ele>538</ele>
        <time>2026-05-13T06:20:14Z</time>
      </trkpt>
      <trkpt lat="48.657" lon="7.26692">
        <ele>535</ele>
        <time>2026-05-13T06:20:21Z</time>
      </trkpt>
      <trkpt lat="48.6571" lon="7.26679">
        <ele>534</ele>
        <time>2026-05-13T06:20:24Z</time>
      </trkpt>
      <trkpt lat="48.65845" lon="7.26497">
        <ele>516</ele>
        <time>2026-05-13T06:20:56Z</time>
      </trkpt>
      <trkpt lat="48.6587" lon="7.26463">
        <ele>515</ele>
        <time>2026-05-13T06:21:02Z</time>
      </trkpt>
      <trkpt lat="48.65919" lon="7.26402">
        <ele>516</ele>
        <time>2026-05-13T06:21:13Z</time>
      </trkpt>
      <trkpt lat="48.65964" lon="7.26332">
        <ele>523</ele>
        <time>2026-05-13T06:21:25Z</time>
      </trkpt>
      <trkpt lat="48.65976" lon="7.26317">
        <ele>524</ele>
        <time>2026-05-13T06:21:27Z</time>
      </trkpt>
      <trkpt lat="48.65989" lon="7.26304">
        <ele>524</ele>
        <time>2026-05-13T06:21:30Z</time>
      </trkpt>
      <trkpt lat="48.66047" lon="7.26257">
        <ele>526</ele>
        <time>2026-05-13T06:21:42Z</time>
      </trkpt>
      <trkpt lat="48.66081" lon="7.26234">
        <ele>528</ele>
        <time>2026-05-13T06:21:48Z</time>
      </trkpt>
      <trkpt lat="48.66103" lon="7.26218">
        <ele>528</ele>
        <time>2026-05-13T06:21:53Z</time>
      </trkpt>
      <trkpt lat="48.66125" lon="7.26206">
        <ele>528</ele>
        <time>2026-05-13T06:21:57Z</time>
      </trkpt>
      <trkpt lat="48.66144" lon="7.26198">
        <ele>528</ele>
        <time>2026-05-13T06:22:00Z</time>
      </trkpt>
      <trkpt lat="48.66164" lon="7.26193">
        <ele>528</ele>
        <time>2026-05-13T06:22:04Z</time>
      </trkpt>
      <trkpt lat="48.66184" lon="7.26191">
        <ele>528</ele>
        <time>2026-05-13T06:22:08Z</time>
      </trkpt>
      <trkpt lat="48.662" lon="7.26191">
        <ele>528</ele>
        <time>2026-05-13T06:22:11Z</time>
      </trkpt>
      <trkpt lat="48.6622" lon="7.26194">
        <ele>528</ele>
        <time>2026-05-13T06:22:14Z</time>
      </trkpt>
      <trkpt lat="48.66247" lon="7.26203">
        <ele>530</ele>
        <time>2026-05-13T06:22:19Z</time>
      </trkpt>
      <trkpt lat="48.66305" lon="7.26218">
        <ele>529</ele>
        <time>2026-05-13T06:22:29Z</time>
      </trkpt>
      <trkpt lat="48.66327" lon="7.26219">
        <ele>528</ele>
        <time>2026-05-13T06:22:33Z</time>
      </trkpt>
      <trkpt lat="48.66356" lon="7.26215">
        <ele>528</ele>
        <time>2026-05-13T06:22:39Z</time>
      </trkpt>
      <trkpt lat="48.66375" lon="7.26208">
        <ele>527</ele>
        <time>2026-05-13T06:22:42Z</time>
      </trkpt>
      <trkpt lat="48.66392" lon="7.26198">
        <ele>526</ele>
        <time>2026-05-13T06:22:45Z</time>
      </trkpt>
      <trkpt lat="48.66408" lon="7.26184">
        <ele>524</ele>
        <time>2026-05-13T06:22:49Z</time>
      </trkpt>
      <trkpt lat="48.66437" lon="7.26147">
        <ele>520</ele>
        <time>2026-05-13T06:22:55Z</time>
      </trkpt>
      <trkpt lat="48.66542" lon="7.2601">
        <ele>510</ele>
        <time>2026-05-13T06:23:20Z</time>
      </trkpt>
      <trkpt lat="48.66581" lon="7.25964">
        <ele>507</ele>
        <time>2026-05-13T06:23:29Z</time>
      </trkpt>
      <trkpt lat="48.66599" lon="7.25948">
        <ele>506</ele>
        <time>2026-05-13T06:23:33Z</time>
      </trkpt>
      <trkpt lat="48.66623" lon="7.25934">
        <ele>506</ele>
        <time>2026-05-13T06:23:37Z</time>
      </trkpt>
      <trkpt lat="48.66646" lon="7.25924">
        <ele>507</ele>
        <time>2026-05-13T06:23:41Z</time>
      </trkpt>
      <trkpt lat="48.66666" lon="7.25918">
        <ele>507</ele>
        <time>2026-05-13T06:23:45Z</time>
      </trkpt>
      <trkpt lat="48.66684" lon="7.25915">
        <ele>507</ele>
        <time>2026-05-13T06:23:48Z</time>
      </trkpt>
      <trkpt lat="48.66702" lon="7.25917">
        <ele>507</ele>
        <time>2026-05-13T06:23:51Z</time>
      </trkpt>
      <trkpt lat="48.66756" lon="7.25928">
        <ele>510</ele>
        <time>2026-05-13T06:24:01Z</time>
      </trkpt>
      <trkpt lat="48.6679" lon="7.2593">
        <ele>509</ele>
        <time>2026-05-13T06:24:07Z</time>
      </trkpt>
      <trkpt lat="48.66822" lon="7.25927">
        <ele>506</ele>
        <time>2026-05-13T06:24:13Z</time>
      </trkpt>
      <trkpt lat="48.66846" lon="7.25917">
        <ele>504</ele>
        <time>2026-05-13T06:24:17Z</time>
      </trkpt>
      <trkpt lat="48.66863" lon="7.25903">
        <ele>504</ele>
        <time>2026-05-13T06:24:21Z</time>
      </trkpt>
      <trkpt lat="48.66874" lon="7.2589">
        <ele>504</ele>
        <time>2026-05-13T06:24:23Z</time>
      </trkpt>
      <trkpt lat="48.66889" lon="7.25866">
        <ele>503</ele>
        <time>2026-05-13T06:24:27Z</time>
      </trkpt>
      <trkpt lat="48.6692" lon="7.25805">
        <ele>498</ele>
        <time>2026-05-13T06:24:36Z</time>
      </trkpt>
      <trkpt lat="48.67014" lon="7.25631">
        <ele>497</ele>
        <time>2026-05-13T06:25:03Z</time>
      </trkpt>
      <trkpt lat="48.67082" lon="7.25531">
        <ele>497</ele>
        <time>2026-05-13T06:25:19Z</time>
      </trkpt>
      <trkpt lat="48.6716" lon="7.25424">
        <ele>496</ele>
        <time>2026-05-13T06:25:38Z</time>
      </trkpt>
      <trkpt lat="48.67236" lon="7.25317">
        <ele>491</ele>
        <time>2026-05-13T06:25:57Z</time>
      </trkpt>
      <trkpt lat="48.67271" lon="7.2527">
        <ele>488</ele>
        <time>2026-05-13T06:26:05Z</time>
      </trkpt>
      <trkpt lat="48.67303" lon="7.2523">
        <ele>484</ele>
        <time>2026-05-13T06:26:12Z</time>
      </trkpt>
      <trkpt lat="48.67334" lon="7.25192">
        <ele>481</ele>
        <time>2026-05-13T06:26:19Z</time>
      </trkpt>
      <trkpt lat="48.67373" lon="7.25149">
        <ele>478</ele>
        <time>2026-05-13T06:26:28Z</time>
      </trkpt>
      <trkpt lat="48.67419" lon="7.25101">
        <ele>478</ele>
        <time>2026-05-13T06:26:38Z</time>
      </trkpt>
      <trkpt lat="48.67476" lon="7.25047">
        <ele>476</ele>
        <time>2026-05-13T06:26:50Z</time>
      </trkpt>
      <trkpt lat="48.67511" lon="7.2501">
        <ele>475</ele>
        <time>2026-05-13T06:26:57Z</time>
      </trkpt>
      <trkpt lat="48.67525" lon="7.2499">
        <ele>474</ele>
        <time>2026-05-13T06:27:01Z</time>
      </trkpt>
      <trkpt lat="48.67536" lon="7.24968">
        <ele>473</ele>
        <time>2026-05-13T06:27:04Z</time>
      </trkpt>
      <trkpt lat="48.67546" lon="7.24933">
        <ele>474</ele>
        <time>2026-05-13T06:27:09Z</time>
      </trkpt>
      <trkpt lat="48.67549" lon="7.24913">
        <ele>474</ele>
        <time>2026-05-13T06:27:11Z</time>
      </trkpt>
      <trkpt lat="48.6755" lon="7.2489">
        <ele>476</ele>
        <time>2026-05-13T06:27:14Z</time>
      </trkpt>
      <trkpt lat="48.6755" lon="7.24864">
        <ele>477</ele>
        <time>2026-05-13T06:27:17Z</time>
      </trkpt>
      <trkpt lat="48.67542" lon="7.24781">
        <ele>478</ele>
        <time>2026-05-13T06:27:27Z</time>
      </trkpt>
      <trkpt lat="48.67542" lon="7.24747">
        <ele>478</ele>
        <time>2026-05-13T06:27:31Z</time>
      </trkpt>
      <trkpt lat="48.67542" lon="7.24721">
        <ele>477</ele>
        <time>2026-05-13T06:27:34Z</time>
      </trkpt>
      <trkpt lat="48.67547" lon="7.2468">
        <ele>478</ele>
        <time>2026-05-13T06:27:39Z</time>
      </trkpt>
      <trkpt lat="48.67556" lon="7.24637">
        <ele>480</ele>
        <time>2026-05-13T06:27:44Z</time>
      </trkpt>
      <trkpt lat="48.67572" lon="7.24585">
        <ele>483</ele>
        <time>2026-05-13T06:27:51Z</time>
      </trkpt>
      <trkpt lat="48.67594" lon="7.24527">
        <ele>481</ele>
        <time>2026-05-13T06:27:59Z</time>
      </trkpt>
      <trkpt lat="48.6762" lon="7.24473">
        <ele>481</ele>
        <time>2026-05-13T06:28:06Z</time>
      </trkpt>
      <trkpt lat="48.67669" lon="7.24377">
        <ele>480</ele>
        <time>2026-05-13T06:28:21Z</time>
      </trkpt>
      <trkpt lat="48.67685" lon="7.24339">
        <ele>479</ele>
        <time>2026-05-13T06:28:26Z</time>
      </trkpt>
      <trkpt lat="48.67698" lon="7.24305">
        <ele>480</ele>
        <time>2026-05-13T06:28:31Z</time>
      </trkpt>
      <trkpt lat="48.67736" lon="7.24196">
        <ele>479</ele>
        <time>2026-05-13T06:28:45Z</time>
      </trkpt>
      <trkpt lat="48.67739" lon="7.24186">
        <ele>478</ele>
        <time>2026-05-13T06:28:46Z</time>
      </trkpt>
      <trkpt lat="48.67755" lon="7.24118">
        <ele>479</ele>
        <time>2026-05-13T06:28:55Z</time>
      </trkpt>
      <trkpt lat="48.67768" lon="7.24041">
        <ele>479</ele>
        <time>2026-05-13T06:29:04Z</time>
      </trkpt>
      <trkpt lat="48.67784" lon="7.23962">
        <ele>480</ele>
        <time>2026-05-13T06:29:14Z</time>
      </trkpt>
      <trkpt lat="48.67792" lon="7.23936">
        <ele>481</ele>
        <time>2026-05-13T06:29:17Z</time>
      </trkpt>
      <trkpt lat="48.67803" lon="7.23913">
        <ele>484</ele>
        <time>2026-05-13T06:29:21Z</time>
      </trkpt>
      <trkpt lat="48.67828" lon="7.23868">
        <ele>489</ele>
        <time>2026-05-13T06:29:27Z</time>
      </trkpt>
      <trkpt lat="48.67835" lon="7.23851">
        <ele>490</ele>
        <time>2026-05-13T06:29:30Z</time>
      </trkpt>
      <trkpt lat="48.67841" lon="7.23829">
        <ele>490</ele>
        <time>2026-05-13T06:29:33Z</time>
      </trkpt>
      <trkpt lat="48.67843" lon="7.23803">
        <ele>490</ele>
        <time>2026-05-13T06:29:36Z</time>
      </trkpt>
      <trkpt lat="48.6784" lon="7.23724">
        <ele>490</ele>
        <time>2026-05-13T06:29:45Z</time>
      </trkpt>
      <trkpt lat="48.67841" lon="7.23702">
        <ele>490</ele>
        <time>2026-05-13T06:29:48Z</time>
      </trkpt>
      <trkpt lat="48.6785" lon="7.23624">
        <ele>490</ele>
        <time>2026-05-13T06:29:57Z</time>
      </trkpt>
      <trkpt lat="48.67852" lon="7.23591">
        <ele>489</ele>
        <time>2026-05-13T06:30:01Z</time>
      </trkpt>
      <trkpt lat="48.67851" lon="7.23469">
        <ele>489</ele>
        <time>2026-05-13T06:30:15Z</time>
      </trkpt>
      <trkpt lat="48.67854" lon="7.23424">
        <ele>489</ele>
        <time>2026-05-13T06:30:20Z</time>
      </trkpt>
      <trkpt lat="48.6786" lon="7.23384">
        <ele>489</ele>
        <time>2026-05-13T06:30:25Z</time>
      </trkpt>
      <trkpt lat="48.67866" lon="7.2335">
        <ele>488</ele>
        <time>2026-05-13T06:30:29Z</time>
      </trkpt>
      <trkpt lat="48.67881" lon="7.233">
        <ele>487</ele>
        <time>2026-05-13T06:30:36Z</time>
      </trkpt>
      <trkpt lat="48.67916" lon="7.2318">
        <ele>486</ele>
        <time>2026-05-13T06:30:51Z</time>
      </trkpt>
      <trkpt lat="48.67927" lon="7.23154">
        <ele>485</ele>
        <time>2026-05-13T06:30:55Z</time>
      </trkpt>
      <trkpt lat="48.67936" lon="7.23135">
        <ele>485</ele>
        <time>2026-05-13T06:30:58Z</time>
      </trkpt>
      <trkpt lat="48.67976" lon="7.23082">
        <ele>483</ele>
        <time>2026-05-13T06:31:07Z</time>
      </trkpt>
      <trkpt lat="48.68019" lon="7.23034">
        <ele>479</ele>
        <time>2026-05-13T06:31:17Z</time>
      </trkpt>
      <trkpt lat="48.68033" lon="7.23017">
        <ele>478</ele>
        <time>2026-05-13T06:31:20Z</time>
      </trkpt>
      <trkpt lat="48.68074" lon="7.22981">
        <ele>476</ele>
        <time>2026-05-13T06:31:28Z</time>
      </trkpt>
      <trkpt lat="48.68122" lon="7.22921">
        <ele>471</ele>
        <time>2026-05-13T06:31:39Z</time>
      </trkpt>
      <trkpt lat="48.68136" lon="7.22898">
        <ele>469</ele>
        <time>2026-05-13T06:31:43Z</time>
      </trkpt>
      <trkpt lat="48.68165" lon="7.22837">
        <ele>464</ele>
        <time>2026-05-13T06:31:52Z</time>
      </trkpt>
      <trkpt lat="48.68237" lon="7.22678">
        <ele>458</ele>
        <time>2026-05-13T06:32:14Z</time>
      </trkpt>
      <trkpt lat="48.68248" lon="7.2264">
        <ele>457</ele>
        <time>2026-05-13T06:32:19Z</time>
      </trkpt>
      <trkpt lat="48.68275" lon="7.22509">
        <ele>447</ele>
        <time>2026-05-13T06:32:35Z</time>
      </trkpt>
      <trkpt lat="48.68288" lon="7.22438">
        <ele>441</ele>
        <time>2026-05-13T06:32:44Z</time>
      </trkpt>
      <trkpt lat="48.68294" lon="7.22395">
        <ele>438</ele>
        <time>2026-05-13T06:32:49Z</time>
      </trkpt>
      <trkpt lat="48.68297" lon="7.22305">
        <ele>434</ele>
        <time>2026-05-13T06:33:00Z</time>
      </trkpt>
      <trkpt lat="48.683" lon="7.22286">
        <ele>434</ele>
        <time>2026-05-13T06:33:02Z</time>
      </trkpt>
      <trkpt lat="48.68305" lon="7.22267">
        <ele>435</ele>
        <time>2026-05-13T06:33:05Z</time>
      </trkpt>
      <trkpt lat="48.68349" lon="7.22139">
        <ele>439</ele>
        <time>2026-05-13T06:33:21Z</time>
      </trkpt>
      <trkpt lat="48.68356" lon="7.22121">
        <ele>439</ele>
        <time>2026-05-13T06:33:24Z</time>
      </trkpt>
      <trkpt lat="48.68371" lon="7.22087">
        <ele>439</ele>
        <time>2026-05-13T06:33:29Z</time>
      </trkpt>
      <trkpt lat="48.68391" lon="7.22047">
        <ele>439</ele>
        <time>2026-05-13T06:33:35Z</time>
      </trkpt>
      <trkpt lat="48.6842" lon="7.21995">
        <ele>441</ele>
        <time>2026-05-13T06:33:43Z</time>
      </trkpt>
      <trkpt lat="48.68444" lon="7.21961">
        <ele>442</ele>
        <time>2026-05-13T06:33:48Z</time>
      </trkpt>
      <trkpt lat="48.68479" lon="7.21923">
        <ele>441</ele>
        <time>2026-05-13T06:33:56Z</time>
      </trkpt>
      <trkpt lat="48.68499" lon="7.21891">
        <ele>440</ele>
        <time>2026-05-13T06:34:01Z</time>
      </trkpt>
      <trkpt lat="48.68522" lon="7.21841">
        <ele>440</ele>
        <time>2026-05-13T06:34:08Z</time>
      </trkpt>
      <trkpt lat="48.68535" lon="7.21806">
        <ele>440</ele>
        <time>2026-05-13T06:34:13Z</time>
      </trkpt>
      <trkpt lat="48.68545" lon="7.21769">
        <ele>440</ele>
        <time>2026-05-13T06:34:18Z</time>
      </trkpt>
      <trkpt lat="48.68562" lon="7.21692">
        <ele>440</ele>
        <time>2026-05-13T06:34:27Z</time>
      </trkpt>
      <trkpt lat="48.6857" lon="7.21658">
        <ele>439</ele>
        <time>2026-05-13T06:34:32Z</time>
      </trkpt>
      <trkpt lat="48.68586" lon="7.21593">
        <ele>435</ele>
        <time>2026-05-13T06:34:40Z</time>
      </trkpt>
      <trkpt lat="48.68593" lon="7.21556">
        <ele>433</ele>
        <time>2026-05-13T06:34:44Z</time>
      </trkpt>
      <trkpt lat="48.68603" lon="7.21492">
        <ele>428</ele>
        <time>2026-05-13T06:34:52Z</time>
      </trkpt>
      <trkpt lat="48.68607" lon="7.21474">
        <ele>427</ele>
        <time>2026-05-13T06:34:54Z</time>
      </trkpt>
      <trkpt lat="48.68612" lon="7.21456">
        <ele>425</ele>
        <time>2026-05-13T06:34:57Z</time>
      </trkpt>
      <trkpt lat="48.68628" lon="7.21428">
        <ele>423</ele>
        <time>2026-05-13T06:35:01Z</time>
      </trkpt>
      <trkpt lat="48.68657" lon="7.21395">
        <ele>420</ele>
        <time>2026-05-13T06:35:07Z</time>
      </trkpt>
      <trkpt lat="48.68671" lon="7.21376">
        <ele>419</ele>
        <time>2026-05-13T06:35:11Z</time>
      </trkpt>
      <trkpt lat="48.68683" lon="7.21353">
        <ele>418</ele>
        <time>2026-05-13T06:35:14Z</time>
      </trkpt>
      <trkpt lat="48.68696" lon="7.21326">
        <ele>418</ele>
        <time>2026-05-13T06:35:18Z</time>
      </trkpt>
      <trkpt lat="48.68712" lon="7.21282">
        <ele>418</ele>
        <time>2026-05-13T06:35:24Z</time>
      </trkpt>
      <trkpt lat="48.68735" lon="7.21201">
        <ele>418</ele>
        <time>2026-05-13T06:35:34Z</time>
      </trkpt>
      <trkpt lat="48.68746" lon="7.21075">
        <ele>417</ele>
        <time>2026-05-13T06:35:49Z</time>
      </trkpt>
      <trkpt lat="48.68744" lon="7.21038">
        <ele>416</ele>
        <time>2026-05-13T06:35:54Z</time>
      </trkpt>
      <trkpt lat="48.68697" lon="7.20822">
        <ele>407</ele>
        <time>2026-05-13T06:36:20Z</time>
      </trkpt>
      <trkpt lat="48.68681" lon="7.20754">
        <ele>405</ele>
        <time>2026-05-13T06:36:29Z</time>
      </trkpt>
      <trkpt lat="48.68661" lon="7.20686">
        <ele>402</ele>
        <time>2026-05-13T06:36:38Z</time>
      </trkpt>
      <trkpt lat="48.68652" lon="7.20654">
        <ele>400</ele>
        <time>2026-05-13T06:36:42Z</time>
      </trkpt>
      <trkpt lat="48.6864" lon="7.20619">
        <ele>399</ele>
        <time>2026-05-13T06:36:46Z</time>
      </trkpt>
      <trkpt lat="48.68635" lon="7.20607">
        <ele>398</ele>
        <time>2026-05-13T06:36:48Z</time>
      </trkpt>
      <trkpt lat="48.6863" lon="7.20597">
        <ele>398</ele>
        <time>2026-05-13T06:36:49Z</time>
      </trkpt>
      <trkpt lat="48.68611" lon="7.20566">
        <ele>397</ele>
        <time>2026-05-13T06:36:54Z</time>
      </trkpt>
      <trkpt lat="48.68606" lon="7.20554">
        <ele>396</ele>
        <time>2026-05-13T06:36:56Z</time>
      </trkpt>
      <trkpt lat="48.68605" lon="7.20545">
        <ele>395</ele>
        <time>2026-05-13T06:36:57Z</time>
      </trkpt>
      <trkpt lat="48.68607" lon="7.2054">
        <ele>395</ele>
        <time>2026-05-13T06:36:58Z</time>
      </trkpt>
      <trkpt lat="48.6861" lon="7.20535">
        <ele>394</ele>
        <time>2026-05-13T06:36:59Z</time>
      </trkpt>
      <trkpt lat="48.68619" lon="7.20529">
        <ele>394</ele>
        <time>2026-05-13T06:37:00Z</time>
      </trkpt>
      <trkpt lat="48.68633" lon="7.20522">
        <ele>392</ele>
        <time>2026-05-13T06:37:03Z</time>
      </trkpt>
      <trkpt lat="48.68649" lon="7.20517">
        <ele>391</ele>
        <time>2026-05-13T06:37:06Z</time>
      </trkpt>
      <trkpt lat="48.68664" lon="7.20516">
        <ele>390</ele>
        <time>2026-05-13T06:37:09Z</time>
      </trkpt>
      <trkpt lat="48.68678" lon="7.20516">
        <ele>389</ele>
        <time>2026-05-13T06:37:11Z</time>
      </trkpt>
      <trkpt lat="48.68821" lon="7.20549">
        <ele>382</ele>
        <time>2026-05-13T06:37:37Z</time>
      </trkpt>
      <trkpt lat="48.68906" lon="7.20574">
        <ele>374</ele>
        <time>2026-05-13T06:37:52Z</time>
      </trkpt>
      <trkpt lat="48.69051" lon="7.20621">
        <ele>363</ele>
        <time>2026-05-13T06:38:19Z</time>
      </trkpt>
      <trkpt lat="48.69073" lon="7.20633">
        <ele>362</ele>
        <time>2026-05-13T06:38:23Z</time>
      </trkpt>
      <trkpt lat="48.69088" lon="7.20653">
        <ele>363</ele>
        <time>2026-05-13T06:38:26Z</time>
      </trkpt>
      <trkpt lat="48.691" lon="7.20681">
        <ele>363</ele>
        <time>2026-05-13T06:38:30Z</time>
      </trkpt>
      <trkpt lat="48.69105" lon="7.20709">
        <ele>362</ele>
        <time>2026-05-13T06:38:34Z</time>
      </trkpt>
      <trkpt lat="48.69106" lon="7.20795">
        <ele>362</ele>
        <time>2026-05-13T06:38:44Z</time>
      </trkpt>
      <trkpt lat="48.69108" lon="7.20816">
        <ele>362</ele>
        <time>2026-05-13T06:38:46Z</time>
      </trkpt>
      <trkpt lat="48.69115" lon="7.20857">
        <ele>359</ele>
        <time>2026-05-13T06:38:51Z</time>
      </trkpt>
      <trkpt lat="48.69133" lon="7.20925">
        <ele>354</ele>
        <time>2026-05-13T06:39:00Z</time>
      </trkpt>
      <trkpt lat="48.69152" lon="7.20995">
        <ele>353</ele>
        <time>2026-05-13T06:39:09Z</time>
      </trkpt>
      <trkpt lat="48.69173" lon="7.21052">
        <ele>353</ele>
        <time>2026-05-13T06:39:16Z</time>
      </trkpt>
      <trkpt lat="48.69195" lon="7.21076">
        <ele>352</ele>
        <time>2026-05-13T06:39:21Z</time>
      </trkpt>
      <trkpt lat="48.69216" lon="7.21089">
        <ele>351</ele>
        <time>2026-05-13T06:39:25Z</time>
      </trkpt>
      <trkpt lat="48.69232" lon="7.21094">
        <ele>350</ele>
        <time>2026-05-13T06:39:28Z</time>
      </trkpt>
      <trkpt lat="48.69247" lon="7.21094">
        <ele>348</ele>
        <time>2026-05-13T06:39:31Z</time>
      </trkpt>
      <trkpt lat="48.69279" lon="7.21071">
        <ele>345</ele>
        <time>2026-05-13T06:39:37Z</time>
      </trkpt>
      <trkpt lat="48.69309" lon="7.21047">
        <ele>342</ele>
        <time>2026-05-13T06:39:43Z</time>
      </trkpt>
      <trkpt lat="48.69368" lon="7.20965">
        <ele>330</ele>
        <time>2026-05-13T06:39:57Z</time>
      </trkpt>
      <trkpt lat="48.69474" lon="7.20877">
        <ele>324</ele>
        <time>2026-05-13T06:40:19Z</time>
      </trkpt>
      <trkpt lat="48.69503" lon="7.20856">
        <ele>322</ele>
        <time>2026-05-13T06:40:25Z</time>
      </trkpt>
      <trkpt lat="48.69528" lon="7.20843">
        <ele>318</ele>
        <time>2026-05-13T06:40:29Z</time>
      </trkpt>
      <trkpt lat="48.69558" lon="7.20835">
        <ele>315</ele>
        <time>2026-05-13T06:40:35Z</time>
      </trkpt>
      <trkpt lat="48.69583" lon="7.2083">
        <ele>313</ele>
        <time>2026-05-13T06:40:39Z</time>
      </trkpt>
      <trkpt lat="48.69605" lon="7.20833">
        <ele>310</ele>
        <time>2026-05-13T06:40:43Z</time>
      </trkpt>
      <trkpt lat="48.69653" lon="7.20849">
        <ele>306</ele>
        <time>2026-05-13T06:40:52Z</time>
      </trkpt>
      <trkpt lat="48.69661" lon="7.20854">
        <ele>306</ele>
        <time>2026-05-13T06:40:53Z</time>
      </trkpt>
      <trkpt lat="48.69705" lon="7.20884">
        <ele>305</ele>
        <time>2026-05-13T06:41:02Z</time>
      </trkpt>
      <trkpt lat="48.69748" lon="7.2092">
        <ele>304</ele>
        <time>2026-05-13T06:41:11Z</time>
      </trkpt>
      <trkpt lat="48.69776" lon="7.20949">
        <ele>301</ele>
        <time>2026-05-13T06:41:17Z</time>
      </trkpt>
      <trkpt lat="48.69895" lon="7.2109">
        <ele>294</ele>
        <time>2026-05-13T06:41:44Z</time>
      </trkpt>
      <trkpt lat="48.69942" lon="7.21136">
        <ele>291</ele>
        <time>2026-05-13T06:41:54Z</time>
      </trkpt>
      <trkpt lat="48.70164" lon="7.21328">
        <ele>270</ele>
        <time>2026-05-13T06:42:39Z</time>
      </trkpt>
      <trkpt lat="48.70263" lon="7.2141">
        <ele>255</ele>
        <time>2026-05-13T06:42:59Z</time>
      </trkpt>
      <trkpt lat="48.70286" lon="7.21446">
        <ele>250</ele>
        <time>2026-05-13T06:43:05Z</time>
      </trkpt>
      <trkpt lat="48.703" lon="7.21472">
        <ele>247</ele>
        <time>2026-05-13T06:43:09Z</time>
      </trkpt>
      <trkpt lat="48.70306" lon="7.21474">
        <ele>244</ele>
        <time>2026-05-13T06:43:10Z</time>
      </trkpt>
      <trkpt lat="48.70319" lon="7.21474">
        <ele>240</ele>
        <time>2026-05-13T06:43:12Z</time>
      </trkpt>
      <trkpt lat="48.70328" lon="7.21462">
        <ele>236</ele>
        <time>2026-05-13T06:43:15Z</time>
      </trkpt>
      <trkpt lat="48.70337" lon="7.21448">
        <ele>234</ele>
        <time>2026-05-13T06:43:17Z</time>
      </trkpt>
      <trkpt lat="48.70295" lon="7.21407">
        <ele>245</ele>
        <time>2026-05-13T06:43:26Z</time>
      </trkpt>
      <trkpt lat="48.70202" lon="7.21254">
        <ele>243</ele>
        <time>2026-05-13T06:43:50Z</time>
      </trkpt>
      <trkpt lat="48.70166" lon="7.2121">
        <ele>240</ele>
        <time>2026-05-13T06:43:58Z</time>
      </trkpt>
      <trkpt lat="48.70202" lon="7.21254">
        <ele>243</ele>
        <time>2026-05-13T06:44:07Z</time>
      </trkpt>
      <trkpt lat="48.70295" lon="7.21407">
        <ele>245</ele>
        <time>2026-05-13T06:44:31Z</time>
      </trkpt>
      <trkpt lat="48.70337" lon="7.21448">
        <ele>234</ele>
        <time>2026-05-13T06:44:40Z</time>
      </trkpt>
      <trkpt lat="48.70383" lon="7.21471">
        <ele>233</ele>
        <time>2026-05-13T06:44:49Z</time>
      </trkpt>
      <trkpt lat="48.70436" lon="7.21489">
        <ele>233</ele>
        <time>2026-05-13T06:44:58Z</time>
      </trkpt>
      <trkpt lat="48.70443" lon="7.2149">
        <ele>234</ele>
        <time>2026-05-13T06:44:59Z</time>
      </trkpt>
      <trkpt lat="48.70467" lon="7.21491">
        <ele>234</ele>
        <time>2026-05-13T06:45:04Z</time>
      </trkpt>
      <trkpt lat="48.70512" lon="7.21487">
        <ele>236</ele>
        <time>2026-05-13T06:45:12Z</time>
      </trkpt>
      <trkpt lat="48.70539" lon="7.2149">
        <ele>236</ele>
        <time>2026-05-13T06:45:17Z</time>
      </trkpt>
      <trkpt lat="48.70619" lon="7.21502">
        <ele>236</ele>
        <time>2026-05-13T06:45:31Z</time>
      </trkpt>
      <trkpt lat="48.70628" lon="7.21504">
        <ele>237</ele>
        <time>2026-05-13T06:45:32Z</time>
      </trkpt>
      <trkpt lat="48.70685" lon="7.21518">
        <ele>240</ele>
        <time>2026-05-13T06:45:43Z</time>
      </trkpt>
      <trkpt lat="48.70725" lon="7.21535">
        <ele>240</ele>
        <time>2026-05-13T06:45:50Z</time>
      </trkpt>
      <trkpt lat="48.70758" lon="7.21545">
        <ele>239</ele>
        <time>2026-05-13T06:45:56Z</time>
      </trkpt>
      <trkpt lat="48.7079" lon="7.21557">
        <ele>237</ele>
        <time>2026-05-13T06:46:02Z</time>
      </trkpt>
      <trkpt lat="48.70838" lon="7.21583">
        <ele>236</ele>
        <time>2026-05-13T06:46:11Z</time>
      </trkpt>
      <trkpt lat="48.70868" lon="7.21601">
        <ele>238</ele>
        <time>2026-05-13T06:46:17Z</time>
      </trkpt>
      <trkpt lat="48.70891" lon="7.21616">
        <ele>240</ele>
        <time>2026-05-13T06:46:21Z</time>
      </trkpt>
      <trkpt lat="48.70953" lon="7.21659">
        <ele>247</ele>
        <time>2026-05-13T06:46:33Z</time>
      </trkpt>
      <trkpt lat="48.71026" lon="7.21689">
        <ele>247</ele>
        <time>2026-05-13T06:46:47Z</time>
      </trkpt>
      <trkpt lat="48.71095" lon="7.21718">
        <ele>247</ele>
        <time>2026-05-13T06:47:00Z</time>
      </trkpt>
      <trkpt lat="48.71109" lon="7.21722">
        <ele>246</ele>
        <time>2026-05-13T06:47:02Z</time>
      </trkpt>
      <trkpt lat="48.71204" lon="7.21755">
        <ele>241</ele>
        <time>2026-05-13T06:47:19Z</time>
      </trkpt>
      <trkpt lat="48.71229" lon="7.21766">
        <ele>239</ele>
        <time>2026-05-13T06:47:24Z</time>
      </trkpt>
      <trkpt lat="48.71245" lon="7.21775">
        <ele>239</ele>
        <time>2026-05-13T06:47:27Z</time>
      </trkpt>
      <trkpt lat="48.71295" lon="7.2181">
        <ele>237</ele>
        <time>2026-05-13T06:47:37Z</time>
      </trkpt>
      <trkpt lat="48.71347" lon="7.21849">
        <ele>232</ele>
        <time>2026-05-13T06:47:47Z</time>
      </trkpt>
      <trkpt lat="48.71355" lon="7.21859">
        <ele>232</ele>
        <time>2026-05-13T06:47:49Z</time>
      </trkpt>
      <trkpt lat="48.71366" lon="7.21875">
        <ele>231</ele>
        <time>2026-05-13T06:47:52Z</time>
      </trkpt>
      <trkpt lat="48.71374" lon="7.21892">
        <ele>231</ele>
        <time>2026-05-13T06:47:54Z</time>
      </trkpt>
      <trkpt lat="48.71422" lon="7.22003">
        <ele>233</ele>
        <time>2026-05-13T06:48:10Z</time>
      </trkpt>
      <trkpt lat="48.71434" lon="7.22027">
        <ele>234</ele>
        <time>2026-05-13T06:48:13Z</time>
      </trkpt>
      <trkpt lat="48.7145" lon="7.22051">
        <ele>234</ele>
        <time>2026-05-13T06:48:17Z</time>
      </trkpt>
      <trkpt lat="48.71471" lon="7.22074">
        <ele>233</ele>
        <time>2026-05-13T06:48:22Z</time>
      </trkpt>
      <trkpt lat="48.71484" lon="7.22082">
        <ele>232</ele>
        <time>2026-05-13T06:48:25Z</time>
      </trkpt>
      <trkpt lat="48.71495" lon="7.22089">
        <ele>232</ele>
        <time>2026-05-13T06:48:27Z</time>
      </trkpt>
      <trkpt lat="48.71564" lon="7.22113">
        <ele>231</ele>
        <time>2026-05-13T06:48:39Z</time>
      </trkpt>
      <trkpt lat="48.71574" lon="7.22118">
        <ele>231</ele>
        <time>2026-05-13T06:48:41Z</time>
      </trkpt>
      <trkpt lat="48.71586" lon="7.22127">
        <ele>231</ele>
        <time>2026-05-13T06:48:43Z</time>
      </trkpt>
      <trkpt lat="48.716" lon="7.2214">
        <ele>232</ele>
        <time>2026-05-13T06:48:46Z</time>
      </trkpt>
      <trkpt lat="48.71784" lon="7.2233">
        <ele>237</ele>
        <time>2026-05-13T06:49:26Z</time>
      </trkpt>
      <trkpt lat="48.71803" lon="7.22354">
        <ele>237</ele>
        <time>2026-05-13T06:49:30Z</time>
      </trkpt>
      <trkpt lat="48.71816" lon="7.22379">
        <ele>237</ele>
        <time>2026-05-13T06:49:34Z</time>
      </trkpt>
      <trkpt lat="48.71826" lon="7.22403">
        <ele>237</ele>
        <time>2026-05-13T06:49:38Z</time>
      </trkpt>
      <trkpt lat="48.71847" lon="7.22472">
        <ele>237</ele>
        <time>2026-05-13T06:49:46Z</time>
      </trkpt>
      <trkpt lat="48.71877" lon="7.22437">
        <ele>230</ele>
        <time>2026-05-13T06:49:53Z</time>
      </trkpt>
      <trkpt lat="48.71896" lon="7.22411">
        <ele>226</ele>
        <time>2026-05-13T06:49:58Z</time>
      </trkpt>
      <trkpt lat="48.71903" lon="7.224">
        <ele>225</ele>
        <time>2026-05-13T06:50:00Z</time>
      </trkpt>
      <trkpt lat="48.71893" lon="7.22388">
        <ele>226</ele>
        <time>2026-05-13T06:50:02Z</time>
      </trkpt>
      <trkpt lat="48.71885" lon="7.22381">
        <ele>227</ele>
        <time>2026-05-13T06:50:03Z</time>
      </trkpt>
      <trkpt lat="48.7185" lon="7.22332">
        <ele>226</ele>
        <time>2026-05-13T06:50:12Z</time>
      </trkpt>
      <trkpt lat="48.71853" lon="7.22346">
        <ele>227</ele>
        <time>2026-05-13T06:50:14Z</time>
      </trkpt>
      <trkpt lat="48.7188" lon="7.22392">
        <ele>228</ele>
        <time>2026-05-13T06:50:21Z</time>
      </trkpt>
      <trkpt lat="48.71891" lon="7.22412">
        <ele>227</ele>
        <time>2026-05-13T06:50:24Z</time>
      </trkpt>
      <trkpt lat="48.71899" lon="7.22424">
        <ele>226</ele>
        <time>2026-05-13T06:50:26Z</time>
      </trkpt>
      <trkpt lat="48.71906" lon="7.2243">
        <ele>225</ele>
        <time>2026-05-13T06:50:27Z</time>
      </trkpt>
      <trkpt lat="48.7198" lon="7.22554">
        <ele>223</ele>
        <time>2026-05-13T06:50:47Z</time>
      </trkpt>
      <trkpt lat="48.72031" lon="7.22635">
        <ele>226</ele>
        <time>2026-05-13T06:51:00Z</time>
      </trkpt>
      <trkpt lat="48.72033" lon="7.22638">
        <ele>226</ele>
        <time>2026-05-13T06:51:01Z</time>
      </trkpt>
      <trkpt lat="48.72038" lon="7.22639">
        <ele>227</ele>
        <time>2026-05-13T06:51:02Z</time>
      </trkpt>
      <trkpt lat="48.72041" lon="7.22636">
        <ele>227</ele>
        <time>2026-05-13T06:51:02Z</time>
      </trkpt>
      <trkpt lat="48.72042" lon="7.22633">
        <ele>228</ele>
        <time>2026-05-13T06:51:03Z</time>
      </trkpt>
      <trkpt lat="48.72043" lon="7.22624">
        <ele>229</ele>
        <time>2026-05-13T06:51:04Z</time>
      </trkpt>
      <trkpt lat="48.72038" lon="7.22594">
        <ele>231</ele>
        <time>2026-05-13T06:51:07Z</time>
      </trkpt>
      <trkpt lat="48.72047" lon="7.22591">
        <ele>234</ele>
        <time>2026-05-13T06:51:09Z</time>
      </trkpt>
      <trkpt lat="48.72056" lon="7.22587">
        <ele>237</ele>
        <time>2026-05-13T06:51:11Z</time>
      </trkpt>
      <trkpt lat="48.72059" lon="7.22585">
        <ele>238</ele>
        <time>2026-05-13T06:51:11Z</time>
      </trkpt>
      <trkpt lat="48.72065" lon="7.22615">
        <ele>235</ele>
        <time>2026-05-13T06:51:15Z</time>
      </trkpt>
      <trkpt lat="48.72073" lon="7.22642">
        <ele>233</ele>
        <time>2026-05-13T06:51:18Z</time>
      </trkpt>
      <trkpt lat="48.72093" lon="7.22698">
        <ele>231</ele>
        <time>2026-05-13T06:51:26Z</time>
      </trkpt>
      <trkpt lat="48.72115" lon="7.22753">
        <ele>230</ele>
        <time>2026-05-13T06:51:33Z</time>
      </trkpt>
      <trkpt lat="48.72143" lon="7.22815">
        <ele>230</ele>
        <time>2026-05-13T06:51:42Z</time>
      </trkpt>
      <trkpt lat="48.72154" lon="7.2284">
        <ele>229</ele>
        <time>2026-05-13T06:51:46Z</time>
      </trkpt>
      <trkpt lat="48.72176" lon="7.2288">
        <ele>228</ele>
        <time>2026-05-13T06:51:52Z</time>
      </trkpt>
      <trkpt lat="48.72181" lon="7.2289">
        <ele>228</ele>
        <time>2026-05-13T06:51:53Z</time>
      </trkpt>
      <trkpt lat="48.72227" lon="7.22955">
        <ele>229</ele>
        <time>2026-05-13T06:52:04Z</time>
      </trkpt>
      <trkpt lat="48.7225" lon="7.22992">
        <ele>226</ele>
        <time>2026-05-13T06:52:10Z</time>
      </trkpt>
      <trkpt lat="48.72261" lon="7.23007">
        <ele>226</ele>
        <time>2026-05-13T06:52:13Z</time>
      </trkpt>
      <trkpt lat="48.72264" lon="7.2301">
        <ele>227</ele>
        <time>2026-05-13T06:52:14Z</time>
      </trkpt>
      <trkpt lat="48.7227" lon="7.23014">
        <ele>228</ele>
        <time>2026-05-13T06:52:15Z</time>
      </trkpt>
      <trkpt lat="48.72276" lon="7.23015">
        <ele>228</ele>
        <time>2026-05-13T06:52:16Z</time>
      </trkpt>
      <trkpt lat="48.72282" lon="7.23012">
        <ele>227</ele>
        <time>2026-05-13T06:52:17Z</time>
      </trkpt>
      <trkpt lat="48.72287" lon="7.23008">
        <ele>227</ele>
        <time>2026-05-13T06:52:18Z</time>
      </trkpt>
      <trkpt lat="48.72291" lon="7.23002">
        <ele>226</ele>
        <time>2026-05-13T06:52:19Z</time>
      </trkpt>
      <trkpt lat="48.72298" lon="7.22985">
        <ele>228</ele>
        <time>2026-05-13T06:52:21Z</time>
      </trkpt>
      <trkpt lat="48.72305" lon="7.2296">
        <ele>233</ele>
        <time>2026-05-13T06:52:25Z</time>
      </trkpt>
      <trkpt lat="48.7231" lon="7.22944">
        <ele>236</ele>
        <time>2026-05-13T06:52:27Z</time>
      </trkpt>
      <trkpt lat="48.72312" lon="7.22942">
        <ele>236</ele>
        <time>2026-05-13T06:52:27Z</time>
      </trkpt>
      <trkpt lat="48.72318" lon="7.2294">
        <ele>237</ele>
        <time>2026-05-13T06:52:28Z</time>
      </trkpt>
      <trkpt lat="48.72552" lon="7.23005">
        <ele>229</ele>
        <time>2026-05-13T06:53:11Z</time>
      </trkpt>
      <trkpt lat="48.72608" lon="7.23022">
        <ele>229</ele>
        <time>2026-05-13T06:53:21Z</time>
      </trkpt>
      <trkpt lat="48.72623" lon="7.23027">
        <ele>229</ele>
        <time>2026-05-13T06:53:23Z</time>
      </trkpt>
      <trkpt lat="48.7264" lon="7.23037">
        <ele>229</ele>
        <time>2026-05-13T06:53:27Z</time>
      </trkpt>
      <trkpt lat="48.72666" lon="7.23057">
        <ele>227</ele>
        <time>2026-05-13T06:53:32Z</time>
      </trkpt>
      <trkpt lat="48.7268" lon="7.2307">
        <ele>226</ele>
        <time>2026-05-13T06:53:35Z</time>
      </trkpt>
      <trkpt lat="48.72693" lon="7.23085">
        <ele>225</ele>
        <time>2026-05-13T06:53:38Z</time>
      </trkpt>
      <trkpt lat="48.72704" lon="7.23101">
        <ele>226</ele>
        <time>2026-05-13T06:53:40Z</time>
      </trkpt>
      <trkpt lat="48.72715" lon="7.2312">
        <ele>226</ele>
        <time>2026-05-13T06:53:43Z</time>
      </trkpt>
      <trkpt lat="48.7273" lon="7.23149">
        <ele>227</ele>
        <time>2026-05-13T06:53:48Z</time>
      </trkpt>
      <trkpt lat="48.72742" lon="7.23181">
        <ele>227</ele>
        <time>2026-05-13T06:53:52Z</time>
      </trkpt>
      <trkpt lat="48.7275" lon="7.23217">
        <ele>227</ele>
        <time>2026-05-13T06:53:56Z</time>
      </trkpt>
      <trkpt lat="48.72753" lon="7.2324">
        <ele>227</ele>
        <time>2026-05-13T06:53:59Z</time>
      </trkpt>
      <trkpt lat="48.72755" lon="7.23247">
        <ele>228</ele>
        <time>2026-05-13T06:54:00Z</time>
      </trkpt>
      <trkpt lat="48.72757" lon="7.23251">
        <ele>229</ele>
        <time>2026-05-13T06:54:01Z</time>
      </trkpt>
      <trkpt lat="48.7276" lon="7.23254">
        <ele>230</ele>
        <time>2026-05-13T06:54:01Z</time>
      </trkpt>
      <trkpt lat="48.72772" lon="7.23255">
        <ele>235</ele>
        <time>2026-05-13T06:54:03Z</time>
      </trkpt>
      <trkpt lat="48.72776" lon="7.23257">
        <ele>237</ele>
        <time>2026-05-13T06:54:04Z</time>
      </trkpt>
      <trkpt lat="48.72782" lon="7.23263">
        <ele>239</ele>
        <time>2026-05-13T06:54:05Z</time>
      </trkpt>
      <trkpt lat="48.72785" lon="7.23277">
        <ele>241</ele>
        <time>2026-05-13T06:54:07Z</time>
      </trkpt>
      <trkpt lat="48.72784" lon="7.23299">
        <ele>240</ele>
        <time>2026-05-13T06:54:10Z</time>
      </trkpt>
      <trkpt lat="48.72782" lon="7.2333">
        <ele>239</ele>
        <time>2026-05-13T06:54:13Z</time>
      </trkpt>
      <trkpt lat="48.72779" lon="7.23346">
        <ele>238</ele>
        <time>2026-05-13T06:54:15Z</time>
      </trkpt>
      <trkpt lat="48.72777" lon="7.23348">
        <ele>237</ele>
        <time>2026-05-13T06:54:16Z</time>
      </trkpt>
      <trkpt lat="48.72772" lon="7.23349">
        <ele>235</ele>
        <time>2026-05-13T06:54:17Z</time>
      </trkpt>
      <trkpt lat="48.72769" lon="7.23352">
        <ele>233</ele>
        <time>2026-05-13T06:54:17Z</time>
      </trkpt>
      <trkpt lat="48.72768" lon="7.23355">
        <ele>233</ele>
        <time>2026-05-13T06:54:18Z</time>
      </trkpt>
      <trkpt lat="48.7277" lon="7.23391">
        <ele>234</ele>
        <time>2026-05-13T06:54:22Z</time>
      </trkpt>
      <trkpt lat="48.72773" lon="7.23441">
        <ele>235</ele>
        <time>2026-05-13T06:54:28Z</time>
      </trkpt>
      <trkpt lat="48.72778" lon="7.23491">
        <ele>237</ele>
        <time>2026-05-13T06:54:34Z</time>
      </trkpt>
      <trkpt lat="48.72794" lon="7.23673">
        <ele>237</ele>
        <time>2026-05-13T06:54:55Z</time>
      </trkpt>
      <trkpt lat="48.72799" lon="7.23712">
        <ele>238</ele>
        <time>2026-05-13T06:55:00Z</time>
      </trkpt>
      <trkpt lat="48.728" lon="7.23729">
        <ele>237</ele>
        <time>2026-05-13T06:55:02Z</time>
      </trkpt>
      <trkpt lat="48.728" lon="7.23836">
        <ele>237</ele>
        <time>2026-05-13T06:55:15Z</time>
      </trkpt>
      <trkpt lat="48.72794" lon="7.23934">
        <ele>237</ele>
        <time>2026-05-13T06:55:26Z</time>
      </trkpt>
      <trkpt lat="48.72794" lon="7.23966">
        <ele>237</ele>
        <time>2026-05-13T06:55:30Z</time>
      </trkpt>
      <trkpt lat="48.72794" lon="7.24019">
        <ele>237</ele>
        <time>2026-05-13T06:55:36Z</time>
      </trkpt>
      <trkpt lat="48.72798" lon="7.24074">
        <ele>234</ele>
        <time>2026-05-13T06:55:43Z</time>
      </trkpt>
      <trkpt lat="48.72801" lon="7.24106">
        <ele>232</ele>
        <time>2026-05-13T06:55:46Z</time>
      </trkpt>
      <trkpt lat="48.72814" lon="7.24205">
        <ele>227</ele>
        <time>2026-05-13T06:55:58Z</time>
      </trkpt>
      <trkpt lat="48.72819" lon="7.24248">
        <ele>225</ele>
        <time>2026-05-13T06:56:03Z</time>
      </trkpt>
      <trkpt lat="48.72823" lon="7.24271">
        <ele>224</ele>
        <time>2026-05-13T06:56:06Z</time>
      </trkpt>
      <trkpt lat="48.72842" lon="7.24346">
        <ele>224</ele>
        <time>2026-05-13T06:56:16Z</time>
      </trkpt>
      <trkpt lat="48.72862" lon="7.2441">
        <ele>228</ele>
        <time>2026-05-13T06:56:24Z</time>
      </trkpt>
      <trkpt lat="48.72868" lon="7.24433">
        <ele>228</ele>
        <time>2026-05-13T06:56:27Z</time>
      </trkpt>
      <trkpt lat="48.72872" lon="7.24445">
        <ele>228</ele>
        <time>2026-05-13T06:56:28Z</time>
      </trkpt>
      <trkpt lat="48.72876" lon="7.24454">
        <ele>228</ele>
        <time>2026-05-13T06:56:30Z</time>
      </trkpt>
      <trkpt lat="48.72881" lon="7.24463">
        <ele>229</ele>
        <time>2026-05-13T06:56:31Z</time>
      </trkpt>
      <trkpt lat="48.72883" lon="7.24467">
        <ele>229</ele>
        <time>2026-05-13T06:56:32Z</time>
      </trkpt>
      <trkpt lat="48.72898" lon="7.24513">
        <ele>228</ele>
        <time>2026-05-13T06:56:38Z</time>
      </trkpt>
      <trkpt lat="48.72916" lon="7.24561">
        <ele>227</ele>
        <time>2026-05-13T06:56:44Z</time>
      </trkpt>
      <trkpt lat="48.73038" lon="7.24924">
        <ele>227</ele>
        <time>2026-05-13T06:57:32Z</time>
      </trkpt>
      <trkpt lat="48.73046" lon="7.24944">
        <ele>227</ele>
        <time>2026-05-13T06:57:35Z</time>
      </trkpt>
      <trkpt lat="48.73054" lon="7.2496">
        <ele>226</ele>
        <time>2026-05-13T06:57:37Z</time>
      </trkpt>
      <trkpt lat="48.73071" lon="7.24985">
        <ele>225</ele>
        <time>2026-05-13T06:57:41Z</time>
      </trkpt>
      <trkpt lat="48.73081" lon="7.24996">
        <ele>225</ele>
        <time>2026-05-13T06:57:44Z</time>
      </trkpt>
      <trkpt lat="48.73098" lon="7.2501">
        <ele>224</ele>
        <time>2026-05-13T06:57:47Z</time>
      </trkpt>
      <trkpt lat="48.73109" lon="7.25016">
        <ele>224</ele>
        <time>2026-05-13T06:57:49Z</time>
      </trkpt>
      <trkpt lat="48.73127" lon="7.25024">
        <ele>224</ele>
        <time>2026-05-13T06:57:52Z</time>
      </trkpt>
      <trkpt lat="48.73137" lon="7.25027">
        <ele>224</ele>
        <time>2026-05-13T06:57:54Z</time>
      </trkpt>
      <trkpt lat="48.73146" lon="7.25028">
        <ele>224</ele>
        <time>2026-05-13T06:57:56Z</time>
      </trkpt>
      <trkpt lat="48.73164" lon="7.25027">
        <ele>225</ele>
        <time>2026-05-13T06:57:59Z</time>
      </trkpt>
      <trkpt lat="48.73172" lon="7.25025">
        <ele>225</ele>
        <time>2026-05-13T06:58:00Z</time>
      </trkpt>
      <trkpt lat="48.73188" lon="7.25018">
        <ele>225</ele>
        <time>2026-05-13T06:58:03Z</time>
      </trkpt>
      <trkpt lat="48.73205" lon="7.25007">
        <ele>224</ele>
        <time>2026-05-13T06:58:07Z</time>
      </trkpt>
      <trkpt lat="48.73213" lon="7.25">
        <ele>223</ele>
        <time>2026-05-13T06:58:08Z</time>
      </trkpt>
      <trkpt lat="48.73229" lon="7.24984">
        <ele>222</ele>
        <time>2026-05-13T06:58:12Z</time>
      </trkpt>
      <trkpt lat="48.73247" lon="7.2496">
        <ele>220</ele>
        <time>2026-05-13T06:58:16Z</time>
      </trkpt>
      <trkpt lat="48.73266" lon="7.24939">
        <ele>219</ele>
        <time>2026-05-13T06:58:20Z</time>
      </trkpt>
      <trkpt lat="48.73277" lon="7.24928">
        <ele>218</ele>
        <time>2026-05-13T06:58:23Z</time>
      </trkpt>
      <trkpt lat="48.73286" lon="7.24922">
        <ele>217</ele>
        <time>2026-05-13T06:58:24Z</time>
      </trkpt>
      <trkpt lat="48.73295" lon="7.24916">
        <ele>217</ele>
        <time>2026-05-13T06:58:26Z</time>
      </trkpt>
      <trkpt lat="48.73304" lon="7.24913">
        <ele>216</ele>
        <time>2026-05-13T06:58:28Z</time>
      </trkpt>
      <trkpt lat="48.73325" lon="7.24907">
        <ele>213</ele>
        <time>2026-05-13T06:58:31Z</time>
      </trkpt>
      <trkpt lat="48.73338" lon="7.24906">
        <ele>213</ele>
        <time>2026-05-13T06:58:34Z</time>
      </trkpt>
      <trkpt lat="48.73361" lon="7.24907">
        <ele>216</ele>
        <time>2026-05-13T06:58:38Z</time>
      </trkpt>
      <trkpt lat="48.73376" lon="7.2491">
        <ele>217</ele>
        <time>2026-05-13T06:58:41Z</time>
      </trkpt>
      <trkpt lat="48.73383" lon="7.24912">
        <ele>218</ele>
        <time>2026-05-13T06:58:42Z</time>
      </trkpt>
      <trkpt lat="48.73401" lon="7.24922">
        <ele>218</ele>
        <time>2026-05-13T06:58:45Z</time>
      </trkpt>
      <trkpt lat="48.73421" lon="7.24936">
        <ele>219</ele>
        <time>2026-05-13T06:58:49Z</time>
      </trkpt>
      <trkpt lat="48.73434" lon="7.2495">
        <ele>219</ele>
        <time>2026-05-13T06:58:52Z</time>
      </trkpt>
      <trkpt lat="48.73446" lon="7.24965">
        <ele>218</ele>
        <time>2026-05-13T06:58:55Z</time>
      </trkpt>
      <trkpt lat="48.73452" lon="7.24974">
        <ele>217</ele>
        <time>2026-05-13T06:58:56Z</time>
      </trkpt>
      <trkpt lat="48.73486" lon="7.25044">
        <ele>213</ele>
        <time>2026-05-13T06:59:06Z</time>
      </trkpt>
      <trkpt lat="48.73503" lon="7.25078">
        <ele>212</ele>
        <time>2026-05-13T06:59:11Z</time>
      </trkpt>
      <trkpt lat="48.73511" lon="7.25096">
        <ele>212</ele>
        <time>2026-05-13T06:59:14Z</time>
      </trkpt>
      <trkpt lat="48.73516" lon="7.25091">
        <ele>212</ele>
        <time>2026-05-13T06:59:15Z</time>
      </trkpt>
      <trkpt lat="48.7353" lon="7.25112">
        <ele>212</ele>
        <time>2026-05-13T06:59:19Z</time>
      </trkpt>
      <trkpt lat="48.73537" lon="7.2513">
        <ele>212</ele>
        <time>2026-05-13T06:59:21Z</time>
      </trkpt>
      <trkpt lat="48.73542" lon="7.25147">
        <ele>212</ele>
        <time>2026-05-13T06:59:23Z</time>
      </trkpt>
      <trkpt lat="48.73545" lon="7.25174">
        <ele>212</ele>
        <time>2026-05-13T06:59:26Z</time>
      </trkpt>
      <trkpt lat="48.73551" lon="7.25242">
        <ele>211</ele>
        <time>2026-05-13T06:59:34Z</time>
      </trkpt>
      <trkpt lat="48.73577" lon="7.25546">
        <ele>213</ele>
        <time>2026-05-13T07:00:10Z</time>
      </trkpt>
      <trkpt lat="48.7358" lon="7.25552">
        <ele>214</ele>
        <time>2026-05-13T07:00:11Z</time>
      </trkpt>
      <trkpt lat="48.73589" lon="7.25561">
        <ele>215</ele>
        <time>2026-05-13T07:00:13Z</time>
      </trkpt>
      <trkpt lat="48.73606" lon="7.25569">
        <ele>221</ele>
        <time>2026-05-13T07:00:16Z</time>
      </trkpt>
      <trkpt lat="48.73617" lon="7.25574">
        <ele>225</ele>
        <time>2026-05-13T07:00:18Z</time>
      </trkpt>
      <trkpt lat="48.73614" lon="7.25593">
        <ele>224</ele>
        <time>2026-05-13T07:00:21Z</time>
      </trkpt>
      <trkpt lat="48.73609" lon="7.25648">
        <ele>223</ele>
        <time>2026-05-13T07:00:27Z</time>
      </trkpt>
      <trkpt lat="48.73603" lon="7.2572">
        <ele>221</ele>
        <time>2026-05-13T07:00:36Z</time>
      </trkpt>
      <trkpt lat="48.73602" lon="7.2574">
        <ele>221</ele>
        <time>2026-05-13T07:00:38Z</time>
      </trkpt>
      <trkpt lat="48.73608" lon="7.25806">
        <ele>220</ele>
        <time>2026-05-13T07:00:46Z</time>
      </trkpt>
      <trkpt lat="48.73627" lon="7.25869">
        <ele>220</ele>
        <time>2026-05-13T07:00:54Z</time>
      </trkpt>
      <trkpt lat="48.73623" lon="7.25871">
        <ele>219</ele>
        <time>2026-05-13T07:00:55Z</time>
      </trkpt>
      <trkpt lat="48.73618" lon="7.25876">
        <ele>217</ele>
        <time>2026-05-13T07:00:56Z</time>
      </trkpt>
      <trkpt lat="48.73607" lon="7.25881">
        <ele>214</ele>
        <time>2026-05-13T07:00:58Z</time>
      </trkpt>
      <trkpt lat="48.73606" lon="7.25882">
        <ele>214</ele>
        <time>2026-05-13T07:00:58Z</time>
      </trkpt>
      <trkpt lat="48.73593" lon="7.25884">
        <ele>210</ele>
        <time>2026-05-13T07:01:01Z</time>
      </trkpt>
      <trkpt lat="48.73588" lon="7.25886">
        <ele>209</ele>
        <time>2026-05-13T07:01:01Z</time>
      </trkpt>
      <trkpt lat="48.73585" lon="7.25891">
        <ele>208</ele>
        <time>2026-05-13T07:01:02Z</time>
      </trkpt>
      <trkpt lat="48.73583" lon="7.25904">
        <ele>207</ele>
        <time>2026-05-13T07:01:04Z</time>
      </trkpt>
      <trkpt lat="48.73587" lon="7.2591">
        <ele>208</ele>
        <time>2026-05-13T07:01:05Z</time>
      </trkpt>
      <trkpt lat="48.7359" lon="7.25932">
        <ele>208</ele>
        <time>2026-05-13T07:01:07Z</time>
      </trkpt>
      <trkpt lat="48.73595" lon="7.25952">
        <ele>208</ele>
        <time>2026-05-13T07:01:10Z</time>
      </trkpt>
      <trkpt lat="48.73604" lon="7.25976">
        <ele>208</ele>
        <time>2026-05-13T07:01:13Z</time>
      </trkpt>
      <trkpt lat="48.73785" lon="7.26372">
        <ele>210</ele>
        <time>2026-05-13T07:02:10Z</time>
      </trkpt>
      <trkpt lat="48.73792" lon="7.26393">
        <ele>210</ele>
        <time>2026-05-13T07:02:12Z</time>
      </trkpt>
      <trkpt lat="48.73803" lon="7.26441">
        <ele>210</ele>
        <time>2026-05-13T07:02:18Z</time>
      </trkpt>
      <trkpt lat="48.73809" lon="7.26474">
        <ele>210</ele>
        <time>2026-05-13T07:02:22Z</time>
      </trkpt>
      <trkpt lat="48.73813" lon="7.26502">
        <ele>210</ele>
        <time>2026-05-13T07:02:26Z</time>
      </trkpt>
      <trkpt lat="48.73815" lon="7.26529">
        <ele>212</ele>
        <time>2026-05-13T07:02:29Z</time>
      </trkpt>
      <trkpt lat="48.73816" lon="7.26587">
        <ele>215</ele>
        <time>2026-05-13T07:02:36Z</time>
      </trkpt>
      <trkpt lat="48.73815" lon="7.26617">
        <ele>215</ele>
        <time>2026-05-13T07:02:39Z</time>
      </trkpt>
      <trkpt lat="48.73799" lon="7.26979">
        <ele>217</ele>
        <time>2026-05-13T07:03:22Z</time>
      </trkpt>
      <trkpt lat="48.73794" lon="7.27066">
        <ele>218</ele>
        <time>2026-05-13T07:03:32Z</time>
      </trkpt>
      <trkpt lat="48.73788" lon="7.271">
        <ele>218</ele>
        <time>2026-05-13T07:03:36Z</time>
      </trkpt>
      <trkpt lat="48.73782" lon="7.27127">
        <ele>218</ele>
        <time>2026-05-13T07:03:40Z</time>
      </trkpt>
      <trkpt lat="48.73776" lon="7.27154">
        <ele>218</ele>
        <time>2026-05-13T07:03:43Z</time>
      </trkpt>
      <trkpt lat="48.73768" lon="7.27179">
        <ele>216</ele>
        <time>2026-05-13T07:03:46Z</time>
      </trkpt>
      <trkpt lat="48.73758" lon="7.27205">
        <ele>213</ele>
        <time>2026-05-13T07:03:50Z</time>
      </trkpt>
      <trkpt lat="48.73732" lon="7.27263">
        <ele>209</ele>
        <time>2026-05-13T07:03:58Z</time>
      </trkpt>
      <trkpt lat="48.73713" lon="7.27295">
        <ele>211</ele>
        <time>2026-05-13T07:04:03Z</time>
      </trkpt>
      <trkpt lat="48.73705" lon="7.27302">
        <ele>210</ele>
        <time>2026-05-13T07:04:05Z</time>
      </trkpt>
      <trkpt lat="48.73701" lon="7.27308">
        <ele>210</ele>
        <time>2026-05-13T07:04:06Z</time>
      </trkpt>
      <trkpt lat="48.73589" lon="7.27493">
        <ele>215</ele>
        <time>2026-05-13T07:04:35Z</time>
      </trkpt>
      <trkpt lat="48.73533" lon="7.27591">
        <ele>219</ele>
        <time>2026-05-13T07:04:50Z</time>
      </trkpt>
      <trkpt lat="48.73514" lon="7.27632">
        <ele>217</ele>
        <time>2026-05-13T07:04:56Z</time>
      </trkpt>
      <trkpt lat="48.73497" lon="7.27676">
        <ele>214</ele>
        <time>2026-05-13T07:05:02Z</time>
      </trkpt>
      <trkpt lat="48.73446" lon="7.27823">
        <ele>214</ele>
        <time>2026-05-13T07:05:22Z</time>
      </trkpt>
      <trkpt lat="48.7332" lon="7.28192">
        <ele>207</ele>
        <time>2026-05-13T07:06:10Z</time>
      </trkpt>
      <trkpt lat="48.73308" lon="7.28221">
        <ele>209</ele>
        <time>2026-05-13T07:06:15Z</time>
      </trkpt>
      <trkpt lat="48.73293" lon="7.28265">
        <ele>211</ele>
        <time>2026-05-13T07:06:20Z</time>
      </trkpt>
      <trkpt lat="48.73276" lon="7.28314">
        <ele>213</ele>
        <time>2026-05-13T07:06:27Z</time>
      </trkpt>
      <trkpt lat="48.73182" lon="7.28588">
        <ele>212</ele>
        <time>2026-05-13T07:07:03Z</time>
      </trkpt>
      <trkpt lat="48.73174" lon="7.28615">
        <ele>210</ele>
        <time>2026-05-13T07:07:07Z</time>
      </trkpt>
      <trkpt lat="48.7316" lon="7.28671">
        <ele>209</ele>
        <time>2026-05-13T07:07:14Z</time>
      </trkpt>
      <trkpt lat="48.7315" lon="7.28706">
        <ele>211</ele>
        <time>2026-05-13T07:07:18Z</time>
      </trkpt>
      <trkpt lat="48.73137" lon="7.28763">
        <ele>213</ele>
        <time>2026-05-13T07:07:25Z</time>
      </trkpt>
      <trkpt lat="48.73094" lon="7.28947">
        <ele>211</ele>
        <time>2026-05-13T07:07:48Z</time>
      </trkpt>
      <trkpt lat="48.73087" lon="7.28983">
        <ele>208</ele>
        <time>2026-05-13T07:07:52Z</time>
      </trkpt>
      <trkpt lat="48.73068" lon="7.29099">
        <ele>210</ele>
        <time>2026-05-13T07:08:06Z</time>
      </trkpt>
      <trkpt lat="48.73059" lon="7.29149">
        <ele>210</ele>
        <time>2026-05-13T07:08:13Z</time>
      </trkpt>
      <trkpt lat="48.73049" lon="7.29191">
        <ele>211</ele>
        <time>2026-05-13T07:08:18Z</time>
      </trkpt>
      <trkpt lat="48.73042" lon="7.29219">
        <ele>210</ele>
        <time>2026-05-13T07:08:21Z</time>
      </trkpt>
      <trkpt lat="48.73027" lon="7.29269">
        <ele>210</ele>
        <time>2026-05-13T07:08:28Z</time>
      </trkpt>
      <trkpt lat="48.73001" lon="7.29356">
        <ele>208</ele>
        <time>2026-05-13T07:08:39Z</time>
      </trkpt>
      <trkpt lat="48.72992" lon="7.29392">
        <ele>210</ele>
        <time>2026-05-13T07:08:43Z</time>
      </trkpt>
      <trkpt lat="48.72971" lon="7.29487">
        <ele>217</ele>
        <time>2026-05-13T07:08:55Z</time>
      </trkpt>
      <trkpt lat="48.72952" lon="7.29575">
        <ele>219</ele>
        <time>2026-05-13T07:09:06Z</time>
      </trkpt>
      <trkpt lat="48.72949" lon="7.29589">
        <ele>219</ele>
        <time>2026-05-13T07:09:08Z</time>
      </trkpt>
      <trkpt lat="48.72932" lon="7.29656">
        <ele>214</ele>
        <time>2026-05-13T07:09:16Z</time>
      </trkpt>
      <trkpt lat="48.72914" lon="7.29741">
        <ele>209</ele>
        <time>2026-05-13T07:09:27Z</time>
      </trkpt>
      <trkpt lat="48.72901" lon="7.29796">
        <ele>211</ele>
        <time>2026-05-13T07:09:34Z</time>
      </trkpt>
      <trkpt lat="48.72897" lon="7.29811">
        <ele>211</ele>
        <time>2026-05-13T07:09:35Z</time>
      </trkpt>
      <trkpt lat="48.72886" lon="7.29842">
        <ele>211</ele>
        <time>2026-05-13T07:09:40Z</time>
      </trkpt>
      <trkpt lat="48.72878" lon="7.29861">
        <ele>213</ele>
        <time>2026-05-13T07:09:42Z</time>
      </trkpt>
      <trkpt lat="48.72871" lon="7.29875">
        <ele>213</ele>
        <time>2026-05-13T07:09:44Z</time>
      </trkpt>
      <trkpt lat="48.72859" lon="7.29889">
        <ele>213</ele>
        <time>2026-05-13T07:09:47Z</time>
      </trkpt>
      <trkpt lat="48.72852" lon="7.29895">
        <ele>212</ele>
        <time>2026-05-13T07:09:48Z</time>
      </trkpt>
      <trkpt lat="48.72832" lon="7.29902">
        <ele>209</ele>
        <time>2026-05-13T07:09:52Z</time>
      </trkpt>
      <trkpt lat="48.72818" lon="7.29907">
        <ele>209</ele>
        <time>2026-05-13T07:09:55Z</time>
      </trkpt>
      <trkpt lat="48.72808" lon="7.29909">
        <ele>209</ele>
        <time>2026-05-13T07:09:56Z</time>
      </trkpt>
      <trkpt lat="48.72797" lon="7.2991">
        <ele>209</ele>
        <time>2026-05-13T07:09:58Z</time>
      </trkpt>
      <trkpt lat="48.72788" lon="7.29907">
        <ele>209</ele>
        <time>2026-05-13T07:10:00Z</time>
      </trkpt>
      <trkpt lat="48.72739" lon="7.29884">
        <ele>210</ele>
        <time>2026-05-13T07:10:09Z</time>
      </trkpt>
      <trkpt lat="48.72725" lon="7.29879">
        <ele>210</ele>
        <time>2026-05-13T07:10:12Z</time>
      </trkpt>
      <trkpt lat="48.72711" lon="7.29875">
        <ele>209</ele>
        <time>2026-05-13T07:10:14Z</time>
      </trkpt>
      <trkpt lat="48.72696" lon="7.29873">
        <ele>208</ele>
        <time>2026-05-13T07:10:17Z</time>
      </trkpt>
      <trkpt lat="48.72685" lon="7.29874">
        <ele>208</ele>
        <time>2026-05-13T07:10:19Z</time>
      </trkpt>
      <trkpt lat="48.72672" lon="7.29876">
        <ele>207</ele>
        <time>2026-05-13T07:10:21Z</time>
      </trkpt>
      <trkpt lat="48.72657" lon="7.2988">
        <ele>208</ele>
        <time>2026-05-13T07:10:24Z</time>
      </trkpt>
      <trkpt lat="48.72643" lon="7.29886">
        <ele>208</ele>
        <time>2026-05-13T07:10:27Z</time>
      </trkpt>
      <trkpt lat="48.72622" lon="7.29902">
        <ele>207</ele>
        <time>2026-05-13T07:10:31Z</time>
      </trkpt>
      <trkpt lat="48.72612" lon="7.29911">
        <ele>205</ele>
        <time>2026-05-13T07:10:33Z</time>
      </trkpt>
      <trkpt lat="48.726" lon="7.29926">
        <ele>204</ele>
        <time>2026-05-13T07:10:36Z</time>
      </trkpt>
      <trkpt lat="48.72585" lon="7.2995">
        <ele>202</ele>
        <time>2026-05-13T07:10:39Z</time>
      </trkpt>
      <trkpt lat="48.72571" lon="7.29982">
        <ele>205</ele>
        <time>2026-05-13T07:10:44Z</time>
      </trkpt>
      <trkpt lat="48.72564" lon="7.30001">
        <ele>206</ele>
        <time>2026-05-13T07:10:47Z</time>
      </trkpt>
      <trkpt lat="48.7256" lon="7.30013">
        <ele>208</ele>
        <time>2026-05-13T07:10:48Z</time>
      </trkpt>
      <trkpt lat="48.7255" lon="7.30054">
        <ele>211</ele>
        <time>2026-05-13T07:10:53Z</time>
      </trkpt>
      <trkpt lat="48.72519" lon="7.3021">
        <ele>210</ele>
        <time>2026-05-13T07:11:12Z</time>
      </trkpt>
      <trkpt lat="48.72508" lon="7.30247">
        <ele>206</ele>
        <time>2026-05-13T07:11:17Z</time>
      </trkpt>
      <trkpt lat="48.72501" lon="7.30265">
        <ele>204</ele>
        <time>2026-05-13T07:11:20Z</time>
      </trkpt>
      <trkpt lat="48.7249" lon="7.30295">
        <ele>207</ele>
        <time>2026-05-13T07:11:24Z</time>
      </trkpt>
      <trkpt lat="48.72478" lon="7.30324">
        <ele>209</ele>
        <time>2026-05-13T07:11:28Z</time>
      </trkpt>
      <trkpt lat="48.72463" lon="7.30359">
        <ele>213</ele>
        <time>2026-05-13T07:11:33Z</time>
      </trkpt>
      <trkpt lat="48.72454" lon="7.30375">
        <ele>214</ele>
        <time>2026-05-13T07:11:35Z</time>
      </trkpt>
      <trkpt lat="48.72401" lon="7.30461">
        <ele>212</ele>
        <time>2026-05-13T07:11:49Z</time>
      </trkpt>
      <trkpt lat="48.72383" lon="7.30487">
        <ele>211</ele>
        <time>2026-05-13T07:11:53Z</time>
      </trkpt>
      <trkpt lat="48.72372" lon="7.30501">
        <ele>209</ele>
        <time>2026-05-13T07:11:56Z</time>
      </trkpt>
      <trkpt lat="48.72336" lon="7.30534">
        <ele>206</ele>
        <time>2026-05-13T07:12:03Z</time>
      </trkpt>
      <trkpt lat="48.7231" lon="7.30556">
        <ele>206</ele>
        <time>2026-05-13T07:12:09Z</time>
      </trkpt>
      <trkpt lat="48.72285" lon="7.30571">
        <ele>204</ele>
        <time>2026-05-13T07:12:13Z</time>
      </trkpt>
      <trkpt lat="48.72225" lon="7.30597">
        <ele>202</ele>
        <time>2026-05-13T07:12:24Z</time>
      </trkpt>
      <trkpt lat="48.72199" lon="7.30602">
        <ele>202</ele>
        <time>2026-05-13T07:12:29Z</time>
      </trkpt>
      <trkpt lat="48.72181" lon="7.30609">
        <ele>202</ele>
        <time>2026-05-13T07:12:32Z</time>
      </trkpt>
      <trkpt lat="48.72163" lon="7.30619">
        <ele>202</ele>
        <time>2026-05-13T07:12:36Z</time>
      </trkpt>
      <trkpt lat="48.7215" lon="7.30627">
        <ele>202</ele>
        <time>2026-05-13T07:12:38Z</time>
      </trkpt>
      <trkpt lat="48.7214" lon="7.30634">
        <ele>202</ele>
        <time>2026-05-13T07:12:40Z</time>
      </trkpt>
      <trkpt lat="48.72125" lon="7.3065">
        <ele>202</ele>
        <time>2026-05-13T07:12:44Z</time>
      </trkpt>
      <trkpt lat="48.72114" lon="7.30664">
        <ele>202</ele>
        <time>2026-05-13T07:12:46Z</time>
      </trkpt>
      <trkpt lat="48.72104" lon="7.30682">
        <ele>202</ele>
        <time>2026-05-13T07:12:49Z</time>
      </trkpt>
      <trkpt lat="48.72091" lon="7.3071">
        <ele>201</ele>
        <time>2026-05-13T07:12:53Z</time>
      </trkpt>
      <trkpt lat="48.72083" lon="7.30733">
        <ele>199</ele>
        <time>2026-05-13T07:12:56Z</time>
      </trkpt>
      <trkpt lat="48.72079" lon="7.30747">
        <ele>199</ele>
        <time>2026-05-13T07:12:58Z</time>
      </trkpt>
      <trkpt lat="48.72074" lon="7.30775">
        <ele>200</ele>
        <time>2026-05-13T07:13:01Z</time>
      </trkpt>
      <trkpt lat="48.72071" lon="7.308">
        <ele>201</ele>
        <time>2026-05-13T07:13:04Z</time>
      </trkpt>
      <trkpt lat="48.72069" lon="7.30824">
        <ele>202</ele>
        <time>2026-05-13T07:13:07Z</time>
      </trkpt>
      <trkpt lat="48.72069" lon="7.30838">
        <ele>202</ele>
        <time>2026-05-13T07:13:09Z</time>
      </trkpt>
      <trkpt lat="48.72073" lon="7.30903">
        <ele>203</ele>
        <time>2026-05-13T07:13:16Z</time>
      </trkpt>
      <trkpt lat="48.72078" lon="7.30953">
        <ele>202</ele>
        <time>2026-05-13T07:13:22Z</time>
      </trkpt>
      <trkpt lat="48.72079" lon="7.30979">
        <ele>202</ele>
        <time>2026-05-13T07:13:25Z</time>
      </trkpt>
      <trkpt lat="48.72079" lon="7.31016">
        <ele>204</ele>
        <time>2026-05-13T07:13:30Z</time>
      </trkpt>
      <trkpt lat="48.72077" lon="7.31036">
        <ele>205</ele>
        <time>2026-05-13T07:13:32Z</time>
      </trkpt>
      <trkpt lat="48.72072" lon="7.31086">
        <ele>208</ele>
        <time>2026-05-13T07:13:38Z</time>
      </trkpt>
      <trkpt lat="48.72058" lon="7.31181">
        <ele>207</ele>
        <time>2026-05-13T07:13:49Z</time>
      </trkpt>
      <trkpt lat="48.72057" lon="7.31208">
        <ele>205</ele>
        <time>2026-05-13T07:13:52Z</time>
      </trkpt>
      <trkpt lat="48.72058" lon="7.31229">
        <ele>204</ele>
        <time>2026-05-13T07:13:55Z</time>
      </trkpt>
      <trkpt lat="48.72063" lon="7.31268">
        <ele>203</ele>
        <time>2026-05-13T07:14:00Z</time>
      </trkpt>
      <trkpt lat="48.72073" lon="7.31314">
        <ele>203</ele>
        <time>2026-05-13T07:14:05Z</time>
      </trkpt>
      <trkpt lat="48.72091" lon="7.31379">
        <ele>203</ele>
        <time>2026-05-13T07:14:14Z</time>
      </trkpt>
      <trkpt lat="48.72124" lon="7.31481">
        <ele>205</ele>
        <time>2026-05-13T07:14:27Z</time>
      </trkpt>
      <trkpt lat="48.7214" lon="7.31533">
        <ele>204</ele>
        <time>2026-05-13T07:14:34Z</time>
      </trkpt>
      <trkpt lat="48.72144" lon="7.31551">
        <ele>204</ele>
        <time>2026-05-13T07:14:36Z</time>
      </trkpt>
      <trkpt lat="48.72158" lon="7.31617">
        <ele>202</ele>
        <time>2026-05-13T07:14:44Z</time>
      </trkpt>
      <trkpt lat="48.72168" lon="7.31673">
        <ele>201</ele>
        <time>2026-05-13T07:14:51Z</time>
      </trkpt>
      <trkpt lat="48.72173" lon="7.31712">
        <ele>202</ele>
        <time>2026-05-13T07:14:56Z</time>
      </trkpt>
      <trkpt lat="48.72184" lon="7.31833">
        <ele>202</ele>
        <time>2026-05-13T07:15:10Z</time>
      </trkpt>
      <trkpt lat="48.72192" lon="7.31901">
        <ele>204</ele>
        <time>2026-05-13T07:15:18Z</time>
      </trkpt>
      <trkpt lat="48.72194" lon="7.31915">
        <ele>204</ele>
        <time>2026-05-13T07:15:20Z</time>
      </trkpt>
      <trkpt lat="48.72202" lon="7.31945">
        <ele>204</ele>
        <time>2026-05-13T07:15:23Z</time>
      </trkpt>
      <trkpt lat="48.72208" lon="7.31964">
        <ele>203</ele>
        <time>2026-05-13T07:15:26Z</time>
      </trkpt>
      <trkpt lat="48.72217" lon="7.3199">
        <ele>202</ele>
        <time>2026-05-13T07:15:29Z</time>
      </trkpt>
      <trkpt lat="48.72229" lon="7.3202">
        <ele>202</ele>
        <time>2026-05-13T07:15:33Z</time>
      </trkpt>
      <trkpt lat="48.72246" lon="7.32055">
        <ele>201</ele>
        <time>2026-05-13T07:15:39Z</time>
      </trkpt>
      <trkpt lat="48.72267" lon="7.32093">
        <ele>203</ele>
        <time>2026-05-13T07:15:44Z</time>
      </trkpt>
      <trkpt lat="48.72292" lon="7.32134">
        <ele>205</ele>
        <time>2026-05-13T07:15:51Z</time>
      </trkpt>
      <trkpt lat="48.72319" lon="7.32175">
        <ele>203</ele>
        <time>2026-05-13T07:15:58Z</time>
      </trkpt>
      <trkpt lat="48.72386" lon="7.3227">
        <ele>201</ele>
        <time>2026-05-13T07:16:14Z</time>
      </trkpt>
      <trkpt lat="48.7241" lon="7.32301">
        <ele>200</ele>
        <time>2026-05-13T07:16:20Z</time>
      </trkpt>
      <trkpt lat="48.72417" lon="7.32305">
        <ele>199</ele>
        <time>2026-05-13T07:16:21Z</time>
      </trkpt>
      <trkpt lat="48.72423" lon="7.3231">
        <ele>200</ele>
        <time>2026-05-13T07:16:22Z</time>
      </trkpt>
      <trkpt lat="48.72434" lon="7.32326">
        <ele>200</ele>
        <time>2026-05-13T07:16:25Z</time>
      </trkpt>
      <trkpt lat="48.7244" lon="7.32347">
        <ele>200</ele>
        <time>2026-05-13T07:16:28Z</time>
      </trkpt>
      <trkpt lat="48.72444" lon="7.32355">
        <ele>200</ele>
        <time>2026-05-13T07:16:29Z</time>
      </trkpt>
      <trkpt lat="48.72467" lon="7.32388">
        <ele>201</ele>
        <time>2026-05-13T07:16:34Z</time>
      </trkpt>
      <trkpt lat="48.72515" lon="7.32453">
        <ele>201</ele>
        <time>2026-05-13T07:16:46Z</time>
      </trkpt>
      <trkpt lat="48.72591" lon="7.32566">
        <ele>203</ele>
        <time>2026-05-13T07:17:05Z</time>
      </trkpt>
      <trkpt lat="48.72596" lon="7.32577">
        <ele>204</ele>
        <time>2026-05-13T07:17:06Z</time>
      </trkpt>
      <trkpt lat="48.72602" lon="7.32589">
        <ele>205</ele>
        <time>2026-05-13T07:17:08Z</time>
      </trkpt>
      <trkpt lat="48.72614" lon="7.3262">
        <ele>207</ele>
        <time>2026-05-13T07:17:12Z</time>
      </trkpt>
      <trkpt lat="48.72626" lon="7.32667">
        <ele>207</ele>
        <time>2026-05-13T07:17:18Z</time>
      </trkpt>
      <trkpt lat="48.72637" lon="7.32741">
        <ele>207</ele>
        <time>2026-05-13T07:17:27Z</time>
      </trkpt>
      <trkpt lat="48.72648" lon="7.32838">
        <ele>204</ele>
        <time>2026-05-13T07:17:39Z</time>
      </trkpt>
      <trkpt lat="48.72653" lon="7.32876">
        <ele>204</ele>
        <time>2026-05-13T07:17:43Z</time>
      </trkpt>
      <trkpt lat="48.72656" lon="7.329">
        <ele>204</ele>
        <time>2026-05-13T07:17:46Z</time>
      </trkpt>
      <trkpt lat="48.72664" lon="7.32934">
        <ele>202</ele>
        <time>2026-05-13T07:17:50Z</time>
      </trkpt>
      <trkpt lat="48.72675" lon="7.32976">
        <ele>199</ele>
        <time>2026-05-13T07:17:56Z</time>
      </trkpt>
      <trkpt lat="48.72688" lon="7.33014">
        <ele>199</ele>
        <time>2026-05-13T07:18:01Z</time>
      </trkpt>
      <trkpt lat="48.72694" lon="7.33031">
        <ele>199</ele>
        <time>2026-05-13T07:18:03Z</time>
      </trkpt>
      <trkpt lat="48.72706" lon="7.33059">
        <ele>199</ele>
        <time>2026-05-13T07:18:07Z</time>
      </trkpt>
      <trkpt lat="48.72715" lon="7.33077">
        <ele>198</ele>
        <time>2026-05-13T07:18:10Z</time>
      </trkpt>
      <trkpt lat="48.72724" lon="7.33095">
        <ele>199</ele>
        <time>2026-05-13T07:18:12Z</time>
      </trkpt>
      <trkpt lat="48.72739" lon="7.33116">
        <ele>199</ele>
        <time>2026-05-13T07:18:16Z</time>
      </trkpt>
      <trkpt lat="48.72755" lon="7.33136">
        <ele>198</ele>
        <time>2026-05-13T07:18:20Z</time>
      </trkpt>
      <trkpt lat="48.72786" lon="7.33168">
        <ele>197</ele>
        <time>2026-05-13T07:18:26Z</time>
      </trkpt>
      <trkpt lat="48.72824" lon="7.33198">
        <ele>198</ele>
        <time>2026-05-13T07:18:34Z</time>
      </trkpt>
      <trkpt lat="48.72848" lon="7.33214">
        <ele>197</ele>
        <time>2026-05-13T07:18:39Z</time>
      </trkpt>
      <trkpt lat="48.7287" lon="7.33224">
        <ele>197</ele>
        <time>2026-05-13T07:18:43Z</time>
      </trkpt>
      <trkpt lat="48.72948" lon="7.33251">
        <ele>196</ele>
        <time>2026-05-13T07:18:57Z</time>
      </trkpt>
      <trkpt lat="48.72963" lon="7.33257">
        <ele>197</ele>
        <time>2026-05-13T07:19:00Z</time>
      </trkpt>
      <trkpt lat="48.72981" lon="7.33265">
        <ele>198</ele>
        <time>2026-05-13T07:19:03Z</time>
      </trkpt>
      <trkpt lat="48.72997" lon="7.33275">
        <ele>199</ele>
        <time>2026-05-13T07:19:06Z</time>
      </trkpt>
      <trkpt lat="48.73021" lon="7.33294">
        <ele>199</ele>
        <time>2026-05-13T07:19:11Z</time>
      </trkpt>
      <trkpt lat="48.73038" lon="7.33317">
        <ele>197</ele>
        <time>2026-05-13T07:19:15Z</time>
      </trkpt>
      <trkpt lat="48.7305" lon="7.33338">
        <ele>196</ele>
        <time>2026-05-13T07:19:18Z</time>
      </trkpt>
      <trkpt lat="48.73055" lon="7.33348">
        <ele>196</ele>
        <time>2026-05-13T07:19:20Z</time>
      </trkpt>
      <trkpt lat="48.73059" lon="7.33358">
        <ele>196</ele>
        <time>2026-05-13T07:19:21Z</time>
      </trkpt>
      <trkpt lat="48.73066" lon="7.33382">
        <ele>196</ele>
        <time>2026-05-13T07:19:24Z</time>
      </trkpt>
      <trkpt lat="48.73075" lon="7.33427">
        <ele>195</ele>
        <time>2026-05-13T07:19:30Z</time>
      </trkpt>
      <trkpt lat="48.73079" lon="7.3344">
        <ele>196</ele>
        <time>2026-05-13T07:19:31Z</time>
      </trkpt>
      <trkpt lat="48.7309" lon="7.33465">
        <ele>197</ele>
        <time>2026-05-13T07:19:35Z</time>
      </trkpt>
      <trkpt lat="48.73095" lon="7.33494">
        <ele>198</ele>
        <time>2026-05-13T07:19:38Z</time>
      </trkpt>
      <trkpt lat="48.73096" lon="7.33511">
        <ele>199</ele>
        <time>2026-05-13T07:19:40Z</time>
      </trkpt>
      <trkpt lat="48.73104" lon="7.33561">
        <ele>200</ele>
        <time>2026-05-13T07:19:46Z</time>
      </trkpt>
      <trkpt lat="48.73107" lon="7.33582">
        <ele>201</ele>
        <time>2026-05-13T07:19:49Z</time>
      </trkpt>
      <trkpt lat="48.73109" lon="7.33597">
        <ele>201</ele>
        <time>2026-05-13T07:19:51Z</time>
      </trkpt>
      <trkpt lat="48.73118" lon="7.3366">
        <ele>201</ele>
        <time>2026-05-13T07:19:58Z</time>
      </trkpt>
      <trkpt lat="48.73124" lon="7.33719">
        <ele>201</ele>
        <time>2026-05-13T07:20:05Z</time>
      </trkpt>
      <trkpt lat="48.73127" lon="7.33759">
        <ele>202</ele>
        <time>2026-05-13T07:20:10Z</time>
      </trkpt>
      <trkpt lat="48.73126" lon="7.33776">
        <ele>203</ele>
        <time>2026-05-13T07:20:12Z</time>
      </trkpt>
      <trkpt lat="48.73132" lon="7.33864">
        <ele>205</ele>
        <time>2026-05-13T07:20:22Z</time>
      </trkpt>
      <trkpt lat="48.73153" lon="7.33964">
        <ele>204</ele>
        <time>2026-05-13T07:20:35Z</time>
      </trkpt>
      <trkpt lat="48.73159" lon="7.33989">
        <ele>204</ele>
        <time>2026-05-13T07:20:38Z</time>
      </trkpt>
      <trkpt lat="48.73171" lon="7.34028">
        <ele>207</ele>
        <time>2026-05-13T07:20:43Z</time>
      </trkpt>
      <trkpt lat="48.73177" lon="7.34043">
        <ele>209</ele>
        <time>2026-05-13T07:20:45Z</time>
      </trkpt>
      <trkpt lat="48.73183" lon="7.34055">
        <ele>210</ele>
        <time>2026-05-13T07:20:47Z</time>
      </trkpt>
      <trkpt lat="48.7319" lon="7.34066">
        <ele>210</ele>
        <time>2026-05-13T07:20:48Z</time>
      </trkpt>
      <trkpt lat="48.73198" lon="7.34077">
        <ele>210</ele>
        <time>2026-05-13T07:20:50Z</time>
      </trkpt>
      <trkpt lat="48.73206" lon="7.34084">
        <ele>209</ele>
        <time>2026-05-13T07:20:52Z</time>
      </trkpt>
      <trkpt lat="48.73238" lon="7.3411">
        <ele>208</ele>
        <time>2026-05-13T07:20:58Z</time>
      </trkpt>
      <trkpt lat="48.73375" lon="7.3419">
        <ele>200</ele>
        <time>2026-05-13T07:21:25Z</time>
      </trkpt>
      <trkpt lat="48.73396" lon="7.34209">
        <ele>201</ele>
        <time>2026-05-13T07:21:29Z</time>
      </trkpt>
      <trkpt lat="48.73399" lon="7.34219">
        <ele>202</ele>
        <time>2026-05-13T07:21:30Z</time>
      </trkpt>
      <trkpt lat="48.73416" lon="7.34236">
        <ele>202</ele>
        <time>2026-05-13T07:21:34Z</time>
      </trkpt>
      <trkpt lat="48.73426" lon="7.34238">
        <ele>201</ele>
        <time>2026-05-13T07:21:36Z</time>
      </trkpt>
      <trkpt lat="48.73442" lon="7.34258">
        <ele>202</ele>
        <time>2026-05-13T07:21:39Z</time>
      </trkpt>
      <trkpt lat="48.73459" lon="7.34283">
        <ele>203</ele>
        <time>2026-05-13T07:21:44Z</time>
      </trkpt>
      <trkpt lat="48.73508" lon="7.34365">
        <ele>206</ele>
        <time>2026-05-13T07:21:57Z</time>
      </trkpt>
      <trkpt lat="48.73575" lon="7.34476">
        <ele>209</ele>
        <time>2026-05-13T07:22:14Z</time>
      </trkpt>
      <trkpt lat="48.73613" lon="7.34536">
        <ele>210</ele>
        <time>2026-05-13T07:22:24Z</time>
      </trkpt>
      <trkpt lat="48.73645" lon="7.34583">
        <ele>208</ele>
        <time>2026-05-13T07:22:32Z</time>
      </trkpt>
      <trkpt lat="48.73727" lon="7.34688">
        <ele>215</ele>
        <time>2026-05-13T07:22:51Z</time>
      </trkpt>
      <trkpt lat="48.73813" lon="7.34751">
        <ele>207</ele>
        <time>2026-05-13T07:23:08Z</time>
      </trkpt>
      <trkpt lat="48.73839" lon="7.34768">
        <ele>205</ele>
        <time>2026-05-13T07:23:13Z</time>
      </trkpt>
      <trkpt lat="48.73869" lon="7.34796">
        <ele>208</ele>
        <time>2026-05-13T07:23:19Z</time>
      </trkpt>
      <trkpt lat="48.73951" lon="7.34877">
        <ele>206</ele>
        <time>2026-05-13T07:23:37Z</time>
      </trkpt>
      <trkpt lat="48.74003" lon="7.34927">
        <ele>202</ele>
        <time>2026-05-13T07:23:48Z</time>
      </trkpt>
      <trkpt lat="48.74031" lon="7.34963">
        <ele>200</ele>
        <time>2026-05-13T07:23:54Z</time>
      </trkpt>
      <trkpt lat="48.74056" lon="7.35017">
        <ele>197</ele>
        <time>2026-05-13T07:24:02Z</time>
      </trkpt>
      <trkpt lat="48.74068" lon="7.35052">
        <ele>196</ele>
        <time>2026-05-13T07:24:07Z</time>
      </trkpt>
      <trkpt lat="48.74076" lon="7.35086">
        <ele>197</ele>
        <time>2026-05-13T07:24:11Z</time>
      </trkpt>
      <trkpt lat="48.74085" lon="7.35127">
        <ele>197</ele>
        <time>2026-05-13T07:24:16Z</time>
      </trkpt>
      <trkpt lat="48.74089" lon="7.35164">
        <ele>197</ele>
        <time>2026-05-13T07:24:20Z</time>
      </trkpt>
      <trkpt lat="48.74092" lon="7.35192">
        <ele>196</ele>
        <time>2026-05-13T07:24:24Z</time>
      </trkpt>
      <trkpt lat="48.74094" lon="7.35218">
        <ele>195</ele>
        <time>2026-05-13T07:24:27Z</time>
      </trkpt>
      <trkpt lat="48.74094" lon="7.35266">
        <ele>194</ele>
        <time>2026-05-13T07:24:32Z</time>
      </trkpt>
      <trkpt lat="48.74094" lon="7.35357">
        <ele>192</ele>
        <time>2026-05-13T07:24:43Z</time>
      </trkpt>
      <trkpt lat="48.74091" lon="7.35453">
        <ele>193</ele>
        <time>2026-05-13T07:24:54Z</time>
      </trkpt>
      <trkpt lat="48.7409" lon="7.35485">
        <ele>193</ele>
        <time>2026-05-13T07:24:58Z</time>
      </trkpt>
      <trkpt lat="48.74088" lon="7.35626">
        <ele>196</ele>
        <time>2026-05-13T07:25:15Z</time>
      </trkpt>
      <trkpt lat="48.74091" lon="7.35637">
        <ele>196</ele>
        <time>2026-05-13T07:25:16Z</time>
      </trkpt>
      <trkpt lat="48.74092" lon="7.35652">
        <ele>197</ele>
        <time>2026-05-13T07:25:18Z</time>
      </trkpt>
      <trkpt lat="48.74088" lon="7.35823">
        <ele>197</ele>
        <time>2026-05-13T07:25:38Z</time>
      </trkpt>
      <trkpt lat="48.74092" lon="7.35652">
        <ele>197</ele>
        <time>2026-05-13T07:25:58Z</time>
      </trkpt>
      <trkpt lat="48.74091" lon="7.35637">
        <ele>196</ele>
        <time>2026-05-13T07:26:00Z</time>
      </trkpt>
      <trkpt lat="48.74088" lon="7.35626">
        <ele>196</ele>
        <time>2026-05-13T07:26:01Z</time>
      </trkpt>
      <trkpt lat="48.7409" lon="7.35485">
        <ele>193</ele>
        <time>2026-05-13T07:26:18Z</time>
      </trkpt>
      <trkpt lat="48.74091" lon="7.35453">
        <ele>193</ele>
        <time>2026-05-13T07:26:21Z</time>
      </trkpt>
      <trkpt lat="48.74083" lon="7.35455">
        <ele>194</ele>
        <time>2026-05-13T07:26:23Z</time>
      </trkpt>
      <trkpt lat="48.7404" lon="7.35471">
        <ele>197</ele>
        <time>2026-05-13T07:26:31Z</time>
      </trkpt>
      <trkpt lat="48.74042" lon="7.35506">
        <ele>197</ele>
        <time>2026-05-13T07:26:35Z</time>
      </trkpt>
      <trkpt lat="48.74046" lon="7.35523">
        <ele>197</ele>
        <time>2026-05-13T07:26:37Z</time>
      </trkpt>
      <trkpt lat="48.74049" lon="7.35537">
        <ele>197</ele>
        <time>2026-05-13T07:26:39Z</time>
      </trkpt>
      <trkpt lat="48.74073" lon="7.356">
        <ele>196</ele>
        <time>2026-05-13T07:26:47Z</time>
      </trkpt>
      <trkpt lat="48.74076" lon="7.35611">
        <ele>197</ele>
        <time>2026-05-13T07:26:49Z</time>
      </trkpt>
      <trkpt lat="48.74078" lon="7.3562">
        <ele>197</ele>
        <time>2026-05-13T07:26:50Z</time>
      </trkpt>
      <trkpt lat="48.74078" lon="7.35643">
        <ele>198</ele>
        <time>2026-05-13T07:26:52Z</time>
      </trkpt>
      <trkpt lat="48.74075" lon="7.35736">
        <ele>199</ele>
        <time>2026-05-13T07:27:03Z</time>
      </trkpt>
      <trkpt lat="48.74072" lon="7.35778">
        <ele>199</ele>
        <time>2026-05-13T07:27:08Z</time>
      </trkpt>
      <trkpt lat="48.74071" lon="7.35799">
        <ele>199</ele>
        <time>2026-05-13T07:27:11Z</time>
      </trkpt>
      <trkpt lat="48.7407" lon="7.35839">
        <ele>199</ele>
        <time>2026-05-13T07:27:15Z</time>
      </trkpt>
      <trkpt lat="48.74069" lon="7.35923">
        <ele>201</ele>
        <time>2026-05-13T07:27:25Z</time>
      </trkpt>
      <trkpt lat="48.7407" lon="7.35929">
        <ele>201</ele>
        <time>2026-05-13T07:27:26Z</time>
      </trkpt>
      <trkpt lat="48.74073" lon="7.35936">
        <ele>201</ele>
        <time>2026-05-13T07:27:27Z</time>
      </trkpt>
      <trkpt lat="48.74018" lon="7.35907">
        <ele>206</ele>
        <time>2026-05-13T07:27:37Z</time>
      </trkpt>
      <trkpt lat="48.74009" lon="7.35903">
        <ele>207</ele>
        <time>2026-05-13T07:27:39Z</time>
      </trkpt>
      <trkpt lat="48.73985" lon="7.35894">
        <ele>208</ele>
        <time>2026-05-13T07:27:43Z</time>
      </trkpt>
      <trkpt lat="48.73976" lon="7.35889">
        <ele>209</ele>
        <time>2026-05-13T07:27:45Z</time>
      </trkpt>
      <trkpt lat="48.73968" lon="7.35888">
        <ele>209</ele>
        <time>2026-05-13T07:27:47Z</time>
      </trkpt>
      <trkpt lat="48.73931" lon="7.35896">
        <ele>212</ele>
        <time>2026-05-13T07:27:53Z</time>
      </trkpt>
      <trkpt lat="48.7392" lon="7.35896">
        <ele>213</ele>
        <time>2026-05-13T07:27:55Z</time>
      </trkpt>
      <trkpt lat="48.73873" lon="7.35884">
        <ele>217</ele>
        <time>2026-05-13T07:28:04Z</time>
      </trkpt>
      <trkpt lat="48.73852" lon="7.35881">
        <ele>218</ele>
        <time>2026-05-13T07:28:07Z</time>
      </trkpt>
      <trkpt lat="48.73836" lon="7.35878">
        <ele>220</ele>
        <time>2026-05-13T07:28:10Z</time>
      </trkpt>
      <trkpt lat="48.7383" lon="7.35878">
        <ele>220</ele>
        <time>2026-05-13T07:28:11Z</time>
      </trkpt>
      <trkpt lat="48.73807" lon="7.35875">
        <ele>222</ele>
        <time>2026-05-13T07:28:15Z</time>
      </trkpt>
      <trkpt lat="48.73792" lon="7.35873">
        <ele>223</ele>
        <time>2026-05-13T07:28:18Z</time>
      </trkpt>
      <trkpt lat="48.73786" lon="7.35876">
        <ele>223</ele>
        <time>2026-05-13T07:28:19Z</time>
      </trkpt>
      <trkpt lat="48.73782" lon="7.35867">
        <ele>223</ele>
        <time>2026-05-13T07:28:21Z</time>
      </trkpt>
      <trkpt lat="48.73781" lon="7.35859">
        <ele>224</ele>
        <time>2026-05-13T07:28:21Z</time>
      </trkpt>
      <trkpt lat="48.73778" lon="7.35809">
        <ele>226</ele>
        <time>2026-05-13T07:28:27Z</time>
      </trkpt>
      <trkpt lat="48.73775" lon="7.35795">
        <ele>226</ele>
        <time>2026-05-13T07:28:29Z</time>
      </trkpt>
      <trkpt lat="48.7377" lon="7.35784">
        <ele>227</ele>
        <time>2026-05-13T07:28:31Z</time>
      </trkpt>
      <trkpt lat="48.73766" lon="7.35779">
        <ele>228</ele>
        <time>2026-05-13T07:28:32Z</time>
      </trkpt>
      <trkpt lat="48.73762" lon="7.35774">
        <ele>228</ele>
        <time>2026-05-13T07:28:33Z</time>
      </trkpt>
      <trkpt lat="48.73756" lon="7.35769">
        <ele>229</ele>
        <time>2026-05-13T07:28:34Z</time>
      </trkpt>
      <trkpt lat="48.73753" lon="7.35768">
        <ele>229</ele>
        <time>2026-05-13T07:28:34Z</time>
      </trkpt>
      <trkpt lat="48.73743" lon="7.35764">
        <ele>230</ele>
        <time>2026-05-13T07:28:36Z</time>
      </trkpt>
      <trkpt lat="48.73732" lon="7.35767">
        <ele>231</ele>
        <time>2026-05-13T07:28:38Z</time>
      </trkpt>
      <trkpt lat="48.73724" lon="7.35774">
        <ele>231</ele>
        <time>2026-05-13T07:28:40Z</time>
      </trkpt>
      <trkpt lat="48.7368" lon="7.35823">
        <ele>233</ele>
        <time>2026-05-13T07:28:49Z</time>
      </trkpt>
      <trkpt lat="48.73659" lon="7.35842">
        <ele>234</ele>
        <time>2026-05-13T07:28:54Z</time>
      </trkpt>
      <trkpt lat="48.73643" lon="7.35854">
        <ele>235</ele>
        <time>2026-05-13T07:28:57Z</time>
      </trkpt>
      <trkpt lat="48.7362" lon="7.3586">
        <ele>237</ele>
        <time>2026-05-13T07:29:01Z</time>
      </trkpt>
      <trkpt lat="48.73613" lon="7.3586">
        <ele>237</ele>
        <time>2026-05-13T07:29:02Z</time>
      </trkpt>
      <trkpt lat="48.73606" lon="7.35859">
        <ele>238</ele>
        <time>2026-05-13T07:29:04Z</time>
      </trkpt>
      <trkpt lat="48.73599" lon="7.35857">
        <ele>239</ele>
        <time>2026-05-13T07:29:05Z</time>
      </trkpt>
      <trkpt lat="48.73592" lon="7.35854">
        <ele>239</ele>
        <time>2026-05-13T07:29:06Z</time>
      </trkpt>
      <trkpt lat="48.73587" lon="7.35851">
        <ele>240</ele>
        <time>2026-05-13T07:29:07Z</time>
      </trkpt>
      <trkpt lat="48.73579" lon="7.35845">
        <ele>241</ele>
        <time>2026-05-13T07:29:09Z</time>
      </trkpt>
      <trkpt lat="48.73573" lon="7.35837">
        <ele>241</ele>
        <time>2026-05-13T07:29:10Z</time>
      </trkpt>
      <trkpt lat="48.73548" lon="7.35866">
        <ele>239</ele>
        <time>2026-05-13T07:29:16Z</time>
      </trkpt>
      <trkpt lat="48.73543" lon="7.35866">
        <ele>239</ele>
        <time>2026-05-13T07:29:17Z</time>
      </trkpt>
      <trkpt lat="48.73527" lon="7.35858">
        <ele>239</ele>
        <time>2026-05-13T07:29:20Z</time>
      </trkpt>
      <trkpt lat="48.7348" lon="7.35834">
        <ele>239</ele>
        <time>2026-05-13T07:29:28Z</time>
      </trkpt>
      <trkpt lat="48.73474" lon="7.35828">
        <ele>239</ele>
        <time>2026-05-13T07:29:30Z</time>
      </trkpt>
      <trkpt lat="48.73468" lon="7.35817">
        <ele>239</ele>
        <time>2026-05-13T07:29:31Z</time>
      </trkpt>
      <trkpt lat="48.73425" lon="7.35796">
        <ele>238</ele>
        <time>2026-05-13T07:29:39Z</time>
      </trkpt>
      <trkpt lat="48.73431" lon="7.35765">
        <ele>240</ele>
        <time>2026-05-13T07:29:43Z</time>
      </trkpt>
      <trkpt lat="48.73431" lon="7.35759">
        <ele>240</ele>
        <time>2026-05-13T07:29:44Z</time>
      </trkpt>
      <trkpt lat="48.73427" lon="7.35755">
        <ele>240</ele>
        <time>2026-05-13T07:29:45Z</time>
      </trkpt>
      <trkpt lat="48.73378" lon="7.3573">
        <ele>238</ele>
        <time>2026-05-13T07:29:54Z</time>
      </trkpt>
      <trkpt lat="48.73343" lon="7.35713">
        <ele>236</ele>
        <time>2026-05-13T07:30:01Z</time>
      </trkpt>
      <trkpt lat="48.73332" lon="7.3571">
        <ele>235</ele>
        <time>2026-05-13T07:30:03Z</time>
      </trkpt>
      <trkpt lat="48.73323" lon="7.35711">
        <ele>235</ele>
        <time>2026-05-13T07:30:04Z</time>
      </trkpt>
      <trkpt lat="48.73257" lon="7.35727">
        <ele>230</ele>
        <time>2026-05-13T07:30:16Z</time>
      </trkpt>
      <trkpt lat="48.73248" lon="7.35727">
        <ele>230</ele>
        <time>2026-05-13T07:30:18Z</time>
      </trkpt>
      <trkpt lat="48.73224" lon="7.35655">
        <ele>233</ele>
        <time>2026-05-13T07:30:27Z</time>
      </trkpt>
      <trkpt lat="48.73221" lon="7.35645">
        <ele>233</ele>
        <time>2026-05-13T07:30:28Z</time>
      </trkpt>
      <trkpt lat="48.73214" lon="7.35617">
        <ele>233</ele>
        <time>2026-05-13T07:30:32Z</time>
      </trkpt>
      <trkpt lat="48.73209" lon="7.35604">
        <ele>234</ele>
        <time>2026-05-13T07:30:34Z</time>
      </trkpt>
      <trkpt lat="48.73161" lon="7.35682">
        <ele>233</ele>
        <time>2026-05-13T07:30:46Z</time>
      </trkpt>
      <trkpt lat="48.73153" lon="7.3569">
        <ele>233</ele>
        <time>2026-05-13T07:30:48Z</time>
      </trkpt>
      <trkpt lat="48.73114" lon="7.35716">
        <ele>233</ele>
        <time>2026-05-13T07:30:55Z</time>
      </trkpt>
      <trkpt lat="48.73109" lon="7.3572">
        <ele>233</ele>
        <time>2026-05-13T07:30:56Z</time>
      </trkpt>
      <trkpt lat="48.73105" lon="7.35724">
        <ele>233</ele>
        <time>2026-05-13T07:30:57Z</time>
      </trkpt>
      <trkpt lat="48.73101" lon="7.35732">
        <ele>233</ele>
        <time>2026-05-13T07:30:59Z</time>
      </trkpt>
      <trkpt lat="48.7309" lon="7.35761">
        <ele>234</ele>
        <time>2026-05-13T07:31:02Z</time>
      </trkpt>
      <trkpt lat="48.73044" lon="7.35726">
        <ele>232</ele>
        <time>2026-05-13T07:31:12Z</time>
      </trkpt>
      <trkpt lat="48.73029" lon="7.35811">
        <ele>233</ele>
        <time>2026-05-13T07:31:22Z</time>
      </trkpt>
      <trkpt lat="48.73025" lon="7.35813">
        <ele>233</ele>
        <time>2026-05-13T07:31:23Z</time>
      </trkpt>
      <trkpt lat="48.73012" lon="7.35879">
        <ele>235</ele>
        <time>2026-05-13T07:31:31Z</time>
      </trkpt>
      <trkpt lat="48.72997" lon="7.35939">
        <ele>236</ele>
        <time>2026-05-13T07:31:38Z</time>
      </trkpt>
      <trkpt lat="48.72984" lon="7.3598">
        <ele>236</ele>
        <time>2026-05-13T07:31:44Z</time>
      </trkpt>
      <trkpt lat="48.72949" lon="7.36065">
        <ele>236</ele>
        <time>2026-05-13T07:31:55Z</time>
      </trkpt>
      <trkpt lat="48.72907" lon="7.36135">
        <ele>237</ele>
        <time>2026-05-13T07:32:07Z</time>
      </trkpt>
      <trkpt lat="48.72871" lon="7.36198">
        <ele>239</ele>
        <time>2026-05-13T07:32:16Z</time>
      </trkpt>
      <trkpt lat="48.72858" lon="7.36221">
        <ele>240</ele>
        <time>2026-05-13T07:32:20Z</time>
      </trkpt>
      <trkpt lat="48.72855" lon="7.36236">
        <ele>240</ele>
        <time>2026-05-13T07:32:22Z</time>
      </trkpt>
      <trkpt lat="48.72849" lon="7.36248">
        <ele>241</ele>
        <time>2026-05-13T07:32:23Z</time>
      </trkpt>
      <trkpt lat="48.72832" lon="7.36264">
        <ele>241</ele>
        <time>2026-05-13T07:32:27Z</time>
      </trkpt>
      <trkpt lat="48.72824" lon="7.36278">
        <ele>241</ele>
        <time>2026-05-13T07:32:29Z</time>
      </trkpt>
      <trkpt lat="48.72818" lon="7.36272">
        <ele>241</ele>
        <time>2026-05-13T07:32:30Z</time>
      </trkpt>
      <trkpt lat="48.72809" lon="7.36267">
        <ele>240</ele>
        <time>2026-05-13T07:32:32Z</time>
      </trkpt>
      <trkpt lat="48.72794" lon="7.36267">
        <ele>239</ele>
        <time>2026-05-13T07:32:35Z</time>
      </trkpt>
      <trkpt lat="48.72751" lon="7.36267">
        <ele>237</ele>
        <time>2026-05-13T07:32:42Z</time>
      </trkpt>
      <trkpt lat="48.72733" lon="7.36263">
        <ele>236</ele>
        <time>2026-05-13T07:32:46Z</time>
      </trkpt>
      <trkpt lat="48.72537" lon="7.36205">
        <ele>222</ele>
        <time>2026-05-13T07:33:21Z</time>
      </trkpt>
      <trkpt lat="48.72451" lon="7.36179">
        <ele>215</ele>
        <time>2026-05-13T07:33:37Z</time>
      </trkpt>
      <trkpt lat="48.72392" lon="7.3616">
        <ele>212</ele>
        <time>2026-05-13T07:33:48Z</time>
      </trkpt>
      <trkpt lat="48.72366" lon="7.3615">
        <ele>211</ele>
        <time>2026-05-13T07:33:52Z</time>
      </trkpt>
      <trkpt lat="48.72361" lon="7.36147">
        <ele>210</ele>
        <time>2026-05-13T07:33:53Z</time>
      </trkpt>
      <trkpt lat="48.72356" lon="7.36144">
        <ele>210</ele>
        <time>2026-05-13T07:33:54Z</time>
      </trkpt>
      <trkpt lat="48.72354" lon="7.36143">
        <ele>210</ele>
        <time>2026-05-13T07:33:55Z</time>
      </trkpt>
      <trkpt lat="48.72333" lon="7.36133">
        <ele>209</ele>
        <time>2026-05-13T07:33:59Z</time>
      </trkpt>
      <trkpt lat="48.7229" lon="7.36112">
        <ele>211</ele>
        <time>2026-05-13T07:34:07Z</time>
      </trkpt>
      <trkpt lat="48.72278" lon="7.36107">
        <ele>211</ele>
        <time>2026-05-13T07:34:09Z</time>
      </trkpt>
      <trkpt lat="48.72264" lon="7.36106">
        <ele>211</ele>
        <time>2026-05-13T07:34:11Z</time>
      </trkpt>
      <trkpt lat="48.72257" lon="7.36108">
        <ele>211</ele>
        <time>2026-05-13T07:34:13Z</time>
      </trkpt>
      <trkpt lat="48.72246" lon="7.36113">
        <ele>211</ele>
        <time>2026-05-13T07:34:15Z</time>
      </trkpt>
      <trkpt lat="48.7223" lon="7.36124">
        <ele>211</ele>
        <time>2026-05-13T07:34:18Z</time>
      </trkpt>
      <trkpt lat="48.7222" lon="7.36132">
        <ele>210</ele>
        <time>2026-05-13T07:34:20Z</time>
      </trkpt>
      <trkpt lat="48.72203" lon="7.36147">
        <ele>209</ele>
        <time>2026-05-13T07:34:23Z</time>
      </trkpt>
      <trkpt lat="48.72193" lon="7.36155">
        <ele>209</ele>
        <time>2026-05-13T07:34:25Z</time>
      </trkpt>
      <trkpt lat="48.72168" lon="7.36173">
        <ele>208</ele>
        <time>2026-05-13T07:34:30Z</time>
      </trkpt>
      <trkpt lat="48.72113" lon="7.36203">
        <ele>204</ele>
        <time>2026-05-13T07:34:41Z</time>
      </trkpt>
      <trkpt lat="48.721" lon="7.36211">
        <ele>203</ele>
        <time>2026-05-13T07:34:43Z</time>
      </trkpt>
      <trkpt lat="48.72097" lon="7.36214">
        <ele>202</ele>
        <time>2026-05-13T07:34:44Z</time>
      </trkpt>
      <trkpt lat="48.72044" lon="7.36256">
        <ele>198</ele>
        <time>2026-05-13T07:34:54Z</time>
      </trkpt>
      <trkpt lat="48.72002" lon="7.36281">
        <ele>196</ele>
        <time>2026-05-13T07:35:02Z</time>
      </trkpt>
      <trkpt lat="48.71994" lon="7.36286">
        <ele>196</ele>
        <time>2026-05-13T07:35:04Z</time>
      </trkpt>
      <trkpt lat="48.7198" lon="7.3629">
        <ele>196</ele>
        <time>2026-05-13T07:35:06Z</time>
      </trkpt>
      <trkpt lat="48.71974" lon="7.36291">
        <ele>196</ele>
        <time>2026-05-13T07:35:08Z</time>
      </trkpt>
      <trkpt lat="48.71966" lon="7.36291">
        <ele>195</ele>
        <time>2026-05-13T07:35:09Z</time>
      </trkpt>
      <trkpt lat="48.71959" lon="7.36288">
        <ele>195</ele>
        <time>2026-05-13T07:35:10Z</time>
      </trkpt>
      <trkpt lat="48.71887" lon="7.36243">
        <ele>195</ele>
        <time>2026-05-13T07:35:24Z</time>
      </trkpt>
      <trkpt lat="48.7185" lon="7.36222">
        <ele>195</ele>
        <time>2026-05-13T07:35:31Z</time>
      </trkpt>
      <trkpt lat="48.71814" lon="7.36202">
        <ele>195</ele>
        <time>2026-05-13T07:35:38Z</time>
      </trkpt>
      <trkpt lat="48.7181" lon="7.36203">
        <ele>195</ele>
        <time>2026-05-13T07:35:39Z</time>
      </trkpt>
      <trkpt lat="48.71806" lon="7.36205">
        <ele>195</ele>
        <time>2026-05-13T07:35:39Z</time>
      </trkpt>
      <trkpt lat="48.71693" lon="7.36269">
        <ele>199</ele>
        <time>2026-05-13T07:36:01Z</time>
      </trkpt>
      <trkpt lat="48.71688" lon="7.36272">
        <ele>199</ele>
        <time>2026-05-13T07:36:02Z</time>
      </trkpt>
      <trkpt lat="48.71616" lon="7.363">
        <ele>201</ele>
        <time>2026-05-13T07:36:15Z</time>
      </trkpt>
      <trkpt lat="48.71543" lon="7.3633">
        <ele>203</ele>
        <time>2026-05-13T07:36:29Z</time>
      </trkpt>
      <trkpt lat="48.71436" lon="7.36379">
        <ele>213</ele>
        <time>2026-05-13T07:36:48Z</time>
      </trkpt>
      <trkpt lat="48.71422" lon="7.36384">
        <ele>214</ele>
        <time>2026-05-13T07:36:51Z</time>
      </trkpt>
      <trkpt lat="48.71359" lon="7.364">
        <ele>217</ele>
        <time>2026-05-13T07:37:02Z</time>
      </trkpt>
      <trkpt lat="48.71321" lon="7.36404">
        <ele>219</ele>
        <time>2026-05-13T07:37:09Z</time>
      </trkpt>
      <trkpt lat="48.71198" lon="7.36403">
        <ele>221</ele>
        <time>2026-05-13T07:37:31Z</time>
      </trkpt>
      <trkpt lat="48.71037" lon="7.36399">
        <ele>222</ele>
        <time>2026-05-13T07:38:00Z</time>
      </trkpt>
      <trkpt lat="48.71" lon="7.36401">
        <ele>223</ele>
        <time>2026-05-13T07:38:06Z</time>
      </trkpt>
      <trkpt lat="48.70998" lon="7.36404">
        <ele>223</ele>
        <time>2026-05-13T07:38:07Z</time>
      </trkpt>
      <trkpt lat="48.70997" lon="7.36408">
        <ele>223</ele>
        <time>2026-05-13T07:38:07Z</time>
      </trkpt>
      <trkpt lat="48.70979" lon="7.364">
        <ele>223</ele>
        <time>2026-05-13T07:38:11Z</time>
      </trkpt>
      <trkpt lat="48.7097" lon="7.36398">
        <ele>223</ele>
        <time>2026-05-13T07:38:12Z</time>
      </trkpt>
      <trkpt lat="48.70962" lon="7.36397">
        <ele>223</ele>
        <time>2026-05-13T07:38:14Z</time>
      </trkpt>
      <trkpt lat="48.70956" lon="7.3638">
        <ele>223</ele>
        <time>2026-05-13T07:38:16Z</time>
      </trkpt>
      <trkpt lat="48.70945" lon="7.36365">
        <ele>224</ele>
        <time>2026-05-13T07:38:19Z</time>
      </trkpt>
      <trkpt lat="48.70836" lon="7.36273">
        <ele>225</ele>
        <time>2026-05-13T07:38:41Z</time>
      </trkpt>
      <trkpt lat="48.70809" lon="7.3625">
        <ele>225</ele>
        <time>2026-05-13T07:38:46Z</time>
      </trkpt>
      <trkpt lat="48.70665" lon="7.36128">
        <ele>220</ele>
        <time>2026-05-13T07:39:16Z</time>
      </trkpt>
      <trkpt lat="48.70561" lon="7.36037">
        <ele>216</ele>
        <time>2026-05-13T07:39:37Z</time>
      </trkpt>
      <trkpt lat="48.70514" lon="7.35997">
        <ele>217</ele>
        <time>2026-05-13T07:39:47Z</time>
      </trkpt>
      <trkpt lat="48.70493" lon="7.35968">
        <ele>217</ele>
        <time>2026-05-13T07:39:52Z</time>
      </trkpt>
      <trkpt lat="48.70404" lon="7.35802">
        <ele>215</ele>
        <time>2026-05-13T07:40:17Z</time>
      </trkpt>
      <trkpt lat="48.70366" lon="7.35732">
        <ele>215</ele>
        <time>2026-05-13T07:40:27Z</time>
      </trkpt>
      <trkpt lat="48.70338" lon="7.35675">
        <ele>214</ele>
        <time>2026-05-13T07:40:36Z</time>
      </trkpt>
      <trkpt lat="48.7031" lon="7.35618">
        <ele>215</ele>
        <time>2026-05-13T07:40:44Z</time>
      </trkpt>
      <trkpt lat="48.70296" lon="7.35596">
        <ele>216</ele>
        <time>2026-05-13T07:40:48Z</time>
      </trkpt>
      <trkpt lat="48.7028" lon="7.35577">
        <ele>217</ele>
        <time>2026-05-13T07:40:51Z</time>
      </trkpt>
      <trkpt lat="48.70274" lon="7.35569">
        <ele>218</ele>
        <time>2026-05-13T07:40:53Z</time>
      </trkpt>
      <trkpt lat="48.70254" lon="7.35545">
        <ele>220</ele>
        <time>2026-05-13T07:40:57Z</time>
      </trkpt>
      <trkpt lat="48.70245" lon="7.35529">
        <ele>220</ele>
        <time>2026-05-13T07:41:00Z</time>
      </trkpt>
      <trkpt lat="48.70233" lon="7.35503">
        <ele>221</ele>
        <time>2026-05-13T07:41:03Z</time>
      </trkpt>
      <trkpt lat="48.70185" lon="7.35383">
        <ele>219</ele>
        <time>2026-05-13T07:41:20Z</time>
      </trkpt>
      <trkpt lat="48.70183" lon="7.35371">
        <ele>218</ele>
        <time>2026-05-13T07:41:21Z</time>
      </trkpt>
      <trkpt lat="48.70187" lon="7.3536">
        <ele>218</ele>
        <time>2026-05-13T07:41:23Z</time>
      </trkpt>
      <trkpt lat="48.70199" lon="7.35337">
        <ele>216</ele>
        <time>2026-05-13T07:41:26Z</time>
      </trkpt>
      <trkpt lat="48.70221" lon="7.35292">
        <ele>214</ele>
        <time>2026-05-13T07:41:33Z</time>
      </trkpt>
      <trkpt lat="48.70222" lon="7.35281">
        <ele>214</ele>
        <time>2026-05-13T07:41:34Z</time>
      </trkpt>
      <trkpt lat="48.70223" lon="7.35268">
        <ele>214</ele>
        <time>2026-05-13T07:41:36Z</time>
      </trkpt>
      <trkpt lat="48.70215" lon="7.35231">
        <ele>213</ele>
        <time>2026-05-13T07:41:40Z</time>
      </trkpt>
      <trkpt lat="48.70191" lon="7.35234">
        <ele>215</ele>
        <time>2026-05-13T07:41:45Z</time>
      </trkpt>
      <trkpt lat="48.70172" lon="7.35241">
        <ele>216</ele>
        <time>2026-05-13T07:41:48Z</time>
      </trkpt>
      <trkpt lat="48.70143" lon="7.35248">
        <ele>218</ele>
        <time>2026-05-13T07:41:53Z</time>
      </trkpt>
      <trkpt lat="48.70137" lon="7.35248">
        <ele>218</ele>
        <time>2026-05-13T07:41:54Z</time>
      </trkpt>
      <trkpt lat="48.70131" lon="7.35244">
        <ele>219</ele>
        <time>2026-05-13T07:41:56Z</time>
      </trkpt>
      <trkpt lat="48.70125" lon="7.35238">
        <ele>219</ele>
        <time>2026-05-13T07:41:57Z</time>
      </trkpt>
      <trkpt lat="48.70049" lon="7.351">
        <ele>223</ele>
        <time>2026-05-13T07:42:18Z</time>
      </trkpt>
      <trkpt lat="48.70045" lon="7.35091">
        <ele>223</ele>
        <time>2026-05-13T07:42:19Z</time>
      </trkpt>
      <trkpt lat="48.70024" lon="7.35012">
        <ele>221</ele>
        <time>2026-05-13T07:42:29Z</time>
      </trkpt>
      <trkpt lat="48.70018" lon="7.34997">
        <ele>221</ele>
        <time>2026-05-13T07:42:31Z</time>
      </trkpt>
      <trkpt lat="48.69973" lon="7.34922">
        <ele>221</ele>
        <time>2026-05-13T07:42:43Z</time>
      </trkpt>
      <trkpt lat="48.69924" lon="7.34845">
        <ele>224</ele>
        <time>2026-05-13T07:42:56Z</time>
      </trkpt>
      <trkpt lat="48.69881" lon="7.34799">
        <ele>226</ele>
        <time>2026-05-13T07:43:05Z</time>
      </trkpt>
      <trkpt lat="48.69826" lon="7.34749">
        <ele>226</ele>
        <time>2026-05-13T07:43:16Z</time>
      </trkpt>
      <trkpt lat="48.69816" lon="7.34745">
        <ele>227</ele>
        <time>2026-05-13T07:43:18Z</time>
      </trkpt>
      <trkpt lat="48.69809" lon="7.34728">
        <ele>227</ele>
        <time>2026-05-13T07:43:21Z</time>
      </trkpt>
      <trkpt lat="48.69768" lon="7.34672">
        <ele>226</ele>
        <time>2026-05-13T07:43:30Z</time>
      </trkpt>
      <trkpt lat="48.69698" lon="7.34561">
        <ele>227</ele>
        <time>2026-05-13T07:43:49Z</time>
      </trkpt>
      <trkpt lat="48.69675" lon="7.34528">
        <ele>227</ele>
        <time>2026-05-13T07:43:54Z</time>
      </trkpt>
      <trkpt lat="48.69625" lon="7.34485">
        <ele>228</ele>
        <time>2026-05-13T07:44:04Z</time>
      </trkpt>
      <trkpt lat="48.69594" lon="7.34453">
        <ele>229</ele>
        <time>2026-05-13T07:44:11Z</time>
      </trkpt>
      <trkpt lat="48.69574" lon="7.34427">
        <ele>230</ele>
        <time>2026-05-13T07:44:16Z</time>
      </trkpt>
      <trkpt lat="48.69538" lon="7.34356">
        <ele>231</ele>
        <time>2026-05-13T07:44:26Z</time>
      </trkpt>
      <trkpt lat="48.69524" lon="7.34321">
        <ele>230</ele>
        <time>2026-05-13T07:44:31Z</time>
      </trkpt>
      <trkpt lat="48.69513" lon="7.34282">
        <ele>231</ele>
        <time>2026-05-13T07:44:36Z</time>
      </trkpt>
      <trkpt lat="48.69508" lon="7.34268">
        <ele>231</ele>
        <time>2026-05-13T07:44:38Z</time>
      </trkpt>
      <trkpt lat="48.69466" lon="7.34189">
        <ele>233</ele>
        <time>2026-05-13T07:44:50Z</time>
      </trkpt>
      <trkpt lat="48.69438" lon="7.34127">
        <ele>235</ele>
        <time>2026-05-13T07:44:59Z</time>
      </trkpt>
      <trkpt lat="48.69432" lon="7.34108">
        <ele>235</ele>
        <time>2026-05-13T07:45:01Z</time>
      </trkpt>
      <trkpt lat="48.69404" lon="7.34033">
        <ele>237</ele>
        <time>2026-05-13T07:45:11Z</time>
      </trkpt>
      <trkpt lat="48.69364" lon="7.33926">
        <ele>240</ele>
        <time>2026-05-13T07:45:26Z</time>
      </trkpt>
      <trkpt lat="48.69357" lon="7.33901">
        <ele>242</ele>
        <time>2026-05-13T07:45:29Z</time>
      </trkpt>
      <trkpt lat="48.69352" lon="7.33881">
        <ele>243</ele>
        <time>2026-05-13T07:45:31Z</time>
      </trkpt>
      <trkpt lat="48.69329" lon="7.33751">
        <ele>247</ele>
        <time>2026-05-13T07:45:47Z</time>
      </trkpt>
      <trkpt lat="48.69324" lon="7.33719">
        <ele>248</ele>
        <time>2026-05-13T07:45:51Z</time>
      </trkpt>
      <trkpt lat="48.69314" lon="7.33679">
        <ele>249</ele>
        <time>2026-05-13T07:45:56Z</time>
      </trkpt>
      <trkpt lat="48.69282" lon="7.33577">
        <ele>253</ele>
        <time>2026-05-13T07:46:09Z</time>
      </trkpt>
      <trkpt lat="48.69254" lon="7.33488">
        <ele>257</ele>
        <time>2026-05-13T07:46:21Z</time>
      </trkpt>
      <trkpt lat="48.69235" lon="7.33414">
        <ele>261</ele>
        <time>2026-05-13T07:46:30Z</time>
      </trkpt>
      <trkpt lat="48.69232" lon="7.33381">
        <ele>263</ele>
        <time>2026-05-13T07:46:34Z</time>
      </trkpt>
      <trkpt lat="48.69229" lon="7.33307">
        <ele>267</ele>
        <time>2026-05-13T07:46:43Z</time>
      </trkpt>
      <trkpt lat="48.69227" lon="7.33257">
        <ele>269</ele>
        <time>2026-05-13T07:46:49Z</time>
      </trkpt>
      <trkpt lat="48.69221" lon="7.33166">
        <ele>276</ele>
        <time>2026-05-13T07:46:59Z</time>
      </trkpt>
      <trkpt lat="48.69213" lon="7.33109">
        <ele>282</ele>
        <time>2026-05-13T07:47:06Z</time>
      </trkpt>
      <trkpt lat="48.69198" lon="7.33039">
        <ele>289</ele>
        <time>2026-05-13T07:47:15Z</time>
      </trkpt>
      <trkpt lat="48.69192" lon="7.33018">
        <ele>290</ele>
        <time>2026-05-13T07:47:18Z</time>
      </trkpt>
      <trkpt lat="48.69173" lon="7.32984">
        <ele>294</ele>
        <time>2026-05-13T07:47:23Z</time>
      </trkpt>
      <trkpt lat="48.69162" lon="7.32966">
        <ele>296</ele>
        <time>2026-05-13T07:47:26Z</time>
      </trkpt>
      <trkpt lat="48.69155" lon="7.32954">
        <ele>298</ele>
        <time>2026-05-13T07:47:28Z</time>
      </trkpt>
      <trkpt lat="48.69109" lon="7.32892">
        <ele>302</ele>
        <time>2026-05-13T07:47:39Z</time>
      </trkpt>
      <trkpt lat="48.69069" lon="7.32847">
        <ele>303</ele>
        <time>2026-05-13T07:47:47Z</time>
      </trkpt>
      <trkpt lat="48.69042" lon="7.3282">
        <ele>303</ele>
        <time>2026-05-13T07:47:53Z</time>
      </trkpt>
      <trkpt lat="48.68983" lon="7.32762">
        <ele>300</ele>
        <time>2026-05-13T07:48:06Z</time>
      </trkpt>
      <trkpt lat="48.6897" lon="7.32751">
        <ele>300</ele>
        <time>2026-05-13T07:48:08Z</time>
      </trkpt>
      <trkpt lat="48.68948" lon="7.32732">
        <ele>301</ele>
        <time>2026-05-13T07:48:13Z</time>
      </trkpt>
      <trkpt lat="48.68916" lon="7.32704">
        <ele>301</ele>
        <time>2026-05-13T07:48:19Z</time>
      </trkpt>
      <trkpt lat="48.68904" lon="7.32689">
        <ele>302</ele>
        <time>2026-05-13T07:48:22Z</time>
      </trkpt>
      <trkpt lat="48.68891" lon="7.32659">
        <ele>306</ele>
        <time>2026-05-13T07:48:26Z</time>
      </trkpt>
      <trkpt lat="48.68878" lon="7.3264">
        <ele>310</ele>
        <time>2026-05-13T07:48:30Z</time>
      </trkpt>
      <trkpt lat="48.68832" lon="7.32593">
        <ele>313</ele>
        <time>2026-05-13T07:48:40Z</time>
      </trkpt>
      <trkpt lat="48.68814" lon="7.3257">
        <ele>315</ele>
        <time>2026-05-13T07:48:44Z</time>
      </trkpt>
      <trkpt lat="48.68799" lon="7.32538">
        <ele>319</ele>
        <time>2026-05-13T07:48:48Z</time>
      </trkpt>
      <trkpt lat="48.68791" lon="7.32521">
        <ele>321</ele>
        <time>2026-05-13T07:48:51Z</time>
      </trkpt>
      <trkpt lat="48.68768" lon="7.32488">
        <ele>320</ele>
        <time>2026-05-13T07:48:56Z</time>
      </trkpt>
      <trkpt lat="48.6871" lon="7.32423">
        <ele>320</ele>
        <time>2026-05-13T07:49:09Z</time>
      </trkpt>
      <trkpt lat="48.68636" lon="7.32352">
        <ele>328</ele>
        <time>2026-05-13T07:49:25Z</time>
      </trkpt>
      <trkpt lat="48.68593" lon="7.32314">
        <ele>334</ele>
        <time>2026-05-13T07:49:34Z</time>
      </trkpt>
      <trkpt lat="48.68555" lon="7.32267">
        <ele>339</ele>
        <time>2026-05-13T07:49:42Z</time>
      </trkpt>
      <trkpt lat="48.68542" lon="7.3225">
        <ele>340</ele>
        <time>2026-05-13T07:49:46Z</time>
      </trkpt>
      <trkpt lat="48.68447" lon="7.32153">
        <ele>340</ele>
        <time>2026-05-13T07:50:06Z</time>
      </trkpt>
      <trkpt lat="48.68423" lon="7.32129">
        <ele>340</ele>
        <time>2026-05-13T07:50:11Z</time>
      </trkpt>
      <trkpt lat="48.68374" lon="7.3209">
        <ele>343</ele>
        <time>2026-05-13T07:50:21Z</time>
      </trkpt>
      <trkpt lat="48.68371" lon="7.32087">
        <ele>343</ele>
        <time>2026-05-13T07:50:22Z</time>
      </trkpt>
      <trkpt lat="48.68276" lon="7.32013">
        <ele>340</ele>
        <time>2026-05-13T07:50:41Z</time>
      </trkpt>
      <trkpt lat="48.68192" lon="7.31938">
        <ele>335</ele>
        <time>2026-05-13T07:50:58Z</time>
      </trkpt>
      <trkpt lat="48.68093" lon="7.31887">
        <ele>333</ele>
        <time>2026-05-13T07:51:16Z</time>
      </trkpt>
      <trkpt lat="48.68073" lon="7.31874">
        <ele>331</ele>
        <time>2026-05-13T07:51:20Z</time>
      </trkpt>
      <trkpt lat="48.6799" lon="7.31831">
        <ele>322</ele>
        <time>2026-05-13T07:51:36Z</time>
      </trkpt>
      <trkpt lat="48.6798" lon="7.31829">
        <ele>322</ele>
        <time>2026-05-13T07:51:38Z</time>
      </trkpt>
      <trkpt lat="48.67972" lon="7.31834">
        <ele>320</ele>
        <time>2026-05-13T07:51:39Z</time>
      </trkpt>
      <trkpt lat="48.6795" lon="7.31868">
        <ele>316</ele>
        <time>2026-05-13T07:51:45Z</time>
      </trkpt>
      <trkpt lat="48.67942" lon="7.31875">
        <ele>315</ele>
        <time>2026-05-13T07:51:47Z</time>
      </trkpt>
      <trkpt lat="48.67941" lon="7.3187">
        <ele>316</ele>
        <time>2026-05-13T07:51:47Z</time>
      </trkpt>
      <trkpt lat="48.67939" lon="7.31866">
        <ele>316</ele>
        <time>2026-05-13T07:51:48Z</time>
      </trkpt>
      <trkpt lat="48.67934" lon="7.31862">
        <ele>316</ele>
        <time>2026-05-13T07:51:49Z</time>
      </trkpt>
      <trkpt lat="48.67873" lon="7.31817">
        <ele>320</ele>
        <time>2026-05-13T07:52:01Z</time>
      </trkpt>
      <trkpt lat="48.67845" lon="7.31794">
        <ele>322</ele>
        <time>2026-05-13T07:52:06Z</time>
      </trkpt>
      <trkpt lat="48.67827" lon="7.31778">
        <ele>323</ele>
        <time>2026-05-13T07:52:10Z</time>
      </trkpt>
      <trkpt lat="48.67796" lon="7.31753">
        <ele>325</ele>
        <time>2026-05-13T07:52:16Z</time>
      </trkpt>
      <trkpt lat="48.67769" lon="7.31737">
        <ele>328</ele>
        <time>2026-05-13T07:52:22Z</time>
      </trkpt>
      <trkpt lat="48.6774" lon="7.31723">
        <ele>330</ele>
        <time>2026-05-13T07:52:27Z</time>
      </trkpt>
      <trkpt lat="48.67712" lon="7.31712">
        <ele>333</ele>
        <time>2026-05-13T07:52:32Z</time>
      </trkpt>
      <trkpt lat="48.67694" lon="7.31707">
        <ele>333</ele>
        <time>2026-05-13T07:52:35Z</time>
      </trkpt>
      <trkpt lat="48.67687" lon="7.31705">
        <ele>334</ele>
        <time>2026-05-13T07:52:37Z</time>
      </trkpt>
      <trkpt lat="48.67544" lon="7.31666">
        <ele>338</ele>
        <time>2026-05-13T07:53:03Z</time>
      </trkpt>
      <trkpt lat="48.67511" lon="7.31655">
        <ele>341</ele>
        <time>2026-05-13T07:53:09Z</time>
      </trkpt>
      <trkpt lat="48.67499" lon="7.31649">
        <ele>342</ele>
        <time>2026-05-13T07:53:11Z</time>
      </trkpt>
      <trkpt lat="48.67442" lon="7.31604">
        <ele>348</ele>
        <time>2026-05-13T07:53:22Z</time>
      </trkpt>
      <trkpt lat="48.67426" lon="7.31596">
        <ele>349</ele>
        <time>2026-05-13T07:53:25Z</time>
      </trkpt>
      <trkpt lat="48.67407" lon="7.31589">
        <ele>348</ele>
        <time>2026-05-13T07:53:29Z</time>
      </trkpt>
      <trkpt lat="48.67392" lon="7.3158">
        <ele>348</ele>
        <time>2026-05-13T07:53:32Z</time>
      </trkpt>
      <trkpt lat="48.67357" lon="7.31552">
        <ele>349</ele>
        <time>2026-05-13T07:53:39Z</time>
      </trkpt>
      <trkpt lat="48.67325" lon="7.31522">
        <ele>348</ele>
        <time>2026-05-13T07:53:45Z</time>
      </trkpt>
      <trkpt lat="48.67311" lon="7.31504">
        <ele>347</ele>
        <time>2026-05-13T07:53:49Z</time>
      </trkpt>
      <trkpt lat="48.67302" lon="7.31486">
        <ele>347</ele>
        <time>2026-05-13T07:53:51Z</time>
      </trkpt>
      <trkpt lat="48.6729" lon="7.31426">
        <ele>349</ele>
        <time>2026-05-13T07:53:59Z</time>
      </trkpt>
      <trkpt lat="48.67279" lon="7.31369">
        <ele>349</ele>
        <time>2026-05-13T07:54:06Z</time>
      </trkpt>
      <trkpt lat="48.67266" lon="7.31261">
        <ele>351</ele>
        <time>2026-05-13T07:54:18Z</time>
      </trkpt>
      <trkpt lat="48.67265" lon="7.31216">
        <ele>352</ele>
        <time>2026-05-13T07:54:24Z</time>
      </trkpt>
      <trkpt lat="48.67268" lon="7.31103">
        <ele>358</ele>
        <time>2026-05-13T07:54:37Z</time>
      </trkpt>
      <trkpt lat="48.67266" lon="7.31074">
        <ele>358</ele>
        <time>2026-05-13T07:54:40Z</time>
      </trkpt>
      <trkpt lat="48.67264" lon="7.31059">
        <ele>358</ele>
        <time>2026-05-13T07:54:42Z</time>
      </trkpt>
      <trkpt lat="48.67259" lon="7.31052">
        <ele>357</ele>
        <time>2026-05-13T07:54:43Z</time>
      </trkpt>
      <trkpt lat="48.67259" lon="7.3103">
        <ele>358</ele>
        <time>2026-05-13T07:54:46Z</time>
      </trkpt>
      <trkpt lat="48.67255" lon="7.3101">
        <ele>357</ele>
        <time>2026-05-13T07:54:49Z</time>
      </trkpt>
      <trkpt lat="48.67245" lon="7.3098">
        <ele>358</ele>
        <time>2026-05-13T07:54:52Z</time>
      </trkpt>
      <trkpt lat="48.67232" lon="7.30942">
        <ele>364</ele>
        <time>2026-05-13T07:54:58Z</time>
      </trkpt>
      <trkpt lat="48.672" lon="7.30841">
        <ele>371</ele>
        <time>2026-05-13T07:55:11Z</time>
      </trkpt>
      <trkpt lat="48.67191" lon="7.30805">
        <ele>371</ele>
        <time>2026-05-13T07:55:15Z</time>
      </trkpt>
      <trkpt lat="48.67175" lon="7.30672">
        <ele>371</ele>
        <time>2026-05-13T07:55:31Z</time>
      </trkpt>
      <trkpt lat="48.6717" lon="7.30648">
        <ele>371</ele>
        <time>2026-05-13T07:55:34Z</time>
      </trkpt>
      <trkpt lat="48.67148" lon="7.30592">
        <ele>375</ele>
        <time>2026-05-13T07:55:42Z</time>
      </trkpt>
      <trkpt lat="48.67125" lon="7.30537">
        <ele>377</ele>
        <time>2026-05-13T07:55:49Z</time>
      </trkpt>
      <trkpt lat="48.67081" lon="7.30466">
        <ele>375</ele>
        <time>2026-05-13T07:56:01Z</time>
      </trkpt>
      <trkpt lat="48.66932" lon="7.30239">
        <ele>386</ele>
        <time>2026-05-13T07:56:38Z</time>
      </trkpt>
      <trkpt lat="48.66924" lon="7.30214">
        <ele>384</ele>
        <time>2026-05-13T07:56:42Z</time>
      </trkpt>
      <trkpt lat="48.66923" lon="7.30201">
        <ele>384</ele>
        <time>2026-05-13T07:56:43Z</time>
      </trkpt>
      <trkpt lat="48.66925" lon="7.30189">
        <ele>384</ele>
        <time>2026-05-13T07:56:45Z</time>
      </trkpt>
      <trkpt lat="48.66932" lon="7.30178">
        <ele>386</ele>
        <time>2026-05-13T07:56:46Z</time>
      </trkpt>
      <trkpt lat="48.66939" lon="7.30174">
        <ele>388</ele>
        <time>2026-05-13T07:56:48Z</time>
      </trkpt>
      <trkpt lat="48.66947" lon="7.30176">
        <ele>390</ele>
        <time>2026-05-13T07:56:49Z</time>
      </trkpt>
      <trkpt lat="48.66955" lon="7.30184">
        <ele>391</ele>
        <time>2026-05-13T07:56:51Z</time>
      </trkpt>
      <trkpt lat="48.66988" lon="7.30232">
        <ele>393</ele>
        <time>2026-05-13T07:56:59Z</time>
      </trkpt>
      <trkpt lat="48.67045" lon="7.30308">
        <ele>395</ele>
        <time>2026-05-13T07:57:13Z</time>
      </trkpt>
      <trkpt lat="48.67084" lon="7.30347">
        <ele>395</ele>
        <time>2026-05-13T07:57:21Z</time>
      </trkpt>
      <trkpt lat="48.67117" lon="7.30381">
        <ele>396</ele>
        <time>2026-05-13T07:57:28Z</time>
      </trkpt>
      <trkpt lat="48.67135" lon="7.30395">
        <ele>397</ele>
        <time>2026-05-13T07:57:32Z</time>
      </trkpt>
      <trkpt lat="48.67157" lon="7.30407">
        <ele>399</ele>
        <time>2026-05-13T07:57:36Z</time>
      </trkpt>
      <trkpt lat="48.67195" lon="7.30425">
        <ele>405</ele>
        <time>2026-05-13T07:57:43Z</time>
      </trkpt>
      <trkpt lat="48.67202" lon="7.30434">
        <ele>406</ele>
        <time>2026-05-13T07:57:44Z</time>
      </trkpt>
      <trkpt lat="48.67206" lon="7.30449">
        <ele>405</ele>
        <time>2026-05-13T07:57:46Z</time>
      </trkpt>
      <trkpt lat="48.67217" lon="7.30523">
        <ele>401</ele>
        <time>2026-05-13T07:57:55Z</time>
      </trkpt>
      <trkpt lat="48.67224" lon="7.3056">
        <ele>401</ele>
        <time>2026-05-13T07:58:00Z</time>
      </trkpt>
      <trkpt lat="48.67242" lon="7.30634">
        <ele>402</ele>
        <time>2026-05-13T07:58:09Z</time>
      </trkpt>
      <trkpt lat="48.6725" lon="7.30659">
        <ele>404</ele>
        <time>2026-05-13T07:58:12Z</time>
      </trkpt>
      <trkpt lat="48.673" lon="7.30792">
        <ele>410</ele>
        <time>2026-05-13T07:58:30Z</time>
      </trkpt>
      <trkpt lat="48.67313" lon="7.30825">
        <ele>409</ele>
        <time>2026-05-13T07:58:35Z</time>
      </trkpt>
      <trkpt lat="48.67328" lon="7.30855">
        <ele>411</ele>
        <time>2026-05-13T07:58:39Z</time>
      </trkpt>
      <trkpt lat="48.67362" lon="7.30904">
        <ele>420</ele>
        <time>2026-05-13T07:58:48Z</time>
      </trkpt>
      <trkpt lat="48.67377" lon="7.30929">
        <ele>424</ele>
        <time>2026-05-13T07:58:52Z</time>
      </trkpt>
      <trkpt lat="48.67385" lon="7.30949">
        <ele>426</ele>
        <time>2026-05-13T07:58:54Z</time>
      </trkpt>
      <trkpt lat="48.67391" lon="7.3097">
        <ele>427</ele>
        <time>2026-05-13T07:58:57Z</time>
      </trkpt>
      <trkpt lat="48.67392" lon="7.30981">
        <ele>426</ele>
        <time>2026-05-13T07:58:58Z</time>
      </trkpt>
      <trkpt lat="48.67394" lon="7.30998">
        <ele>425</ele>
        <time>2026-05-13T07:59:00Z</time>
      </trkpt>
      <trkpt lat="48.67397" lon="7.31077">
        <ele>422</ele>
        <time>2026-05-13T07:59:10Z</time>
      </trkpt>
      <trkpt lat="48.67409" lon="7.3117">
        <ele>423</ele>
        <time>2026-05-13T07:59:21Z</time>
      </trkpt>
      <trkpt lat="48.67418" lon="7.31224">
        <ele>423</ele>
        <time>2026-05-13T07:59:27Z</time>
      </trkpt>
      <trkpt lat="48.67433" lon="7.31273">
        <ele>426</ele>
        <time>2026-05-13T07:59:34Z</time>
      </trkpt>
      <trkpt lat="48.67446" lon="7.31304">
        <ele>427</ele>
        <time>2026-05-13T07:59:38Z</time>
      </trkpt>
      <trkpt lat="48.67457" lon="7.31327">
        <ele>427</ele>
        <time>2026-05-13T07:59:41Z</time>
      </trkpt>
      <trkpt lat="48.67489" lon="7.31367">
        <ele>430</ele>
        <time>2026-05-13T07:59:49Z</time>
      </trkpt>
      <trkpt lat="48.67504" lon="7.31377">
        <ele>432</ele>
        <time>2026-05-13T07:59:52Z</time>
      </trkpt>
      <trkpt lat="48.67527" lon="7.31385">
        <ele>434</ele>
        <time>2026-05-13T07:59:56Z</time>
      </trkpt>
      <trkpt lat="48.67557" lon="7.31394">
        <ele>436</ele>
        <time>2026-05-13T08:00:01Z</time>
      </trkpt>
      <trkpt lat="48.67579" lon="7.31396">
        <ele>440</ele>
        <time>2026-05-13T08:00:05Z</time>
      </trkpt>
      <trkpt lat="48.6763" lon="7.31393">
        <ele>442</ele>
        <time>2026-05-13T08:00:14Z</time>
      </trkpt>
      <trkpt lat="48.67647" lon="7.31388">
        <ele>444</ele>
        <time>2026-05-13T08:00:17Z</time>
      </trkpt>
      <trkpt lat="48.67658" lon="7.31381">
        <ele>448</ele>
        <time>2026-05-13T08:00:19Z</time>
      </trkpt>
      <trkpt lat="48.67674" lon="7.31365">
        <ele>456</ele>
        <time>2026-05-13T08:00:23Z</time>
      </trkpt>
      <trkpt lat="48.67687" lon="7.31359">
        <ele>458</ele>
        <time>2026-05-13T08:00:25Z</time>
      </trkpt>
      <trkpt lat="48.67701" lon="7.31357">
        <ele>458</ele>
        <time>2026-05-13T08:00:28Z</time>
      </trkpt>
      <trkpt lat="48.67721" lon="7.31358">
        <ele>456</ele>
        <time>2026-05-13T08:00:31Z</time>
      </trkpt>
      <trkpt lat="48.67752" lon="7.31355">
        <ele>456</ele>
        <time>2026-05-13T08:00:37Z</time>
      </trkpt>
      <trkpt lat="48.67834" lon="7.31318">
        <ele>464</ele>
        <time>2026-05-13T08:00:52Z</time>
      </trkpt>
      <trkpt lat="48.67857" lon="7.3131">
        <ele>469</ele>
        <time>2026-05-13T08:00:56Z</time>
      </trkpt>
      <trkpt lat="48.67876" lon="7.31308">
        <ele>471</ele>
        <time>2026-05-13T08:01:00Z</time>
      </trkpt>
      <trkpt lat="48.67895" lon="7.31318">
        <ele>470</ele>
        <time>2026-05-13T08:01:03Z</time>
      </trkpt>
      <trkpt lat="48.67912" lon="7.3133">
        <ele>468</ele>
        <time>2026-05-13T08:01:07Z</time>
      </trkpt>
      <trkpt lat="48.67931" lon="7.31351">
        <ele>464</ele>
        <time>2026-05-13T08:01:11Z</time>
      </trkpt>
      <trkpt lat="48.6795" lon="7.31373">
        <ele>461</ele>
        <time>2026-05-13T08:01:15Z</time>
      </trkpt>
      <trkpt lat="48.67967" lon="7.31384">
        <ele>461</ele>
        <time>2026-05-13T08:01:18Z</time>
      </trkpt>
      <trkpt lat="48.67977" lon="7.31386">
        <ele>462</ele>
        <time>2026-05-13T08:01:20Z</time>
      </trkpt>
      <trkpt lat="48.6799" lon="7.31385">
        <ele>466</ele>
        <time>2026-05-13T08:01:22Z</time>
      </trkpt>
      <trkpt lat="48.681" lon="7.31323">
        <ele>473</ele>
        <time>2026-05-13T08:01:43Z</time>
      </trkpt>
      <trkpt lat="48.68111" lon="7.31314">
        <ele>473</ele>
        <time>2026-05-13T08:01:46Z</time>
      </trkpt>
      <trkpt lat="48.68118" lon="7.31304">
        <ele>474</ele>
        <time>2026-05-13T08:01:47Z</time>
      </trkpt>
      <trkpt lat="48.68124" lon="7.3129">
        <ele>474</ele>
        <time>2026-05-13T08:01:49Z</time>
      </trkpt>
      <trkpt lat="48.68129" lon="7.31275">
        <ele>475</ele>
        <time>2026-05-13T08:01:51Z</time>
      </trkpt>
      <trkpt lat="48.68132" lon="7.31256">
        <ele>477</ele>
        <time>2026-05-13T08:01:54Z</time>
      </trkpt>
      <trkpt lat="48.68134" lon="7.31238">
        <ele>477</ele>
        <time>2026-05-13T08:01:56Z</time>
      </trkpt>
      <trkpt lat="48.68134" lon="7.31221">
        <ele>478</ele>
        <time>2026-05-13T08:01:58Z</time>
      </trkpt>
      <trkpt lat="48.68129" lon="7.31172">
        <ele>480</ele>
        <time>2026-05-13T08:02:03Z</time>
      </trkpt>
      <trkpt lat="48.6813" lon="7.31157">
        <ele>480</ele>
        <time>2026-05-13T08:02:05Z</time>
      </trkpt>
      <trkpt lat="48.68139" lon="7.31173">
        <ele>478</ele>
        <time>2026-05-13T08:02:08Z</time>
      </trkpt>
      <trkpt lat="48.68161" lon="7.31225">
        <ele>474</ele>
        <time>2026-05-13T08:02:15Z</time>
      </trkpt>
      <trkpt lat="48.68218" lon="7.31347">
        <ele>472</ele>
        <time>2026-05-13T08:02:33Z</time>
      </trkpt>
      <trkpt lat="48.6823" lon="7.31366">
        <ele>472</ele>
        <time>2026-05-13T08:02:36Z</time>
      </trkpt>
      <trkpt lat="48.68246" lon="7.31383">
        <ele>473</ele>
        <time>2026-05-13T08:02:39Z</time>
      </trkpt>
      <trkpt lat="48.68349" lon="7.31469">
        <ele>474</ele>
        <time>2026-05-13T08:03:00Z</time>
      </trkpt>
      <trkpt lat="48.6844" lon="7.31536">
        <ele>469</ele>
        <time>2026-05-13T08:03:18Z</time>
      </trkpt>
      <trkpt lat="48.68478" lon="7.31559">
        <ele>466</ele>
        <time>2026-05-13T08:03:25Z</time>
      </trkpt>
      <trkpt lat="48.68523" lon="7.31571">
        <ele>464</ele>
        <time>2026-05-13T08:03:33Z</time>
      </trkpt>
      <trkpt lat="48.68544" lon="7.31572">
        <ele>463</ele>
        <time>2026-05-13T08:03:37Z</time>
      </trkpt>
      <trkpt lat="48.68557" lon="7.31577">
        <ele>462</ele>
        <time>2026-05-13T08:03:40Z</time>
      </trkpt>
      <trkpt lat="48.68567" lon="7.31585">
        <ele>461</ele>
        <time>2026-05-13T08:03:42Z</time>
      </trkpt>
      <trkpt lat="48.68578" lon="7.31596">
        <ele>459</ele>
        <time>2026-05-13T08:03:44Z</time>
      </trkpt>
      <trkpt lat="48.68608" lon="7.3163">
        <ele>457</ele>
        <time>2026-05-13T08:03:51Z</time>
      </trkpt>
      <trkpt lat="48.68614" lon="7.31638">
        <ele>457</ele>
        <time>2026-05-13T08:03:52Z</time>
      </trkpt>
      <trkpt lat="48.68622" lon="7.31649">
        <ele>457</ele>
        <time>2026-05-13T08:03:54Z</time>
      </trkpt>
      <trkpt lat="48.68649" lon="7.31696">
        <ele>456</ele>
        <time>2026-05-13T08:04:01Z</time>
      </trkpt>
      <trkpt lat="48.68657" lon="7.31714">
        <ele>456</ele>
        <time>2026-05-13T08:04:04Z</time>
      </trkpt>
      <trkpt lat="48.68664" lon="7.31733">
        <ele>456</ele>
        <time>2026-05-13T08:04:06Z</time>
      </trkpt>
      <trkpt lat="48.68679" lon="7.31806">
        <ele>452</ele>
        <time>2026-05-13T08:04:15Z</time>
      </trkpt>
      <trkpt lat="48.68699" lon="7.31862">
        <ele>451</ele>
        <time>2026-05-13T08:04:23Z</time>
      </trkpt>
      <trkpt lat="48.68708" lon="7.31882">
        <ele>451</ele>
        <time>2026-05-13T08:04:26Z</time>
      </trkpt>
      <trkpt lat="48.68718" lon="7.319">
        <ele>450</ele>
        <time>2026-05-13T08:04:28Z</time>
      </trkpt>
      <trkpt lat="48.68769" lon="7.31983">
        <ele>446</ele>
        <time>2026-05-13T08:04:42Z</time>
      </trkpt>
      <trkpt lat="48.68822" lon="7.32067">
        <ele>440</ele>
        <time>2026-05-13T08:04:55Z</time>
      </trkpt>
      <trkpt lat="48.68877" lon="7.32152">
        <ele>435</ele>
        <time>2026-05-13T08:05:09Z</time>
      </trkpt>
      <trkpt lat="48.68931" lon="7.32228">
        <ele>431</ele>
        <time>2026-05-13T08:05:22Z</time>
      </trkpt>
      <trkpt lat="48.6915" lon="7.32444">
        <ele>416</ele>
        <time>2026-05-13T08:06:09Z</time>
      </trkpt>
      <trkpt lat="48.69197" lon="7.32521">
        <ele>409</ele>
        <time>2026-05-13T08:06:21Z</time>
      </trkpt>
      <trkpt lat="48.69243" lon="7.32588">
        <ele>404</ele>
        <time>2026-05-13T08:06:33Z</time>
      </trkpt>
      <trkpt lat="48.6927" lon="7.3261">
        <ele>403</ele>
        <time>2026-05-13T08:06:38Z</time>
      </trkpt>
      <trkpt lat="48.69314" lon="7.32636">
        <ele>401</ele>
        <time>2026-05-13T08:06:47Z</time>
      </trkpt>
      <trkpt lat="48.69386" lon="7.32669">
        <ele>397</ele>
        <time>2026-05-13T08:07:00Z</time>
      </trkpt>
      <trkpt lat="48.69463" lon="7.32669">
        <ele>396</ele>
        <time>2026-05-13T08:07:14Z</time>
      </trkpt>
      <trkpt lat="48.69487" lon="7.32667">
        <ele>395</ele>
        <time>2026-05-13T08:07:18Z</time>
      </trkpt>
      <trkpt lat="48.69548" lon="7.32656">
        <ele>393</ele>
        <time>2026-05-13T08:07:29Z</time>
      </trkpt>
      <trkpt lat="48.69591" lon="7.32651">
        <ele>391</ele>
        <time>2026-05-13T08:07:36Z</time>
      </trkpt>
      <trkpt lat="48.69596" lon="7.3265">
        <ele>391</ele>
        <time>2026-05-13T08:07:37Z</time>
      </trkpt>
      <trkpt lat="48.69612" lon="7.32647">
        <ele>390</ele>
        <time>2026-05-13T08:07:40Z</time>
      </trkpt>
      <trkpt lat="48.69636" lon="7.32641">
        <ele>389</ele>
        <time>2026-05-13T08:07:45Z</time>
      </trkpt>
      <trkpt lat="48.69642" lon="7.32641">
        <ele>389</ele>
        <time>2026-05-13T08:07:46Z</time>
      </trkpt>
      <trkpt lat="48.6965" lon="7.32643">
        <ele>388</ele>
        <time>2026-05-13T08:07:47Z</time>
      </trkpt>
      <trkpt lat="48.69659" lon="7.3265">
        <ele>388</ele>
        <time>2026-05-13T08:07:49Z</time>
      </trkpt>
      <trkpt lat="48.69665" lon="7.32658">
        <ele>388</ele>
        <time>2026-05-13T08:07:50Z</time>
      </trkpt>
      <trkpt lat="48.69668" lon="7.32667">
        <ele>388</ele>
        <time>2026-05-13T08:07:51Z</time>
      </trkpt>
      <trkpt lat="48.69671" lon="7.3269">
        <ele>388</ele>
        <time>2026-05-13T08:07:54Z</time>
      </trkpt>
      <trkpt lat="48.69673" lon="7.32711">
        <ele>388</ele>
        <time>2026-05-13T08:07:57Z</time>
      </trkpt>
      <trkpt lat="48.69678" lon="7.32733">
        <ele>388</ele>
        <time>2026-05-13T08:07:59Z</time>
      </trkpt>
      <trkpt lat="48.6969" lon="7.32771">
        <ele>390</ele>
        <time>2026-05-13T08:08:04Z</time>
      </trkpt>
      <trkpt lat="48.69698" lon="7.3279">
        <ele>392</ele>
        <time>2026-05-13T08:08:07Z</time>
      </trkpt>
      <trkpt lat="48.69708" lon="7.32814">
        <ele>394</ele>
        <time>2026-05-13T08:08:10Z</time>
      </trkpt>
      <trkpt lat="48.69731" lon="7.32858">
        <ele>396</ele>
        <time>2026-05-13T08:08:17Z</time>
      </trkpt>
      <trkpt lat="48.69765" lon="7.32918">
        <ele>397</ele>
        <time>2026-05-13T08:08:26Z</time>
      </trkpt>
      <trkpt lat="48.69786" lon="7.32945">
        <ele>398</ele>
        <time>2026-05-13T08:08:31Z</time>
      </trkpt>
      <trkpt lat="48.69825" lon="7.32985">
        <ele>399</ele>
        <time>2026-05-13T08:08:40Z</time>
      </trkpt>
      <trkpt lat="48.69871" lon="7.33013">
        <ele>400</ele>
        <time>2026-05-13T08:08:48Z</time>
      </trkpt>
      <trkpt lat="48.69905" lon="7.33025">
        <ele>401</ele>
        <time>2026-05-13T08:08:55Z</time>
      </trkpt>
      <trkpt lat="48.69936" lon="7.33024">
        <ele>403</ele>
        <time>2026-05-13T08:09:00Z</time>
      </trkpt>
      <trkpt lat="48.69987" lon="7.33029">
        <ele>400</ele>
        <time>2026-05-13T08:09:09Z</time>
      </trkpt>
      <trkpt lat="48.70015" lon="7.33023">
        <ele>401</ele>
        <time>2026-05-13T08:09:14Z</time>
      </trkpt>
      <trkpt lat="48.70035" lon="7.33013">
        <ele>403</ele>
        <time>2026-05-13T08:09:18Z</time>
      </trkpt>
      <trkpt lat="48.70084" lon="7.32998">
        <ele>407</ele>
        <time>2026-05-13T08:09:27Z</time>
      </trkpt>
      <trkpt lat="48.70153" lon="7.32982">
        <ele>409</ele>
        <time>2026-05-13T08:09:39Z</time>
      </trkpt>
      <trkpt lat="48.70332" lon="7.32958">
        <ele>422</ele>
        <time>2026-05-13T08:10:11Z</time>
      </trkpt>
      <trkpt lat="48.70358" lon="7.32966">
        <ele>421</ele>
        <time>2026-05-13T08:10:16Z</time>
      </trkpt>
      <trkpt lat="48.70409" lon="7.32977">
        <ele>422</ele>
        <time>2026-05-13T08:10:25Z</time>
      </trkpt>
      <trkpt lat="48.70433" lon="7.32981">
        <ele>424</ele>
        <time>2026-05-13T08:10:29Z</time>
      </trkpt>
      <trkpt lat="48.70467" lon="7.32995">
        <ele>423</ele>
        <time>2026-05-13T08:10:36Z</time>
      </trkpt>
      <trkpt lat="48.70518" lon="7.3301">
        <ele>422</ele>
        <time>2026-05-13T08:10:45Z</time>
      </trkpt>
      <trkpt lat="48.70561" lon="7.33021">
        <ele>422</ele>
        <time>2026-05-13T08:10:53Z</time>
      </trkpt>
      <trkpt lat="48.70609" lon="7.33031">
        <ele>425</ele>
        <time>2026-05-13T08:11:01Z</time>
      </trkpt>
      <trkpt lat="48.70632" lon="7.3304">
        <ele>426</ele>
        <time>2026-05-13T08:11:06Z</time>
      </trkpt>
      <trkpt lat="48.70649" lon="7.33051">
        <ele>425</ele>
        <time>2026-05-13T08:11:09Z</time>
      </trkpt>
      <trkpt lat="48.70725" lon="7.33134">
        <ele>421</ele>
        <time>2026-05-13T08:11:26Z</time>
      </trkpt>
      <trkpt lat="48.70757" lon="7.33164">
        <ele>424</ele>
        <time>2026-05-13T08:11:32Z</time>
      </trkpt>
      <trkpt lat="48.70794" lon="7.33188">
        <ele>427</ele>
        <time>2026-05-13T08:11:39Z</time>
      </trkpt>
      <trkpt lat="48.7083" lon="7.33207">
        <ele>430</ele>
        <time>2026-05-13T08:11:46Z</time>
      </trkpt>
      <trkpt lat="48.70868" lon="7.33228">
        <ele>428</ele>
        <time>2026-05-13T08:11:53Z</time>
      </trkpt>
      <trkpt lat="48.70898" lon="7.33237">
        <ele>428</ele>
        <time>2026-05-13T08:11:59Z</time>
      </trkpt>
      <trkpt lat="48.70931" lon="7.33242">
        <ele>428</ele>
        <time>2026-05-13T08:12:05Z</time>
      </trkpt>
      <trkpt lat="48.70986" lon="7.33254">
        <ele>426</ele>
        <time>2026-05-13T08:12:15Z</time>
      </trkpt>
      <trkpt lat="48.71006" lon="7.33255">
        <ele>426</ele>
        <time>2026-05-13T08:12:18Z</time>
      </trkpt>
      <trkpt lat="48.71043" lon="7.33241">
        <ele>428</ele>
        <time>2026-05-13T08:12:25Z</time>
      </trkpt>
      <trkpt lat="48.71096" lon="7.33206">
        <ele>431</ele>
        <time>2026-05-13T08:12:35Z</time>
      </trkpt>
      <trkpt lat="48.7116" lon="7.33166">
        <ele>432</ele>
        <time>2026-05-13T08:12:48Z</time>
      </trkpt>
      <trkpt lat="48.71235" lon="7.33118">
        <ele>432</ele>
        <time>2026-05-13T08:13:02Z</time>
      </trkpt>
      <trkpt lat="48.71257" lon="7.33111">
        <ele>431</ele>
        <time>2026-05-13T08:13:06Z</time>
      </trkpt>
      <trkpt lat="48.71317" lon="7.33113">
        <ele>432</ele>
        <time>2026-05-13T08:13:17Z</time>
      </trkpt>
      <trkpt lat="48.71391" lon="7.33085">
        <ele>431</ele>
        <time>2026-05-13T08:13:30Z</time>
      </trkpt>
      <trkpt lat="48.71424" lon="7.33074">
        <ele>431</ele>
        <time>2026-05-13T08:13:36Z</time>
      </trkpt>
      <trkpt lat="48.71458" lon="7.33069">
        <ele>430</ele>
        <time>2026-05-13T08:13:42Z</time>
      </trkpt>
      <trkpt lat="48.71489" lon="7.33067">
        <ele>429</ele>
        <time>2026-05-13T08:13:48Z</time>
      </trkpt>
      <trkpt lat="48.71541" lon="7.33073">
        <ele>428</ele>
        <time>2026-05-13T08:13:57Z</time>
      </trkpt>
      <trkpt lat="48.7156" lon="7.33079">
        <ele>429</ele>
        <time>2026-05-13T08:14:01Z</time>
      </trkpt>
      <trkpt lat="48.71594" lon="7.33093">
        <ele>429</ele>
        <time>2026-05-13T08:14:07Z</time>
      </trkpt>
      <trkpt lat="48.71622" lon="7.33109">
        <ele>431</ele>
        <time>2026-05-13T08:14:12Z</time>
      </trkpt>
      <trkpt lat="48.71636" lon="7.33115">
        <ele>431</ele>
        <time>2026-05-13T08:14:15Z</time>
      </trkpt>
      <trkpt lat="48.71647" lon="7.33115">
        <ele>430</ele>
        <time>2026-05-13T08:14:17Z</time>
      </trkpt>
      <trkpt lat="48.7166" lon="7.3311">
        <ele>428</ele>
        <time>2026-05-13T08:14:19Z</time>
      </trkpt>
      <trkpt lat="48.71679" lon="7.33093">
        <ele>425</ele>
        <time>2026-05-13T08:14:23Z</time>
      </trkpt>
      <trkpt lat="48.71697" lon="7.33074">
        <ele>424</ele>
        <time>2026-05-13T08:14:27Z</time>
      </trkpt>
      <trkpt lat="48.71732" lon="7.33042">
        <ele>422</ele>
        <time>2026-05-13T08:14:34Z</time>
      </trkpt>
      <trkpt lat="48.71773" lon="7.33017">
        <ele>422</ele>
        <time>2026-05-13T08:14:42Z</time>
      </trkpt>
      <trkpt lat="48.71793" lon="7.33007">
        <ele>422</ele>
        <time>2026-05-13T08:14:46Z</time>
      </trkpt>
      <trkpt lat="48.71818" lon="7.32998">
        <ele>422</ele>
        <time>2026-05-13T08:14:50Z</time>
      </trkpt>
      <trkpt lat="48.71857" lon="7.32977">
        <ele>420</ele>
        <time>2026-05-13T08:14:58Z</time>
      </trkpt>
      <trkpt lat="48.7189" lon="7.32957">
        <ele>417</ele>
        <time>2026-05-13T08:15:04Z</time>
      </trkpt>
      <trkpt lat="48.71909" lon="7.32946">
        <ele>416</ele>
        <time>2026-05-13T08:15:08Z</time>
      </trkpt>
      <trkpt lat="48.71929" lon="7.32944">
        <ele>415</ele>
        <time>2026-05-13T08:15:11Z</time>
      </trkpt>
      <trkpt lat="48.7196" lon="7.32947">
        <ele>413</ele>
        <time>2026-05-13T08:15:17Z</time>
      </trkpt>
      <trkpt lat="48.71967" lon="7.32948">
        <ele>413</ele>
        <time>2026-05-13T08:15:18Z</time>
      </trkpt>
      <trkpt lat="48.71982" lon="7.32958">
        <ele>413</ele>
        <time>2026-05-13T08:15:21Z</time>
      </trkpt>
      <trkpt lat="48.72004" lon="7.32987">
        <ele>413</ele>
        <time>2026-05-13T08:15:26Z</time>
      </trkpt>
      <trkpt lat="48.72009" lon="7.33">
        <ele>412</ele>
        <time>2026-05-13T08:15:28Z</time>
      </trkpt>
      <trkpt lat="48.72013" lon="7.32999">
        <ele>410</ele>
        <time>2026-05-13T08:15:29Z</time>
      </trkpt>
      <trkpt lat="48.72019" lon="7.33008">
        <ele>408</ele>
        <time>2026-05-13T08:15:30Z</time>
      </trkpt>
      <trkpt lat="48.72024" lon="7.33032">
        <ele>407</ele>
        <time>2026-05-13T08:15:33Z</time>
      </trkpt>
      <trkpt lat="48.72027" lon="7.33056">
        <ele>407</ele>
        <time>2026-05-13T08:15:36Z</time>
      </trkpt>
      <trkpt lat="48.72029" lon="7.33082">
        <ele>408</ele>
        <time>2026-05-13T08:15:39Z</time>
      </trkpt>
      <trkpt lat="48.72029" lon="7.33149">
        <ele>412</ele>
        <time>2026-05-13T08:15:47Z</time>
      </trkpt>
      <trkpt lat="48.72031" lon="7.33179">
        <ele>414</ele>
        <time>2026-05-13T08:15:50Z</time>
      </trkpt>
      <trkpt lat="48.72037" lon="7.33217">
        <ele>415</ele>
        <time>2026-05-13T08:15:55Z</time>
      </trkpt>
      <trkpt lat="48.72048" lon="7.33239">
        <ele>412</ele>
        <time>2026-05-13T08:15:58Z</time>
      </trkpt>
      <trkpt lat="48.72068" lon="7.33268">
        <ele>406</ele>
        <time>2026-05-13T08:16:03Z</time>
      </trkpt>
      <trkpt lat="48.72103" lon="7.33314">
        <ele>400</ele>
        <time>2026-05-13T08:16:11Z</time>
      </trkpt>
      <trkpt lat="48.72148" lon="7.33364">
        <ele>399</ele>
        <time>2026-05-13T08:16:21Z</time>
      </trkpt>
      <trkpt lat="48.72205" lon="7.33394">
        <ele>395</ele>
        <time>2026-05-13T08:16:32Z</time>
      </trkpt>
      <trkpt lat="48.72231" lon="7.33396">
        <ele>391</ele>
        <time>2026-05-13T08:16:37Z</time>
      </trkpt>
      <trkpt lat="48.72283" lon="7.33405">
        <ele>384</ele>
        <time>2026-05-13T08:16:46Z</time>
      </trkpt>
      <trkpt lat="48.72332" lon="7.33433">
        <ele>382</ele>
        <time>2026-05-13T08:16:55Z</time>
      </trkpt>
      <trkpt lat="48.72394" lon="7.33489">
        <ele>381</ele>
        <time>2026-05-13T08:17:08Z</time>
      </trkpt>
      <trkpt lat="48.72448" lon="7.33527">
        <ele>379</ele>
        <time>2026-05-13T08:17:19Z</time>
      </trkpt>
      <trkpt lat="48.7253" lon="7.33573">
        <ele>368</ele>
        <time>2026-05-13T08:17:34Z</time>
      </trkpt>
      <trkpt lat="48.72594" lon="7.33625">
        <ele>362</ele>
        <time>2026-05-13T08:17:47Z</time>
      </trkpt>
      <trkpt lat="48.72658" lon="7.33682">
        <ele>353</ele>
        <time>2026-05-13T08:18:00Z</time>
      </trkpt>
      <trkpt lat="48.72705" lon="7.33741">
        <ele>351</ele>
        <time>2026-05-13T08:18:11Z</time>
      </trkpt>
      <trkpt lat="48.72733" lon="7.33781">
        <ele>349</ele>
        <time>2026-05-13T08:18:18Z</time>
      </trkpt>
      <trkpt lat="48.72754" lon="7.3381">
        <ele>346</ele>
        <time>2026-05-13T08:18:23Z</time>
      </trkpt>
      <trkpt lat="48.72797" lon="7.33904">
        <ele>344</ele>
        <time>2026-05-13T08:18:37Z</time>
      </trkpt>
      <trkpt lat="48.72856" lon="7.3406">
        <ele>334</ele>
        <time>2026-05-13T08:18:58Z</time>
      </trkpt>
      <trkpt lat="48.72899" lon="7.34156">
        <ele>324</ele>
        <time>2026-05-13T08:19:11Z</time>
      </trkpt>
      <trkpt lat="48.72949" lon="7.34232">
        <ele>321</ele>
        <time>2026-05-13T08:19:24Z</time>
      </trkpt>
      <trkpt lat="48.72987" lon="7.34278">
        <ele>317</ele>
        <time>2026-05-13T08:19:33Z</time>
      </trkpt>
      <trkpt lat="48.73112" lon="7.34387">
        <ele>307</ele>
        <time>2026-05-13T08:19:58Z</time>
      </trkpt>
      <trkpt lat="48.73165" lon="7.34456">
        <ele>302</ele>
        <time>2026-05-13T08:20:11Z</time>
      </trkpt>
      <trkpt lat="48.73239" lon="7.3458">
        <ele>292</ele>
        <time>2026-05-13T08:20:30Z</time>
      </trkpt>
      <trkpt lat="48.73249" lon="7.34598">
        <ele>290</ele>
        <time>2026-05-13T08:20:33Z</time>
      </trkpt>
      <trkpt lat="48.73331" lon="7.34744">
        <ele>279</ele>
        <time>2026-05-13T08:20:56Z</time>
      </trkpt>
      <trkpt lat="48.73345" lon="7.34763">
        <ele>278</ele>
        <time>2026-05-13T08:20:59Z</time>
      </trkpt>
      <trkpt lat="48.73358" lon="7.34783">
        <ele>276</ele>
        <time>2026-05-13T08:21:02Z</time>
      </trkpt>
      <trkpt lat="48.73381" lon="7.34815">
        <ele>274</ele>
        <time>2026-05-13T08:21:08Z</time>
      </trkpt>
      <trkpt lat="48.73386" lon="7.34827">
        <ele>274</ele>
        <time>2026-05-13T08:21:09Z</time>
      </trkpt>
      <trkpt lat="48.7339" lon="7.34824">
        <ele>273</ele>
        <time>2026-05-13T08:21:10Z</time>
      </trkpt>
      <trkpt lat="48.734" lon="7.34823">
        <ele>272</ele>
        <time>2026-05-13T08:21:12Z</time>
      </trkpt>
      <trkpt lat="48.73412" lon="7.34824">
        <ele>270</ele>
        <time>2026-05-13T08:21:14Z</time>
      </trkpt>
      <trkpt lat="48.7351" lon="7.34832">
        <ele>264</ele>
        <time>2026-05-13T08:21:32Z</time>
      </trkpt>
      <trkpt lat="48.7352" lon="7.34835">
        <ele>263</ele>
        <time>2026-05-13T08:21:33Z</time>
      </trkpt>
      <trkpt lat="48.73535" lon="7.34841">
        <ele>261</ele>
        <time>2026-05-13T08:21:36Z</time>
      </trkpt>
      <trkpt lat="48.73576" lon="7.34858">
        <ele>257</ele>
        <time>2026-05-13T08:21:44Z</time>
      </trkpt>
      <trkpt lat="48.7359" lon="7.34864">
        <ele>256</ele>
        <time>2026-05-13T08:21:46Z</time>
      </trkpt>
      <trkpt lat="48.73607" lon="7.3487">
        <ele>254</ele>
        <time>2026-05-13T08:21:49Z</time>
      </trkpt>
      <trkpt lat="48.73751" lon="7.34907">
        <ele>238</ele>
        <time>2026-05-13T08:22:15Z</time>
      </trkpt>
      <trkpt lat="48.73792" lon="7.34917">
        <ele>235</ele>
        <time>2026-05-13T08:22:23Z</time>
      </trkpt>
      <trkpt lat="48.73831" lon="7.34922">
        <ele>232</ele>
        <time>2026-05-13T08:22:30Z</time>
      </trkpt>
      <trkpt lat="48.73851" lon="7.34924">
        <ele>230</ele>
        <time>2026-05-13T08:22:33Z</time>
      </trkpt>
      <trkpt lat="48.73867" lon="7.34932">
        <ele>228</ele>
        <time>2026-05-13T08:22:36Z</time>
      </trkpt>
      <trkpt lat="48.73879" lon="7.34941">
        <ele>227</ele>
        <time>2026-05-13T08:22:39Z</time>
      </trkpt>
      <trkpt lat="48.73914" lon="7.34972">
        <ele>225</ele>
        <time>2026-05-13T08:22:46Z</time>
      </trkpt>
      <trkpt lat="48.73937" lon="7.34996">
        <ele>222</ele>
        <time>2026-05-13T08:22:51Z</time>
      </trkpt>
      <trkpt lat="48.73954" lon="7.35016">
        <ele>219</ele>
        <time>2026-05-13T08:22:55Z</time>
      </trkpt>
      <trkpt lat="48.73978" lon="7.35051">
        <ele>214</ele>
        <time>2026-05-13T08:23:01Z</time>
      </trkpt>
      <trkpt lat="48.73993" lon="7.3508">
        <ele>211</ele>
        <time>2026-05-13T08:23:05Z</time>
      </trkpt>
      <trkpt lat="48.74007" lon="7.35116">
        <ele>209</ele>
        <time>2026-05-13T08:23:10Z</time>
      </trkpt>
      <trkpt lat="48.74012" lon="7.35132">
        <ele>208</ele>
        <time>2026-05-13T08:23:12Z</time>
      </trkpt>
      <trkpt lat="48.74016" lon="7.35149">
        <ele>208</ele>
        <time>2026-05-13T08:23:14Z</time>
      </trkpt>
      <trkpt lat="48.74019" lon="7.35171">
        <ele>207</ele>
        <time>2026-05-13T08:23:17Z</time>
      </trkpt>
      <trkpt lat="48.74021" lon="7.3519">
        <ele>206</ele>
        <time>2026-05-13T08:23:19Z</time>
      </trkpt>
      <trkpt lat="48.74024" lon="7.35224">
        <ele>205</ele>
        <time>2026-05-13T08:23:23Z</time>
      </trkpt>
      <trkpt lat="48.74024" lon="7.35232">
        <ele>205</ele>
        <time>2026-05-13T08:23:24Z</time>
      </trkpt>
      <trkpt lat="48.74027" lon="7.35273">
        <ele>203</ele>
        <time>2026-05-13T08:23:29Z</time>
      </trkpt>
      <trkpt lat="48.74035" lon="7.35426">
        <ele>199</ele>
        <time>2026-05-13T08:23:47Z</time>
      </trkpt>
      <trkpt lat="48.74037" lon="7.35452">
        <ele>198</ele>
        <time>2026-05-13T08:23:50Z</time>
      </trkpt>
      <trkpt lat="48.7404" lon="7.35471">
        <ele>197</ele>
        <time>2026-05-13T08:23:52Z</time>
      </trkpt>
      <trkpt lat="48.74083" lon="7.35455">
        <ele>194</ele>
        <time>2026-05-13T08:24:00Z</time>
      </trkpt>
      <trkpt lat="48.74091" lon="7.35453">
        <ele>193</ele>
        <time>2026-05-13T08:24:02Z</time>
      </trkpt>
      <trkpt lat="48.7409" lon="7.35485">
        <ele>193</ele>
        <time>2026-05-13T08:24:05Z</time>
      </trkpt>
      <trkpt lat="48.74088" lon="7.35626">
        <ele>196</ele>
        <time>2026-05-13T08:24:22Z</time>
      </trkpt>
      <trkpt lat="48.74091" lon="7.35637">
        <ele>196</ele>
        <time>2026-05-13T08:24:23Z</time>
      </trkpt>
      <trkpt lat="48.74092" lon="7.35652">
        <ele>197</ele>
        <time>2026-05-13T08:24:25Z</time>
      </trkpt>
      <trkpt lat="48.74088" lon="7.35823">
        <ele>197</ele>
        <time>2026-05-13T08:24:45Z</time>
      </trkpt>
      <trkpt lat="48.74086" lon="7.35918">
        <ele>199</ele>
        <time>2026-05-13T08:24:56Z</time>
      </trkpt>
      <trkpt lat="48.74098" lon="7.35939">
        <ele>199</ele>
        <time>2026-05-13T08:24:59Z</time>
      </trkpt>
      <trkpt lat="48.74286" lon="7.36302">
        <ele>187</ele>
      </trkpt>
      <trkpt lat="48.74361" lon="7.36454">
        <ele>187</ele>
      </trkpt>
      <trkpt lat="48.74259" lon="7.36583">
        <ele>187.7</ele>
      </trkpt>
      <trkpt lat="48.74226" lon="7.36521">
        <ele>189.1</ele>
        <time>2026-05-13T08:25:04Z</time>
        <extensions>
          <visugpx:TrkExtension xmlns:visugpx="https://www.visugpx.com/editgpx/">
            <visugpx:node>1</visugpx:node>
            </visugpx:TrkExtension>
        </extensions>
      </trkpt>
    </trkseg>
  </trk>
</gpx>